     2.11           OBSERVATION DATA    G (GPS)             RINEX VERSION / TYPE
teqc 2010Oct21 OPUS Account 20111028 16:36:51UTC            PGM / RUN BY / DATE
D 1527                                                      MARKER NAME
3065                                                        MARKER NUMBER
CSMIDDLETON NGS                                             OBSERVER / AGENCY
4624K01648 TRIMBLE NETR5 4.41                               REC # / TYPE / VERS
12611996 TRM41249.00 NONE                                   ANT # / TYPE
  -736694.5859 -5584325.8009  2982138.2794                  APPROX POSITION XYZ
        2.0000        0.0000        0.0000                  ANTENNA: DELTA H/E/N
     1     1                                                WAVELENGTH FACT L1/2
     5    L1    L2    C1    P1    P2                        # / TYPES OF OBSERV
    15                                                      LEAP SECONDS
  2011     8    24     0     0    0.0000000     GPS         TIME OF FIRST OBS
                                                            END OF HEADER
 11  8 24  0  0  0.0000000  0  9G04G10G12G09G17G05G02G25G30
 113487536.52218  88432005.37955  21595947.258                    21595957.410
 109740504.67518  85512241.30556  20882896.883                    20882905.691
 113378838.75218  88347262.52817  21575275.719                    21575284.074
 123659376.65016  96358060.44453  23531610.820                    23531622.730
 121385435.74217  94586087.53416  23098864.172                    23098874.563
 116117858.55317  90481537.75617  22096474.398                    22096484.563
 108474543.14018  84525774.07156  20642006.898                    20642013.352
 127895270.96517  99658788.15716  24337688.500                    24337701.508
 127487928.49816  99341341.70453  24260158.375                    24260169.238
 11  8 24  0  0 30.0000000  0  9G04G10G12G09G17G05G02G25G30
 113563010.554 8  88490816.30245  21610309.484                    21610319.664
 109736764.409 8  85509326.83446  20882184.789                    20882194.047
 113314400.141 7  88297050.683 7  21563013.000                    21563021.605
 123735202.469 7  96417145.34943  23546040.273                    23546052.363
 121435896.802 7  94625407.764 6  23108466.234                    23108477.105
 116026046.474 7  90409995.990 7  22079002.891                    22079013.398
 108472119.614 8  84523885.61646  20641546.000                    20641552.488
 127794202.735 7  99580033.782 6  24318455.969                    24318468.793
 127384696.846 6  99260901.53343  24240514.023                    24240524.477
 11  8 24  0  1  0.0000000  0  9G04G10G12G09G17G05G02G25G30
 113638632.902 8  88549742.78345  21624699.953                    21624709.504
 109733651.969 7  85506901.59046  20881592.766                    20881601.637
 113250366.734 8  88247154.557 7  21550827.930                    21550836.477
 123811222.992 7  96476382.03043  23560506.133                    23560518.828
 121486509.555 7  94664846.204 6  23118097.398                    23118108.543
 115934519.257 7  90338676.194 7  22061586.539                    22061596.293
 108469989.944 8  84522226.16246  20641140.250                    20641146.707
 127693283.069 7  99501395.190 6  24299251.234                    24299263.891
 127281670.153 6  99180621.07543  24220908.961                    24220919.773
 11  8 24  0  1 30.0000000  0  9G04G10G12G09G17G05G02G25G30
 113714401.373 8  88608783.11645  21639118.383                    21639127.938
 109731167.984 8  85504966.03446  20881119.664                    20881128.629
 113186740.791 7  88197575.944 7  21538720.523                    21538729.152
 123887435.148 6  96535768.04043  23575008.984                    23575021.352
 121537274.801 7  94704403.466 6  23127758.117                    23127768.684
 115843279.151 7  90267580.112 7  22044223.789                    22044234.180
 108468153.117 8  84520794.89746  20640791.125                    20640797.543
 127592514.578 7  99422874.383 6  24280075.586                    24280087.766
 127178851.508 7  99100502.69643  24201342.742                    24201353.738
 11  8 24  0  2  0.0000000  0  9G04G10G12G09G17G05G02G25G30
 113790314.348 8  88667936.05745  21653564.344                    21653573.719
 109729312.806 8  85503520.47146  20880767.281                    20880775.641
 113123524.667 7  88148316.662 7  21526690.625                    21526699.469
 123963835.471 6  96595300.65643  23589547.547                    23589560.691
 121588193.139 7  94744080.019 6  23137447.828                    23137458.172
 115752329.414 7  90196710.307 7  22026915.883                    22026926.887
 108466608.212 8  84519591.09546  20640497.016                    20640502.695
 127491899.749 7  99344473.294 6  24260929.023                    24260941.547
 127076243.436 6  99020548.37843  24181816.586                    24181828.262
 11  8 24  0  2 30.0000000  0  9G04G10G12G09G17G05G02G25G30
 113866369.590 8  88727199.86545  21668036.945                    21668046.262
 109728086.717 8  85502565.09946  20880533.727                    20880542.617
 113060721.232 7  88099378.978 7  21514739.766                    21514748.223
 124040420.501 6  96654977.19043  23604121.289                    23604134.578
 121639265.085 7  94783876.255 6  23147165.969                    23147176.809
 115661673.146 7  90126069.187 7  22009664.992                    22009675.395
 108465353.864 8  84518613.70346  20640258.492                    20640264.762
 127391441.321 7  99266194.091 6  24241811.813                    24241824.863
 126973849.079 6  98940760.61343  24162331.727                    24162343.395
 11  8 24  0  3  0.0000000  0  9G04G10G12G09G17G05G02G25G30
 113942565.003 8  88786572.87645  21682536.398                    21682545.848
 109727489.869 8  85502100.04446  20880420.156                    20880429.258
 112998332.293 7  88050764.265 7  21502867.531                    21502876.152
 124117186.767 6  96714794.97943  23618728.563                    23618742.930
 121690491.349 7  94823792.805 6  23156914.469                    23156924.773
 115571312.931 7  90055658.750 7  21992469.617                    21992479.824
 108464389.072 8  84517861.94146  20640074.656                    20640080.949
 127291141.732 6  99188038.659 6  24222725.266                    24222738.695
 126871671.002 6  98861141.34543  24142887.094                    24142898.797
 11  8 24  0  3 30.0000000  0  9G04G10G12G09G17G05G02G25G30
 114018898.630 8  88846053.59845  21697062.258                    21697072.031
 109727522.369 8  85502125.39646  20880425.836                    20880435.020
 112936360.102 7  88002474.273 7  21491074.266                    21491082.844
 124194130.891 5  96774751.33142  23633370.672                    23633384.402
 121741872.194 7  94863829.765 6  23166691.805                    23166702.500
 115481251.995 7  89985481.500 7  21975331.625                    21975341.828
 108463712.561 8  84517334.81646  20639945.797                    20639952.230
 127191003.544 6  99110008.992 6  24203670.555                    24203683.488
 126769712.009 6  98781692.84743  24123485.430                    24123496.148
 11  8 24  0  4  0.0000000  0  9G04G10G12G09G17G05G02G25G30
 114095368.242 8  88905640.27245  21711614.523                    21711623.566
 109728184.678 8  85502641.51446  20880552.180                    20880561.180
 112874807.690 7  87954511.388 7  21479361.633                    21479370.242
 124271249.275 5  96834843.53042  23648046.391                    23648059.738
 121793408.694 7  94903987.993 6  23176499.063                    23176509.977
 115391492.654 7  89915539.284 7  21958250.852                    21958261.180
 108463322.976 8  84517031.27346  20639871.422                    20639878.117
 127091029.264 6  99032107.037 6  24184645.313                    24184658.559
 126667974.778 6  98702417.18843  24104125.500                    24104136.063
 11  8 24  0  4 30.0000000  0  9G04G10G12G09G17G05G02G25G30
 114171972.032 8  88965331.51645  21726191.320                    21726200.289
 109729477.084 8  85503648.62146  20880797.969                    20880806.914
 112813676.956 8  87906877.086 7  21467728.656                    21467737.570
 124348538.623 6  96895068.90943  23662754.891                    23662767.234
 121845101.290 7  94944267.858 6  23186335.992                    23186346.273
 115302038.092 7  89845834.556 7  21941228.281                    21941238.195
 108463219.430 8  84516950.62446  20639851.953                    20639858.531
 126991221.460 6  98954334.823 6  24165652.523                    24165665.555
 126566462.246 6  98623316.54542  24084808.086                    24084818.324
 11  8 24  0  5  0.0000000  0  9G04G10G12G09G17G05G02G25G30
 114248707.803 8  89025125.59245  21740793.586                    21740803.234
 109731399.622 8  85505146.72946  20881164.008                    20881172.895
 112752970.134 7  87859573.103 7  21456176.516                    21456184.988
 124425995.622 6  96955424.93143  23677494.445                    23677506.570
 121896950.627 7  94984669.875 6  23196201.914                    23196212.906
 115212890.864 7  89776369.309 7  21924263.711                    21924274.023
 108463400.585 8  84517091.80746  20639886.578                    20639893.098
 126891582.774 6  98876694.418 6  24146691.773                    24146705.730
 126465177.164 6  98544393.21043  24065534.914                    24065544.516
 11  8 24  0  5 30.0000000  0  9G04G10G12G09G17G05G02G25G30
 114325573.895 8  89085021.20345  21755420.617                    21755430.496
 109733952.489 7  85507136.01746  20881649.398                    20881658.676
 112692689.812 7  87812601.452 7  21444705.742                    21444713.805
 124503616.981 6  97015909.04143  23692265.242                    23692277.801
 121948957.052 7  95025194.267 6  23206099.063                    23206109.563
 115124054.378 7  89707146.184 7  21907359.164                    21907369.152
 108463865.714 8  84517454.28446  20639974.875                    20639981.219
 126792116.033 7  98799187.953 6  24127763.633                    24127777.430
 126364122.654 6  98465649.55943  24046304.891                    24046314.672
 11  8 24  0  6  0.0000000  0  9G04G10G12G09G17G05G02G25G30
 114402568.464 8  89145016.93745  21770072.773                    21770081.973
 109737136.280 7  85509616.90946  20882255.570                    20882264.836
 112632838.598 8  87765964.178 7  21433316.414                    21433324.047
 124581399.322 6  97076518.54943  23707066.641                    23707079.238
 122001121.248 7  95065841.640 6  23216025.352                    23216036.484
 115035531.402 7  89638167.366 7  21890513.227                    21890523.828
 108464613.638 7  84518037.11046  20640117.203                    20640123.605
 126692823.911 7  98721817.563 6  24108868.906                    24108882.633
 126263301.402 6  98387087.72043  24027118.531                    24027130.313
 11  8 24  0  6 30.0000000  0  9G04G10G12G09G17G05G02G25G30
 114479689.201 8  89205110.99745  21784748.055                    21784757.199
 109740950.846 8  85512589.33246  20882980.961                    20882990.086
 112573418.285 8  87719662.678 7  21422008.891                    21422016.609
 124659339.118 6  97137250.73943  23721897.883                    23721910.797
 122053443.660 7  95106612.310 6  23225981.953                    23225993.176
 114947324.504 7  89569434.854 7  21873728.273                    21873738.313
 108465642.921 8  84518839.18146  20640312.914                    20640319.434
 126593708.694 7  98644585.033 6  24090008.016                    24090021.867
 126162716.192 6  98308709.74444  24007977.555                    24007989.598
 11  8 24  0  7  0.0000000  0  9G04G10G12G09G17G05G02G25G30
 114556934.111 8  89265301.80545  21799447.328                    21799456.957
 109745396.033 8  85516053.11946  20883827.156                    20883836.465
 112514431.070 8  87673698.633 7  21410783.695                    21410791.934
 124737433.066 7  97198103.05743  23736759.422                    23736771.430
 122105925.147 7  95147506.919 6  23235968.711                    23235980.000
 114859436.710 7  89500950.961 7  21857003.453                    21857013.414
 108466952.380 8  84519859.55746  20640562.094                    20640569.086
 126494772.999 7  98567492.340 6  24071181.570                    24071194.344
 126062369.619 7  98230517.75043  23988882.617                    23988893.547
 11  8 24  0  7 30.0000000  0  9G04G10G12G09G17G05G02G25G30
 114634301.170 8  89325587.79545  21814169.867                    21814179.340
 109750471.507 8  85520008.05746  20884792.930                    20884801.941
 112455879.563 8  87628074.106 7  21399641.828                    21399650.230
 124815677.350 7  97259072.51643  23751648.523                    23751661.391
 122158566.132 7  95188525.814 6  23245986.430                    23245997.410
 114771870.653 7  89432717.778 7  21840340.039                    21840350.223
 108468540.600 8  84521097.15746  20640864.414                    20640870.984
 126396019.339 7  98490541.505 6  24052389.234                    24052402.156
 125962264.458 6  98152513.82443  23969833.086                    23969843.516
 11  8 24  0  8  0.0000000  0  9G04G10G12G09G17G05G02G25G30
 114711788.694 7  89385967.66745  21828915.242                    21828924.719
 109756177.958 8  85524454.66946  20885878.773                    20885887.930
 112397766.220 8  87582790.998 7  21388583.750                    21388591.531
 124894069.084 6  97320156.89743  23766566.148                    23766578.629
 122211367.085 7  95229669.365 6  23256033.867                    23256044.672
 114684629.163 7  89364737.498 7  21823738.805                    21823748.164
 108470406.685 8  84522551.26946  20641219.563                    20641226.027
 126297450.580 6  98413734.777 6  24033631.727                    24033644.520
 125862403.810 6  98074700.42543  23950830.039                    23950840.590
 11  8 24  0  8 30.0000000  0  9G04G10G12G09G17G05G02G25G30
 114789394.649 8  89446439.82045  21843683.031                    21843692.480
 109762515.386 8  85529392.94946  20887084.984                    20887094.367
 112340092.986 8  87537850.822 7  21377608.516                    21377617.035
 124972604.923 6  97381353.51343  23781510.883                    23781523.543
 122264328.665 7  95270938.097 6  23266112.414                    23266122.656
 114597715.492 7  89297012.660 7  21807199.430                    21807209.016
 108472549.622 8  84524221.11446  20641627.313                    20641633.574
 126199069.306 6  98337074.132 6  24014911.281                    24014923.148
 125762790.352 6  97997079.66843  23931874.273                    23931884.516
 11  8 24  0  9  0.0000000  0  9G04G10G12G09G17G05G02G25G30
 114867117.327 8  89507002.93445  21858472.898                    21858482.902
 109769483.456 8  85534822.62746  20888410.797                    20888419.770
 112282862.327 8  87493255.513 7  21366717.523                    21366726.180
 125051281.408 6  97442659.76343  23796482.836                    23796495.797
 122317451.436 7  95312332.437 6  23276221.281                    23276232.160
 114511132.029 7  89229545.132 7  21790722.758                    21790733.121
 108474967.875 8  84526105.48846  20642087.422                    20642093.426
 126100878.060 6  98260561.562 6  23996225.008                    23996237.961
 125663426.989 6  97919653.75943  23912966.172                    23912975.754
 11  8 24  0  9 30.0000000  0  9G04G10G12G09G17G05G02G25G30
 114944954.874 8  89567655.55845  21873285.313                    21873295.406
 109777082.487 8  85540743.96946  20889857.031                    20889865.816
 112226076.925 8  87449007.151 7  21355912.031                    21355920.500
 125130095.278 6  97504073.04243  23811480.586                    23811493.863
 122370736.378 7  95353853.126 6  23286361.492                    23286371.887
 114424881.725 7  89162337.217 7  21774309.773                    21774320.191
 108477661.175 8  84528204.18546  20642600.109                    20642606.688
 126002879.914 7  98184199.451 7  23977577.109                    23977590.445
 125564316.850 6  97842425.17343  23894105.734                    23894115.512
 11  8 24  0 10  0.0000000  0  9G04G10G12G09G17G05G02G25G30
 115022905.214 8  89628396.06645  21888119.195                    21888128.340
 109785311.933 8  85547156.53346  20891422.781                    20891431.609
 112169738.377 8  87405106.995 7  21345191.227                    21345199.586
 125209042.938 6  97565590.61443  23826504.266                    23826516.688
 122424183.682 7  95395500.342 6  23296531.664                    23296543.012
 114338967.519 7  89095391.185 7  21757961.063                    21757971.055
 108480627.712 8  84530515.78946  20643164.172                    20643170.852
 125905077.155 7  98107989.570 7  23958965.594                    23958978.859
 125465462.455 6  97765395.84143  23875294.516                    23875304.055
 11  8 24  0 10 30.0000000  0  9G04G10G12G09G17G05G02G25G30
 115100966.462 8  89689223.01645  21902973.750                    21902982.566
 109794171.801 8  85554060.34946  20893108.766                    20893117.766
 112113849.480 8  87361557.210 7  21334555.773                    21334564.234
 125288121.140 6  97627209.90743  23841552.617                    23841564.988
 122477794.153 7  95437274.677 6  23306733.680                    23306744.344
 114253392.414 8  89028709.374 7  21741676.336                    21741686.266
 108483866.684 8  84533039.68746  20643780.586                    20643787.117
 125807472.512 7  98031934.068 6  23940392.680                    23940405.570
 125366866.730 6  97688568.01143  23856531.922                    23856542.363
 11  8 24  0 11  0.0000000  0  9G04G10G12G09G17G05G02G25G30
 115179136.616 8  89750134.82045  21917848.352                    21917858.242
 109803661.965 8  85561455.30646  20894914.648                    20894923.918
 112058411.773 8  87318359.016 7  21324006.266                    21324014.613
 125367326.426 6  97688928.26043  23856624.773                    23856637.824
 122531567.761 7  95479176.156 6  23316967.023                    23316976.746
 114168158.646 8  88962293.558 7  21725457.125                    21725467.336
 108487376.282 8  84535774.45946  20644448.570                    20644454.730
 125710068.525 7  97956034.870 6  23921857.188                    23921869.512
 125268532.484 6  97611943.96943  23837820.938                    23837830.914
 11  8 24  0 11 30.0000000  0  9G04G10G12G09G17G05G02G25G30
 115257413.901 8  89811130.09945  21932744.328                    21932754.266
 109813782.120 8  85569341.17346  20896840.586                    20896849.215
 112003427.674 8  87275514.278 7  21313543.016                    21313551.582
 125446655.561 6  97750743.07942  23871719.898                    23871733.398
 122585505.185 7  95521205.301 6  23327230.633                    23327240.695
 114083269.050 8  88896145.919 7  21709302.758                    21709313.262
 108491155.458 8  84538719.29146  20645167.531                    20645174.281
 125612867.819 7  97880294.081 6  23903360.086                    23903371.742
 125170462.399 6  97535525.79043  23819157.383                    23819168.492
 11  8 24  0 12  0.0000000  0  9G04G10G12G09G17G05G02G25G30
 115335796.548 8  89872207.46245  21947659.945                    21947669.793
 109824532.470 8  85577718.10246  20898886.203                    20898895.246
 111948899.874 8  87233025.106 7  21303166.523                    21303175.129
 125526105.278 6  97812651.89343  23886839.250                    23886852.297
 122639607.230 7  95563362.708 6  23337525.961                    23337536.934
 113998726.741 8  88830268.891 7  21693214.844                    21693224.934
 108495203.261 8  84541873.44246  20645937.813                    20645944.375
 125515873.078 7  97804713.777 6  23884902.477                    23884914.574
 125072659.548 6  97459315.85443  23800546.445                    23800556.859
 11  8 24  0 12 30.0000000  0  9G04G10G12G09G17G05G02G25G30
 115414282.400 8  89933365.25045  21962595.375                    21962605.715
 109835912.333 8  85586585.56446  20901051.766                    20901060.473
 111894829.650 8  87190892.467 7  21292877.539                    21292885.492
 125605671.754 6  97874651.69943  23901980.219                    23901993.105
 122693874.452 7  95605648.792 6  23347852.469                    23347863.668
 113914534.045 8  88764664.275 7  21677193.609                    21677203.168
 108499518.069 8  84545235.63746  20646759.102                    20646764.871
 125419086.978 7  97729296.075 6  23866484.836                    23866496.715
 124975126.418 7  97383316.09643  23781986.641                    23781996.207
 11  8 24  0 13  0.0000000  0  9G04G10G12G09G17G05G02G25G30
 115492870.107 8  89994602.41045  21977550.492                    21977560.035
 109847921.973 8  85595943.74846  20903337.000                    20903345.484
 111841219.966 8  87149118.702 7  21282675.711                    21282684.063
 125685352.241 6  97936740.34343  23917142.398                    23917155.426
 122748307.319 7  95648063.908 6  23358211.031                    23358221.789
 113830694.048 8  88699334.495 7  21661239.148                    21661249.129
 108504099.580 8  84548805.66446  20647630.977                    20647637.074
 125322512.385 7  97654043.224 6  23848107.086                    23848119.609
 124877866.516 6  97307529.22443  23763478.742                    23763488.363
 11  8 24  0 13 30.0000000  0  9G04G10G12G09G17G05G02G25G30
 115571557.659 7  90055917.36345  21992523.844                    21992533.660
 109860560.743 8  85605792.16546  20905742.313                    20905751.090
 111788072.719 8  87107705.288 7  21272562.195                    21272570.711
 125765143.163 6  97998914.99043  23932326.063                    23932339.422
 122802906.277 7  95690608.492 6  23368601.078                    23368611.602
 113747209.571 7  88634281.749 7  21645352.586                    21645362.836
 108508945.979 8  84552582.10146  20648552.977                    20648558.879
 125226151.833 7  97578957.147 6  23829770.602                    23829782.520
 124780882.170 6  97231957.07343  23745022.383                    23745032.898
 11  8 24  0 14  0.0000000  0  9G04G10G12G09G17G05G02G25G30
 115650343.164 8  90117308.63845  22007516.234                    22007526.043
 109873828.437 8  85616130.65346  20908266.773                    20908275.848
 111735390.096 8  87066653.923 7  21262537.031                    21262545.523
 125845041.171 6  98061173.09243  23947531.563                    23947543.949
 122857672.172 6  95733283.144 6  23379022.430                    23379033.227
 113664083.020 7  88569507.916 7  21629534.125                    21629543.820
 108514056.081 8  84556564.02146  20649525.352                    20649531.980
 125130007.870 7  97504039.880 6  23811474.000                    23811486.941
 124684176.317 7  97156601.95544  23726620.469                    23726630.684
 11  8 24  0 14 30.0000000  0  9G04G10G12G09G17G05G02G25G30
 115729224.732 8  90178774.76845  22022527.305                    22022536.867
 109887724.328 8  85626958.65146  20910911.047                    20910920.246
 111683174.390 8  87025966.387 7  21252601.063                    21252609.160
 125925042.895 6  98123512.01543  23962754.438                    23962768.086
 122912605.331 7  95776088.113 6  23389475.711                    23389486.445
 113581317.751 8  88505015.584 7  21613784.422                    21613793.883
 108519428.961 8  84560750.67546  20650547.609                    20650554.000
 125034083.328 6  97429293.575 7  23793220.195                    23793233.680
 124587751.888 7  97081466.11044  23708270.977                    23708281.949
 11  8 24  0 15  0.0000000  0  9G04G10G12G09G17G05G02G25G30
 115808200.641 8  90240314.40145  22037555.914                    22037565.680
 109902248.237 8  85638276.01246  20913674.633                    20913683.629
 111631427.273 8  86985643.996 7  21242753.820                    21242762.047
 126005144.996 6  98185929.10443  23977997.438                    23978010.945
 122967706.206 7  95819023.785 6  23399961.297                    23399972.102
 113498915.915 7  88440806.449 7  21598103.469                    21598113.023
 108525063.006 7  84565140.86646  20651620.031                    20651626.605
 124938380.576 7  97354720.102 7  23775008.844                    23775021.789
 124491611.391 7  97006551.51143  23689977.305                    23689986.266
 11  8 24  0 15 30.0000000  0  9G04G10G12G09G17G05G02G25G30
 115887269.189 8  90301926.22445  22052602.406                    22052611.852
 109917399.677 8  85650082.34746  20916558.219                    20916566.980
 111580151.293 8  86945688.725 7  21232996.125                    21233004.543
 126085344.410 6  98248422.05142  23993259.031                    23993272.859
 123022975.196 7  95862090.452 6  23410478.586                    23410489.660
 113416880.333 8  88376882.702 7  21582492.789                    21582502.441
 108530957.389 7  84569733.90646  20652741.766                    20652747.656
 124842902.625 7  97280321.809 7  23756839.781                    23756852.617
 124395757.935 6  96931860.55743  23671736.289                    23671746.445
 11  8 24  0 16  0.0000000  0  9G04G10G12G09G17G05G02G25G30
 115966428.164 7  90363608.51545  22067665.359                    22067674.809
 109933178.088 8  85662377.23246  20919560.477                    20919569.277
 111529348.275 8  86906102.001 7  21223328.656                    21223337.320
 126165637.675 6  98310988.13542  24008538.117                    24008552.117
 123078412.883 7  95905288.545 6  23421028.008                    23421039.293
 113335213.651 7  88313246.424 7  21566951.805                    21566961.711
 108537110.610 8  84574528.64346  20653912.445                    20653918.723
 124747651.874 7  97206100.565 7  23738714.203                    23738726.828
 124300194.244 7  96857395.45244  23653551.086                    23653561.676
 11  8 24  0 16 30.0000000  0  9G04G10G12G09G17G05G02G25G30
 116045676.400 7  90425360.35345  22082745.844                    22082755.012
 109949583.215 8  85675160.46146  20922682.555                    20922691.547
 111479020.623 8  86866885.684 7  21213751.742                    21213759.598
 126246021.556 5  98373624.77042  24023834.578                    24023849.145
 123134020.037 7  95948618.699 6  23431610.078                    23431621.086
 113253918.823 8  88249899.884 7  21551482.422                    21551491.859
 108543521.923 7  84579524.48746  20655132.695                    20655138.785
 124652631.205 7  97132058.581 7  23720633.117                    23720645.293
 124204923.403 7  96783158.52643  23635421.016                    23635431.738
 11  8 24  0 17  0.0000000  0  9G04G10G12G09G17G05G02G25G30
 116125012.007 7  90487180.27145  22097842.906                    22097852.277
 109966614.483 8  85688431.58646  20925923.445                    20925932.324
 111429170.346 8  86828041.348 7  21204265.547                    21204273.332
 126326492.602 5  98436329.35142  24039148.938                    24039161.941
 123189796.914 7  95992081.143 6  23442223.234                    23442234.844
 113172998.316 8  88186845.047 7  21536083.461                    21536093.426
 108550189.769 8  84584720.21346  20656401.242                    20656407.859
 124557843.307 7  97058197.986 7  23702594.695                    23702607.789
 124109948.048 7  96709151.82043  23617347.594                    23617357.965
 11  8 24  0 17 30.0000000  0  9G04G10G12G09G17G05G02G25G30
 116204432.875 7  90549066.61345  22112956.422                    22112966.387
 109984271.356 8  85702190.20146  20929283.234                    20929292.043
 111379799.129 8  86789570.308 7  21194870.609                    21194878.539
 126407047.405 6  98499099.22842  24054477.828                    24054490.855
 123245744.211 7  96035676.391 6  23452870.031                    23452881.465
 113092454.967 7  88124084.097 7  21520756.516                    21520766.043
 108557113.120 8  84590115.05346  20657718.914                    20657725.293
 124463290.661 7  96984520.686 6  23684602.578                    23684614.543
 124015271.003 7  96635377.54243  23599331.813                    23599340.133
 11  8 24  0 18  0.0000000  0  9G04G10G12G09G17G05G02G25G30
 116283937.383 7  90611018.14245  22128085.617                    22128095.551
 110002553.383 8  85716435.94346  20932762.469                    20932771.391
 111330909.077 8  86751474.204 7  21185566.805                    21185574.992
 126487682.909 5  98561931.99742  24069821.352                    24069835.336
 123301862.240 7  96079404.644 6  23463549.133                    23463560.762
 113012291.186 7  88061618.905 7  21505501.820                    21505511.297
 108564290.588 8  84595707.89446  20659084.867                    20659091.035
 124368975.880 7  96911028.722 6  23666654.961                    23666666.180
 123920894.933 7  96561837.80543  23581371.953                    23581380.762
 11  8 24  0 18 30.0000000  0  9G04G10G12G09G17G05G02G25G30
 116363523.850 8  90673033.53545  22143230.453                    22143240.555
 110021459.596 8  85731168.06146  20936360.164                    20936368.746
 111282502.172 8  86713754.566 7  21176355.156                    21176363.586
 126568395.655 5  98624824.91443  24085181.711                    24085194.563
 123358151.281 7  96123266.151 6  23474260.992                    23474271.766
 112932509.434 7  87999451.399 7  21490319.695                    21490329.449
 108571720.807 8  84601497.69446  20660498.516                    20660504.750
 124274901.630 7  96837724.183 6  23648752.883                    23648764.504
 123826822.698 7  96488534.84744  23563471.016                    23563480.367
 11  8 24  0 19  0.0000000  0  9G04G10G12G09G17G05G02G25G30
 116443190.428 7  90735111.34945  22158390.250                    22158400.523
 110040989.482 8  85746386.15346  20940076.352                    20940085.242
 111234580.540 8  86676413.056 7  21167236.266                    21167244.148
 126649182.310 5  98687775.49442  24100553.078                    24100569.113
 123414612.081 7  96167261.529 6  23485004.727                    23485016.074
 112853112.407 8  87937583.676 7  21475211.016                    21475220.082
 108579402.604 8  84607483.52946  20661960.188                    20661966.461
 124181070.758 7  96764609.309 6  23630897.500                    23630910.125
 123733057.260 7  96415470.90443  23545627.906                    23545637.313
 11  8 24  0 19 30.0000000  0  9G04G10G12G09G17G05G02G25G30
 116522935.693 7  90797250.47445  22173565.398                    22173575.508
 110061142.583 8  85762089.87046  20943911.289                    20943920.402
 111187146.455 8  86639451.453 7  21158209.586                    21158217.906
 126730040.087 5  98750781.40342  24115941.664                    24115955.805
 123471245.176 7  96211391.130 6  23495781.906                    23495792.828
 112774103.257 7  87876018.197 7  21460175.797                    21460185.043
 108587335.132 8  84613664.75046  20663469.766                    20663475.902
 124087486.006 7  96691686.193 7  23613088.367                    23613101.125
 123639601.478 6  96342648.30444  23527843.469                    23527853.984
 11  8 24  0 20  0.0000000  0  9G04G10G12G09G17G05G02G25G30
 116602757.935 7  90859449.58745  22188755.383                    22188765.270
 110081918.306 8  85778278.74046  20947865.055                    20947874.160
 111140201.606 8  86602871.077 7  21149276.289                    21149284.965
 126810965.143 5  98813839.79342  24131340.633                    24131354.980
 123528051.009 7  96255655.329 6  23506591.734                    23506602.711
 112695484.402 8  87814756.851 7  21445215.367                    21445225.027
 108595517.105 8  84620040.32346  20665026.891                    20665033.113
 123994149.925 7  96618956.903 6  23595327.063                    23595339.711
 123546458.218 6  96270069.22043  23510118.773                    23510128.906
 11  8 24  0 20 30.0000000  0  9G04G10G12G09G17G05G02G25G30
 116682655.317 7  90921707.25345  22203959.008                    22203968.898
 110103315.992 8  85794952.26946  20951936.617                    20951945.734
 111093748.044 8  86566673.519 7  21140436.578                    21140444.730
 126891954.512 6  98876948.21342  24146753.500                    24146766.555
 123585029.883 7  96300054.407 6  23517434.547                    23517445.457
 112617258.628 8  87753801.774 7  21430328.992                    21430338.438
 108603947.277 8  84626609.31346  20666630.766                    20666637.410
 123901065.284 7  96546423.534 6  23577613.961                    23577626.035
 123453630.157 6  96197735.74344  23492454.094                    23492464.371
 11  8 24  0 21  0.0000000  0  9G04G10G12G09G17G05G02G25G30
 116762626.323 7  90984022.27845  22219177.594                    22219187.223
 110125334.695 8  85812109.69046  20956127.109                    20956135.375
 111047787.268 8  86530859.943 7  21131690.414                    21131698.531
 126973004.738 5  98940104.15642  24162175.891                    24162189.969
 123642182.336 7  96344588.716 6  23528310.828                    23528321.586
 112539427.899 7  87693154.559 7  21415518.352                    21415528.480
 108612624.311 8  84633370.66046  20668282.273                    20668288.648
 123808234.693 7  96474088.108 6  23559948.594                    23559960.809
 123361120.068 6  96125650.10044  23474849.367                    23474860.379
 11  8 24  0 21 30.0000000  0  9G04G10G12G09G17G05G02G25G30
 116842669.058 7  91046393.21245  22234408.945                    22234418.891
 110147973.726 8  85829750.49746  20960434.828                    20960443.480
 111002322.068 8  86495432.536 7  21123038.563                    21123047.133
 127054112.909 5  99003305.14942  24177610.867                    24177624.539
 123699508.882 6  96389258.673 6  23539219.391                    23539230.656
 112461995.241 8  87632817.512 7  21400782.977                    21400792.891
 108621547.350 8  84640323.69746  20669980.078                    20669986.551
 123715661.002 7  96401952.902 6  23542332.609                    23542344.098
 123268931.010 6  96053814.57844  23457307.328                    23457317.453
 11  8 24  0 22  0.0000000  0  9G04G10G12G09G17G05G02G25G30
 116922781.766 7  91108818.65645  22249653.914                    22249663.711
 110171231.887 8  85847873.73446  20964860.813                    20964869.652
 110957353.669 8  86460392.244 7  21114481.391                    21114489.543
 127135275.124 5  99066548.21542  24193054.984                    24193069.004
 123757010.116 6  96434064.787 6  23550161.047                    23550172.375
 112384962.958 8  87572792.426 7  21386124.688                    21386134.211
 108630714.652 8  84647467.07146  20671724.570                    20671730.887
 123623346.634 7  96330019.747 6  23524765.445                    23524776.656
 123177065.542 6  95982231.19744  23439824.992                    23439835.422
 11  8 24  0 22 30.0000000  0  9G04G10G12G09G17G05G02G25G30
 117002963.038 7  91171297.52745  22264911.641                    22264921.754
 110195108.690 8  85866479.04346  20969404.320                    20969412.852
 110912884.145 8  86425740.684 7  21106019.289                    21106027.266
 127216488.644 5  99129831.34842  24208510.727                    24208523.492
 123814686.236 6  96479007.173 6  23561137.055                    23561147.594
 112308333.682 8  87513081.393 7  21371542.625                    21371552.117
 108640124.893 8  84654799.75546  20673515.328                    20673521.789
 123531294.208 7  96258290.668 6  23507248.445                    23507260.223
 123085526.406 7  95910902.09644  23422405.523                    23422415.191
 11  8 24  0 23  0.0000000  0  9G04G10G12G09G17G05G02G25G30
 117083211.167 7  91233828.49245  22280182.492                    22280192.246
 110219603.496 8  85885565.91146  20974065.547                    20974074.875
 110868915.403 8  86391479.348 7  21097652.328                    21097660.332
 127297750.340 6  99193152.01242  24223974.219                    24223986.609
 123872537.517 6  96524086.090 6  23572145.805                    23572156.641
 112232110.121 8  87453686.512 7  21357037.258                    21357047.215
 108649777.219 8  84662321.06346  20675352.219                    20675358.703
 123439506.579 7  96186767.967 6  23489781.625                    23489793.152
 122994316.516 7  95839829.56544  23405049.195                    23405059.141
 11  8 24  0 23 30.0000000  0  9G04G10G12G09G17G05G02G25G30
 117163524.522 7  91296410.29745  22295465.570                    22295475.559
 110244715.297 8  85905133.55746  20978843.852                    20978852.891
 110825449.665 8  86357609.964 7  21089381.070                    21089389.410
 127379056.783 6  99256507.57442  24239445.898                    24239459.664
 123930564.673 6  96569302.050 5  23583187.695                    23583198.953
 112156295.106 8  87394609.957 7  21342610.195                    21342619.410
 108659670.593 8  84670030.20146  20677234.695                    20677240.992
 123347986.573 7  96115453.785 6  23472365.594                    23472377.758
 122903438.845 7  95769015.90144  23387755.500                    23387765.520
 11  8 24  0 24  0.0000000  0  9G04G10G12G09G17G05G02G25G30
 117243901.535 7  91359041.71945  22310761.250                    22310771.227
 110270443.074 8  85925181.18546  20983740.094                    20983748.547
 110782488.426 8  86324133.697 7  21081205.688                    21081213.656
 127460404.698 6  99319895.46143  24254925.586                    24254939.883
 123988768.074 6  96614655.303 6  23594263.281                    23594274.586
 112080890.652 8  87335853.316 7  21328261.500                    21328270.832
 108669803.686 8  84677926.14146  20679162.797                    20679169.398
 123256736.691 7  96044350.072 6  23455000.578                    23455013.512
 122812896.137 7  95698463.25944  23370526.164                    23370536.227
 11  8 24  0 24 30.0000000  0  9G04G10G12G09G17G05G02G25G30
 117324340.503 7  91421721.40945  22326067.711                    22326077.824
 110296785.719 8  85945707.93946  20988752.727                    20988761.633
 110740033.197 8  86291051.710 7  21073126.992                    21073134.781
 127541790.819 6  99383313.11043  24270413.727                    24270427.469
 124047148.008 6  96660146.103 6  23605373.125                    23605384.039
 112005899.406 8  87277418.648 7  21313991.023                    21314000.078
 108680174.845 8  84686007.58146  20681136.508                    20681143.410
 123165759.478 7  95973458.868 6  23437688.406                    23437700.906
 122722690.826 7  95628173.51844  23353360.352                    23353370.000
 11  8 24  0 25  0.0000000  0  9G04G10G12G09G17G05G02G25G30
 117404839.707 7  91484448.03945  22341386.281                    22341396.133
 110323742.675 8  85966713.38746  20993882.211                    20993891.012
 110698086.130 8  86258365.700 7  21065144.258                    21065152.879
 127623212.081 6  99446758.14243  24285907.305                    24285921.324
 124105705.180 6  96705775.018 6  23616516.242                    23616527.063
 111931323.710 7  87219307.797 7  21299799.492                    21299808.512
 108690783.135 8  84694273.79646  20683155.094                    20683161.543
 123075057.669 7  95902782.234 6  23420428.992                    23420441.199
 122632825.981 7  95558149.07944  23336260.023                    23336269.566
 11  8 24  0 25 30.0000000  0  9G04G10G12G09G17G05G02G25G30
 117485397.717 7  91547220.49745  22356716.367                    22356726.051
 110351312.777 7  85988196.60846  20999129.016                    20999137.902
 110656649.036 8  86226077.087 7  21057259.266                    21057267.176
 127704665.098 6  99510227.93943  24301407.398                    24301421.273
 124164439.749 6  96751542.166 5  23627693.281                    23627704.133
 111857166.410 8  87161522.976 7  21285687.945                    21285696.781
 108701627.186 8  84702723.71846  20685218.820                    20685225.234
 122984633.967 7  95832322.278 7  23403221.984                    23403233.277
 122543304.262 6  95488392.03244  23319223.852                    23319233.891
 11  8 24  0 26  0.0000000  0  9G04G10G12G09G17G05G02G25G30
 117566013.065 7  91610037.63945  22372056.820                    22372066.520
 110379494.939 7  86010156.77346  21004491.430                    21004500.738
 110615723.961 8  86194187.441 7  21049471.172                    21049479.668
 127786146.973 6  99573720.20243  24316912.563                    24316927.164
 124223352.444 6  96797448.123 5  23638903.406                    23638915.258
 111783429.818 8  87104065.961 7  21271656.141                    21271665.258
 108712706.425 8  84711356.89146  20687326.984                    20687333.293
 122894491.294 7  95762081.317 7  23386068.156                    23386079.641
 122454128.664 6  95418904.71243  23302254.133                    23302263.941
 11  8 24  0 26 30.0000000  0  9G04G10G12G09G17G05G02G25G30
 117646684.164 7  91672898.21945  22387408.023                    22387417.570
 110408288.634 8  86032593.44046  21009970.484                    21009979.996
 110575312.298 8  86162697.839 7  21041781.008                    21041789.965
 127867654.248 6  99637232.25143  24332423.594                    24332437.285
 124282443.575 5  96843493.137 5  23650148.070                    23650160.156
 111710116.307 8  87046938.627 7  21257705.266                    21257714.285
 108724019.342 8  84720172.16446  20689479.922                    20689486.547
 122804632.200 7  95692061.309 7  23368968.367                    23368980.242
 122365301.989 6  95349689.21044  23285350.867                    23285360.402
 11  8 24  0 27  0.0000000  0  9G04G10G12G09G17G05G02G25G30
 117727409.100 7  91735800.75745  22402769.586                    22402779.520
 110437692.033 8  86055505.19946  21015566.148                    21015574.820
 110535415.560 8  86131609.495 7  21034188.797                    21034197.000
 127949183.781 6  99700761.63043  24347938.844                    24347952.285
 124341713.11915  96889677.13315  23661426.852                    23661439.133
 111637228.083 8  86990142.688 7  21243834.875                    21243843.957
 108735564.078 8  84729168.07546  20691676.688                    20691682.984
 122715059.001 7  95622264.045 7  23351923.688                    23351935.379
 122276826.508 6  95280747.37844  23268514.477                    23268525.316
 11  8 24  0 27 30.0000000  0  9G04G10G12G09G17G05G02G25G30
 117808186.637 7  91798744.28745  22418140.727                    22418150.934
 110467704.365 8  86078891.45846  21021277.609                    21021285.770
 110496036.413 8  86100924.470 7  21026695.516                    21026703.617
 128030732.820 6  99764306.22543  24363456.648                    24363471.082
 124401162.21115  96936001.03015  23672738.461                    23672751.375
 111564767.862 8  86933680.262 7  21230046.094                    21230055.031
 108747340.242 8  84738344.30746  20693917.531                    20693923.957
 122625774.822 7  95552691.969 7  23334933.297                    23334945.277
 122188705.501 6  95212081.74844  23251745.750                    23251756.539
 11  8 24  0 28  0.0000000  0  8G04G10G12G09G05G02G25G30
 117889014.650 7  91861727.13945  22433521.992                    22433532.203
 110498323.846 8  86102750.80846  21027104.063                    21027112.809
 110457175.089 8  86070642.946 7  21019300.281                    21019308.504
 128112296.935 6  99827862.49342  24378977.961                    24378991.668
 111492737.528 8  86877552.808 7  21216339.070                    21216347.988
 108759345.548 8  84747699.09446  20696202.203                    20696208.402
 122536781.490 7  95483346.499 7  23317998.508                    23318010.074
 122100940.778 7  95143693.71444  23235045.266                    23235054.516
 11  8 24  0 28 30.0000000  0  9G04G10G12G09G17G05G02G25G30
 117969892.740 7  91924749.01145  22448912.320                    22448922.340
 110529550.587 8  86127083.36246  21033046.508                    21033055.203
 110418834.736 8  86040767.372 7  21012004.320                    21012012.898
 128193874.337 6  99891429.20342  24394501.797                    24394515.309
 124520607.93715  97029027.60915  23695467.180
 111421140.657 8  86821763.107 7  21202714.516                    21202723.344
 108771580.134 8  84757232.53646  20698530.141                    20698536.977
 122448082.934 7  95414230.720 7  23301118.711                    23301131.855
 122013536.464 7  95075586.52344  23218412.445                    23218421.285
 11  8 24  0 29  0.0000000  0  9G04G10G12G09G17G05G02G25G30
 118050818.946 7  91987808.37444  22464312.211                    22464322.363
 110561383.115 8  86151887.94546  21039103.617                    21039112.648
 110381016.639 8  86011298.753 7  21004807.828                    21004815.754
 128275461.484 5  99955003.42142  24410026.945                    24410040.832
 124580596.15215  97075771.58915  23706882.602
 111349979.728 8  86766313.115 7  21189172.938                    21189182.172
 108784042.397 8  84766943.39646  20700902.125                    20700908.109
 122359681.426 7  95345346.446 7  23284296.820                    23284309.770
 121926494.827 7  95007761.89844  23201848.477                    23201858.121
 11  8 24  0 29 30.0000000  0  9G04G10G12G09G17G05G02G25G30
 118131791.643 7  92050903.97644  22479720.992                    22479730.680
 110593819.608 8  86177163.17246  21045276.578                    21045285.543
 110343722.200 8  85982238.187 7  20997711.008                    20997718.660
 128357055.283 6 100018582.90542  24425553.844                    24425568.070
 124640765.02115  97122656.34715  23718332.414
 111279255.911 8  86711203.731 7  21175714.398                    21175723.605
 108796730.816 8  84776830.47546  20703316.344                    20703322.793
 122271579.481 7  95276695.520 7  23267531.906                    23267543.902
 121839818.418 7  94940221.89444  23185355.148                    23185364.445
 11  8 24  0 30  0.0000000  0  9G04G10G12G09G17G05G02G25G30
 118212809.189 7  92114034.50644  22495138.102                    22495147.723
 110626859.235 8  86202908.35146  21051563.469                    21051572.246
 110306952.947 8  85953586.859 7  20990713.961                    20990722.195
 128438652.408 6 100082164.91442  24441082.352                    24441095.742
 124701114.87715  97169682.14615  23729817.648                    23729829.055
 111208972.120 8  86656437.216 7  21162340.133                    21162348.574
 108809644.243 8  84786892.88946  20705773.773                    20705780.238
 122183779.679 7  95208280.066 6  23250823.844                    23250835.914
 121753509.969 7  94872968.55743  23168930.664                    23168939.465
 11  8 24  0 30 30.0000000  0  9G04G10G12G09G17G05G02G25G30
 118293870.103 7  92177198.86944  22510563.391                    22510574.070
 110660500.736 8  86229122.53346  21057965.375                    21057974.004
 110270710.564 8  85925346.063 7  20983817.148                    20983825.156
 128520249.872 5 100145747.19442  24456609.516                    24456623.797
 124761645.83415  97216849.03615  23741336.477                    23741348.340
 111139130.270 8  86602015.065 7  21149049.453                    21149058.500
 108822781.340 8  84797129.57746  20708273.711                    20708279.977
 122096284.620 7  95140102.098 6  23234174.453                    23234185.980
 121667572.087 7  94806003.95344  23152577.227                    23152585.547
 11  8 24  0 31  0.0000000  0  9G04G10G12G09G17G05G02G25G30
 118374972.927 7  92240395.85844  22525996.688                    22526006.852
 110694742.865 8  86255804.72046  21064481.484                    21064489.965
 110234996.472 8  85897516.931 7  20977021.188                    20977028.965
 128601844.435 5                  24472135.469
 124822358.351 5  97264157.419 5  23752889.125                    23752901.617
 111069733.012 8  86547939.356 7  21135843.500                    21135852.789
 108836140.978 8  84807539.68946  20710815.945                    20710822.371
 122009097.040 7  95072163.738 7  23217583.680                    23217595.164
 121582007.549 7  94739330.29944  23136295.414                    23136304.285
 11  8 24  0 31 30.0000000  0  9G04G10G12G09G17G05G02G25G30
 118456116.463 7  92303624.56044  22541438.508                    22541448.117
 110729584.408 8  86282953.98046  21071111.664                    21071120.172
 110199812.825 8  85870101.123 7  20970325.852                    20970333.707
 128683433.149 5                  24487661.727
 124883253.208 5  97311607.916 5  23764477.344                    23764489.277
 111000782.842 8  86494212.018 7  21122722.352                    21122732.270
 108849722.301 8  84818122.52546  20713400.570                    20713406.809
 121922219.929 7  95004467.320 7  23201051.422                    23201062.609
 121496819.398 7  94672949.93944  23120083.570                    23120093.566
 11  8 24  0 32  0.0000000  0  9G04G10G12G09G17G05G02G25G30
 118537298.880 7  92366883.57544  22556886.203                    22556896.297
 110765023.607 8  86310568.95646  21077855.250                    21077864.254
 110165160.986 8  85843099.712 7  20963731.703                    20963739.723
 128765012.64115                  24503184.969
 124944330.665 5  97359200.668 5  23776098.953                    23776111.797
 110932281.837 8  86440834.688 7  21109687.047                    21109696.164
 108863523.670 8  84828876.83046  20716026.727                    20716032.941
 121835655.580 7  94937014.641 7  23184579.000                    23184590.406
 121412010.096 7  94606864.76344  23103944.547                    23103955.313
 11  8 24  0 32 30.0000000  0  8G04G10G12G17G05G02G25G30
 118618519.607 7  92430172.42844  22572341.602                    22572351.883
 110801059.896 8  86338649.20546  21084712.750                    21084721.641
 110131042.804 8  85816514.133 7  20957239.453                    20957247.211
 125005591.033 5  97406935.965 5  23787756.305                    23787770.434
 110864232.968 8  86387809.651 7  21096737.695                    21096746.676
 108877544.513 8  84839802.15646  20718695.023                    20718701.148
 121749407.371 7  94869808.331 7  23168166.055                    23168177.918
 121327583.029 7  94541077.44844  23087879.320                    23087889.605
 11  8 24  0 33  0.0000000  0  8G04G10G12G17G05G02G25G30
 118699776.245 7  92493489.25644  22587804.664                    22587815.074
 110837691.162 8  86367193.06446  21091683.219                    21091691.996
 110097458.885 8  85790344.855 7  20950848.469                    20950856.496
 125067033.992 5  97454813.520 5  23799449.367                    23799462.094
 110796637.641 8  86335138.041 7  21083874.844                    21083884.383
 108891782.932 8  84850897.02746  20721404.281                    20721410.406
 121663476.940 7  94802849.656 7  23151813.836                    23151825.809
 121243539.957 7  94475589.35644  23071886.648                    23071896.590
 11  8 24  0 33 30.0000000  0  8G04G10G12G17G05G02G25G30
 118781066.998 7  92556832.64644  22603274.344                    22603284.074
 110874915.577 8  86396199.12146  21098766.867                    21098775.406
 110064410.478 8  85764592.861 7  20944559.797                    20944567.727
 125128659.687 6  97502833.484 5  23811176.977                    23811189.211
 110729498.179 8  86282821.638 7  21071098.539                    21071107.297
 108906237.224 8  84862160.11146  20724154.789                    20724160.934
 121577866.670 7  94736140.460 7  23135522.070                    23135534.516
 121159883.207 7  94410402.32544  23055967.219                    23055977.449
 11  8 24  0 34  0.0000000  0  8G04G10G12G17G05G02G25G30
 118862391.255 7  92620202.15944  22618750.227                    22618759.992
 110912732.532 8  86425666.89145  21105963.555                    21105971.750
 110031900.560 8  85739260.458 7  20938373.250                    20938381.273
 125190469.232 6  97550996.703 6  23822939.289                    23822950.547
 110662816.859 8  86230862.239 7  21058409.656                    21058418.594
 108920907.031 8  84873591.11146  20726946.664                    20726952.820
 121492580.009 7  94669683.432 7  23119292.375                    23119305.242
 121076616.318 7  94345519.07144  23040121.758                    23040131.324
 11  8 24  0 34 30.0000000  0  8G04G10G12G17G05G02G25G30
 118943747.730 7  92683596.77145  22634231.297                    22634241.289
 110951140.765 8  86455595.39846  21113272.625                    21113280.637
 109999929.846 8  85714348.221 7  20932289.133                    20932297.723
 125252463.012 6  97599303.498 5  23834736.547                    23834747.070
 110596596.236 8  86179261.815 8  21045808.336                    21045817.535
 108935791.322 8  84885189.24846  20729778.727                    20729784.844
 121407619.740 7  94603480.727 7  23103125.125                    23103136.715
 120993742.126 7  94280941.83244  23024351.883                    23024361.156
 11  8 24  0 35  0.0000000  0  8G04G10G12G17G05G02G25G30
 119025134.556 7  92747015.03745  22649719.383                    22649729.023
 110990138.127 8  86485982.96545  21120693.070                    21120701.891
 109968498.916 8  85689856.601 7  20926308.281                    20926316.254
 125314640.588 6  97647753.520 5  23846568.305                    23846579.008
 110530837.899 8  86128021.608 7  21033294.664                    21033303.750
 108950888.340 8  84896953.15446  20732651.445                    20732658.066
 121322987.910 7  94537533.906 7  23087020.539                    23087031.902
 120911262.664 7  94216672.19444  23008656.781                    23008665.891
 11  8 24  0 35 30.0000000  0  8G04G10G12G17G05G02G25G30
 119106551.324 7  92810456.63145  22665211.805                    22665222.297
 111029724.129 8  86516829.21245  21128226.141                    21128234.590
 109937611.091 8  85665788.167 7  20920430.805                    20920438.352
 125377003.217 6  97696347.731 5  23858434.508                    23858446.059
 110465545.285 8  86077144.312 7  21020869.648                    21020879.000
 108966197.792 8  84908882.59246  20735564.648                    20735571.445
 121238688.069 7  94471845.769 6  23070978.852                    23070989.926
 120829181.575 6  94152712.95844  22993036.773                    22993045.316
 11  8 24  0 36  0.0000000  0  8G04G10G12G17G05G02G25G30
 119187994.677 7  92873918.91544  22680709.492                    22680720.457
 111069895.165 8  86548131.32446  21135870.242                    21135879.117
 109907265.318 8  85642142.118 7  20914655.695                    20914663.992
 125439549.534 6  97745085.036 6  23870337.609                    23870349.191
 110400718.815 8  86026630.249 8  21008534.094                    21008543.328
 108981716.834 8  84920975.34246  20738518.289                    20738524.547
 121154721.104 8  94406417.040 6  23055000.414                    23055011.113
 120747499.703 7  94089064.82344  22977492.250                    22977502.184
 11  8 24  0 36 30.0000000  0  9G04G10G12G09G17G05G02G25G30
 119269464.200 7  92937401.60244  22696213.328                    22696223.238
 111110650.681 8  86579888.88245  21143626.008                    21143634.531
 109877464.386 8  85618920.622 7  20908984.867                    20908992.688
 129498293.26915                  24642729.953
 125502280.753 6  97793966.471 6  23882275.609                    23882286.492
 110336361.274 8  85976481.583 7  20996287.180                    20996296.086
 108997444.884 8  84933230.95846  20741510.953                    20741517.391
 121071090.375 7  94341250.276 7  23039085.914                    23039097.512
 120666220.440 6  94025730.36544  22962026.094                    22962035.754
 11  8 24  0 37  0.0000000  0  9G04G10G12G09G17G05G02G25G30
 119350958.855 7  93000903.88944  22711721.367                    22711730.883
 111151989.575 8  86612101.02246  21151492.227                    21151501.383
 109848209.196 8  85596124.384 7  20903417.859                    20903425.887
 129579611.63315                  24658204.398
 125565197.294 5  97842992.239 6  23894247.609                    23894259.582
 110272474.999 8  85926700.128 7  20984129.695                    20984138.961
 109013380.993 8  84945648.70846  20744543.758                    20744550.070
 120987798.784 7  94276347.792 7  23023236.016                    23023248.094
 120585346.801 7  93962711.97844  22946636.516                    22946646.762
 11  8 24  0 37 30.0000000  0  9G04G10G12G09G17G05G02G25G30
 119432477.312 7  93064424.71444  22727233.422                    22727243.930
 111193910.123 8  86644766.39746  21159469.328                    21159478.121
 109819501.430 8  85573754.708 7  20897954.906                    20897962.715
 129660887.22115                  24673669.109
 125628299.233 6  97892162.475 6  23906256.031                    23906267.398
 110209062.015 8  85877287.480 8  20972062.438                    20972071.863
 109029524.139 8  84958227.78846  20747615.547                    20747621.973
 120904848.824 7  94211711.538 7  23007450.594                    23007462.250
 120504881.214 7  93900011.56544  22931324.313                    22931334.070
 11  8 24  0 38  0.0000000  0  9G04G10G12G09G17G05G02G25G30
 119514018.233 7  93127963.04444  22742750.250                    22742760.641
 111236410.809 8  86677883.82346  21167557.070                    21167565.984
 109791342.438 8  85551812.633 7  20892596.266                    20892604.801
 129742117.347 5                  24689126.867
 125691586.978 6  97941477.520 6  23918299.258                    23918310.969
 110146124.670 8  85828245.455 7  20960086.469                    20960094.902
 109045873.204 8  84970967.34046  20750726.523                    20750733.164
 120822243.298 7  94147343.658 7  22991731.430                    22991743.371
 120424826.501 7  93837631.34244  22916090.102                    22916100.293
 11  8 24  0 38 30.0000000  0  9G04G10G12G09G17G05G02G25G30
 119595580.143 7  93191517.71044  22758271.164                    22758281.055
 111279489.972 8  86711452.01245  21175754.602                    21175763.879
 109763733.753 8  85530299.385 7  20887343.164                    20887350.793
 129823298.546 6                  24704575.977
 125755060.670 6  97990937.475 6  23930377.484                    23930389.039
 110083664.996 8  85779575.643 7  20948200.102                    20948209.020
 109062426.899 8  84983866.32446  20753876.469                    20753883.121
 120739984.852 7  94083246.206 7  22976078.469                    22976090.184
 120345185.277 7  93775573.32844  22900935.039                    22900944.660
 11  8 24  0 39  0.0000000  0  9G04G10G12G09G17G05G02G25G30
 119677162.032 7  93255087.96844  22773796.203                    22773805.625
 111323145.627 7  86745469.41945  21184062.516                    21184070.918
 109736676.369 8  85509215.725 7  20882193.688                    20882201.887
 129904428.077 6                  24720013.711
 125818720.634 6  98040542.557 6  23942492.305                    23942503.387
 110021685.092 8  85731279.687 8  20936405.805                    20936414.438
 109079184.149 8  84996923.93946  20757065.484                    20757071.875
 120658075.895 7  94019421.094 7  22960491.445                    22960502.855
 120265960.036 7  93713839.45644  22885858.414                    22885868.824
 11  8 24  0 39 30.0000000  0  9G04G10G12G09G17G05G02G25G30
 119758762.245 7  93318672.51044  22789324.055                    22789334.145
 111367376.370 8  86779934.93745  21192479.031                    21192487.605
 109710171.448 8  85488562.540 7  20877149.953                    20877158.313
 129985502.847 6                  24735442.242
 125882567.304 6  98090293.129 6  23954641.578                    23954653.016
 109960186.945 8  85683359.110 7  20924703.297                    20924712.082
 109096143.549 8  85010139.07046  20760292.547                    20760298.789
 120576519.057 7  93955870.370 7  22944971.469                    22944982.914
 120187153.325 6  93652431.69444  22870861.984                    22870871.629
 11  8 24  0 40  0.0000000  0  9G04G10G12G09G17G05G02G25G30
 119840379.691 7  93382270.48244  22804855.906                    22804865.145
 111412180.454 8  86814847.20946  21201005.008                    21201013.668
 109684220.227 8  85468340.836 7  20872211.664                    20872219.293
 130066520.050 6                  24750859.422
 125946600.603 6  98140189.140 6  23966827.063                    23966838.566
 109899172.634 8  85635815.551 7  20913092.188                    20913101.176
 109113303.775 8  85023510.69646  20763558.305                    20763564.793
 120495316.905 7  93892596.017 7  22929519.398                    22929530.977
 120108767.745 7  93591352.11944  22855945.617                    22855955.523
 11  8 24  0 40 30.0000000  0  9G04G10G12G09G17G05G02G25G30
 119922013.134 7  93445880.92744  22820389.875                    22820399.742
 111457556.158 8  86850204.89745  21209639.844                    21209648.039
 109658823.745 8  85448551.383 7  20867379.008                    20867387.105
 130147476.490 5                  24766264.992
 126010820.681 6  98190230.695 6  23979047.734                    23979059.199
 109838644.323 8  85588650.689 7  20901574.570                    20901583.063
 109130663.712 8  85037037.94146  20766861.367                    20766868.262
 120414472.014 7  93829600.003 6  22914135.141                    22914146.707
 120030805.779 7  93530602.59044  22841109.891                    22841119.758
 11  8 24  0 41  0.0000000  0  9G04G10G12G09G17G05G02G25G30
 120003661.219 7  93509502.78644  22835927.141                    22835936.352
 111503501.693 7  86886006.61246  21218383.023                    21218391.547
 109633983.885 8  85429195.662 7  20862652.438                    20862660.098
 130228369.464 5                  24781658.352
 126075228.008 6  98240418.134 6  23991303.563                    23991315.824
 109778603.717 8  85541865.862 7  20890148.656                    20890157.609
 109148222.538 8  85050720.16946  20770203.078                    20770209.633
 120333987.053 7  93766884.473 7  22898819.891                    22898831.219
 119953270.159 7  93470185.25444  22826355.484                    22826364.660
 11  8 24  0 41 30.0000000  0  9G04G10G12G09G17G05G02G25G30
 120085322.729 7  93573135.10944  22851466.109                    22851476.813
 111550015.149 8  86922250.86546  21227234.227                    21227242.738
 109609700.844 8  85410273.843 7  20858031.156                    20858039.098
 130309195.734 5                  24797039.555
 126139822.751 6  98290751.661 6  24003596.469                    24003608.082
 109719052.339 8  85495462.254 7  20878816.531                    20878825.305
 109165979.015 8  85064556.38846  20773581.836                    20773588.547
 120253864.502 7  93704451.320 7  22883572.867                    22883584.367
 119876163.334 7  93410102.07044  22811682.594                    22811691.836
 11  8 24  0 42  0.0000000  0  9G04G10G12G09G17G05G02G25G30
 120166996.479 7  93636776.96844  22867008.211                    22867018.336
 111597094.924 8  86958936.40545  21236193.063                    21236201.852
 109585976.405 8  85391787.286 7  20853516.797                    20853524.449
 130389952.515 5                  24812406.570
 126204604.811 5  98341231.103 6  24015923.625                    24015934.969
 109659992.902 8  85449441.964 7  20867578.156                    20867586.523
 109183931.868 8  85078545.64846  20776998.234                    20777004.184
 120174107.005 7  93642302.666 7  22868395.445                    22868406.461
 119799487.895 7  93350355.02944  22797092.242                    22797100.852
 11  8 24  0 42 30.0000000  0  9G04G10G12G09G17G05G02G25G30
 120248681.279 7  93700427.42444  22882552.891                    22882562.148
 111644739.278 8  86996061.88145  21245259.203                    21245268.184
 109562811.510 8  85373736.729 7  20849108.258                    20849116.598
 130470637.017 5                  24827761.141
 126269574.606 5  98391856.885 6  24028286.445                    24028299.223
 109601427.318 8  85403806.496 7  20856433.344                    20856441.902
 109202079.872 8  85092686.97646  20780451.719                    20780457.918
 120094717.092 7  93580440.429 7  22853287.828                    22853299.066
 119723246.346 7  93290946.08544  22782583.797                    22782592.570
 11  8 24  0 43  0.0000000  0  9G04G10G12G09G17G05G02G25G30
 120330375.722 7  93764085.40444  22898098.922                    22898109.129
 111692946.204 8  87033625.71346  21254432.781                    21254441.332
 109540207.233 8  85356123.019 7  20844806.906                    20844814.621
 130551246.228 5                  24843099.930
 126334732.356 5  98442629.094 6  24040685.445                    24040697.832
 109543357.325 8  85358557.203 7  20845382.359                    20845391.629
 109220422.045 8  85106979.59746  20783942.219                    20783948.527
 120015697.384 7  93518866.674 6  22838250.336                    22838262.012
 119647441.259 7  93231877.23044  22768158.586                    22768167.484
 11  8 24  0 43 30.0000000  0  9G04G10G12G09G17G05G02G25G30
 120412078.488 7  93827749.89844  22913645.977                    22913656.285
 111741713.812 8  87071626.44545  21263713.008                    21263722.113
 109518164.333 8  85338946.750 7  20840612.023                    20840619.859
 130631776.916 5                  24858425.672
 126400078.130 4  98493547.862 5  24053119.375                    24053132.594
 109485784.856 8  85313695.590 7  20834427.086                    20834435.887
 109238956.836 8  85121422.30846  20787469.438                    20787475.500
 119937050.133 7  93457583.132 7  22823284.703                    22823295.652
 119572074.799 7  93173150.16544  22753816.484                    22753825.398
 11  8 24  0 44  0.0000000  0  7G04G10G12G05G02G25G30
 120493789.796 7  93891421.02644  22929195.039                    22929205.414
 111791041.136 7  87110063.31246  21273099.688                    21273109.008
 109496685.279 8  85322209.831 7  20836524.828                    20836532.750
 109428712.829 8  85269223.936 7  20823566.844                    20823575.285
 109257684.381 8  85136015.22546  20791032.805                    20791038.727
 119858779.167 7  93396592.836 6  22808390.531                    22808400.750
 119497150.810 7  93114767.89544  22739559.172                    22739568.395
 11  8 24  0 44 30.0000000  0  7G04G10G12G05G02G25G30
 120575507.669 7  93955097.24444  22944745.367                    22944756.359
 111840925.916 7  87148934.56745  21282592.148                    21282601.238
 109475770.571 8  85305912.671 7  20832544.664                    20832552.922
 109372142.572 8  85225143.264 8  20812801.680                    20812810.281
 109276603.328 8  85150757.27746  20794633.164                    20794639.426
 119780886.558 7  93335897.366 7  22793567.938                    22793579.023
 119422671.299 7  93056731.96645  22725386.211                    22725395.707
 11  8 24  0 45  0.0000000  0  7G04G10G12G05G02G25G30
 120657230.059 7  94018776.96744  22960296.570                    22960307.332
 111891365.192 8  87188237.90045  21292190.891                    21292199.461
 109455419.786 8  85290054.929 7  20828672.531                    20828680.297
 109316074.995 8  85181454.288 7  20802132.266                    20802140.871
 109295710.918 8  85165646.34146  20798268.898                    20798275.176
 119703373.596 7  93275497.709 7  22778817.797                    22778829.207
 119348637.448 7  92999043.31845  22711297.734                    22711307.016
 11  8 24  0 45 30.0000000  0  7G04G10G12G05G02G25G30
 120738956.091 7  94082459.52344  22975848.672                    22975859.078
 111942357.742 7  87227972.35445  21301894.469                    21301902.938
 109435634.867 8  85274638.126 7  20824907.555                    20824915.027
 109260512.210 8  85138158.666 8  20791559.242                    20791568.395
 109315006.608 8  85180681.95846  20801940.430                    20801947.156
 119626243.346 7  93215396.295 7  22764140.063                    22764151.520
 119275052.358 7  92941704.32944  22697294.930                    22697304.227
 11  8 24  0 46  0.0000000  0  7G04G10G12G05G02G25G30
 120820684.578 7  94146144.01544  22991401.125                    22991411.516
 111993901.406 7  87268136.25346  21311702.984                    21311711.477
 109416416.466 8  85259662.760 8  20821250.375                    20821258.590
 109205455.952 8  85095257.742 8  20781081.898                    20781090.754
 109334489.186 8  85195863.21646  20805648.266                    20805654.473
 119549498.127 7  93155594.892 7  22749535.227                    22749547.379
 119201918.339 7  92884716.83544  22683377.734                    22683386.871
 11  8 24  0 46 30.0000000  0  7G04G10G12G05G02G25G30
 120902414.714 7  94209829.80144  23006954.102                    23006963.922
 112045994.256 7  87308728.08146  21321615.594                    21321624.637
 109397765.552 8  85245129.597 7  20817700.891                    20817708.906
 109150908.361 8  85052753.171 8  20770701.797                    20770710.645
 109354158.147 8  85211189.70346  20809390.609                    20809397.199
 119473140.844 7  93096095.799 7  22735005.016                    22735016.898
 119129238.163 7  92828082.98645  22669546.805                    22669556.633
 11  8 24  0 47  0.0000000  0  7G04G10G12G05G02G25G30
 120984144.816 7  94273515.52244  23022507.539                    23022517.023
 112098634.086 7  87349746.14145  21331632.516                    21331641.461
 109379682.864 8  85231039.199 7  20814260.406                    20814267.805
 109096870.769 8  85010646.006 7  20760418.883                    20760427.559
 109374011.629 8  85226659.97246  20813169.133                    20813175.145
 119397173.698 7  93036900.678 7  22720548.820                    22720560.992
 119057013.887 7  92771804.37945  22655803.313                    22655812.828
 11  8 24  0 47 30.0000000  0  7G04G10G12G05G02G25G30
 121065873.697 7  94337200.32644  23038059.391                    23038069.035
 112151818.452 8  87391188.50746  21341753.086                    21341762.027
 109362168.971 8  85217392.018 7  20810927.258                    20810935.508
 109043344.758 8  84968937.475 8  20750233.188                    20750242.215
 109394048.390 8  85242273.05946  20816981.773                    20816988.332
 119321598.662 7  92978011.103 7  22706167.484                    22706179.184
 118985247.547 7  92715882.60344  22642146.484                    22642156.027
 11  8 24  0 48  0.0000000  0  7G04G10G12G05G02G25G30
 121147601.516 7  94400884.27444  23053611.602                    23053621.176
 112205546.774 7  87433054.71745  21351977.219                    21351986.184
 109345226.609 8  85204190.185 7  20807703.273                    20807711.320
 108990333.381 8  84927629.961 8  20740145.352                    20740154.156
 109414268.703 8  85258029.16246  20820829.531                    20820836.070
 119246419.731 7  92919430.195 7  22691861.289                    22691872.438
 118913942.896 7  92660320.60044  22628577.609                    22628587.348
 11  8 24  0 48 30.0000000  0  8G04G10G12G17G05G02G25G30
 121229325.091 7  94464564.93944  23069163.094                    23069172.980
 112259814.597 7  87475341.31145  21362304.352                    21362313.152
 109328853.535 8  85191431.956 7  20804587.445                    20804595.336
 127063959.81716  99010842.13215  24179446.492
 108937836.298 8  84886723.189 8  20730155.477                    20730164.234
 109434669.219 8  85273925.68646  20824711.781                    20824717.809
 119171637.192 7  92861158.123 7  22677630.758                    22677642.270
 118843100.232 7  92605118.56044  22615097.117                    22615106.262
 11  8 24  0 49  0.0000000  0  8G04G10G12G17G05G02G25G30
 121311044.257 7  94528242.15744  23084714.078                    23084723.957
 112314620.958 8  87518047.55645  21372733.781                    21372742.492
 109313051.956 8  85179119.051 7  20801580.594                    20801588.754
 127131383.240 5  99063379.913 4  24192277.289
 108885855.993 8  84846219.099 8  20720263.859                    20720272.172
 109455249.634 8  85289962.38446  20828627.992                    20828634.621
 119097254.283 7  92803197.468 7  22663476.234                    22663488.105
 118772722.757 7  92550279.03044  22601704.164                    22601713.859
 11  8 24  0 49 30.0000000  0  8G04G10G12G17G05G02G25G30
 121392758.707 7  94591915.72444  23100263.953                    23100274.266
 112369964.579 8  87561172.45545  21383265.344                    21383274.156
 109297823.591 8  85167252.787 7  20798682.539                    20798690.887
 127198996.59815  99116065.54114  24205143.156
 108834395.021 8  84806119.698 8  20710471.250                    20710479.695
 109476009.813 8  85306139.15046  20832578.531                    20832584.895
 119023274.400 7  92745550.835 7  22649398.813                    22649409.781
 118702813.671 7  92495804.46144  22588400.602                    22588410.801
 11  8 24  0 50  0.0000000  0  8G04G10G12G17G05G02G25G30
 121474466.385 7  94655583.98044  23115812.734                    23115823.070
 112425842.289 8  87604713.53745  21393898.289                    21393907.543
 109283168.068 8  85155832.906 8  20795893.664                    20795901.871
 127266799.152 5  99168898.632 4  24218045.102
 108783454.074 8  84766425.501 7  20700777.328                    20700785.742
 109496947.507 8  85322454.24646  20836562.945                    20836569.117
 118949698.968 7  92688219.384 7  22635397.953                    22635408.508
 118633374.305 7  92441695.89744  22575187.023                    22575196.266
 11  8 24  0 50 30.0000000  0  8G04G10G12G17G05G02G25G30
 121556166.946 7  94719246.72844  23131359.469                    23131369.633
 112482252.698 8  87648669.70045  21404633.219                    21404642.492
 109269086.730 8  85144860.436 7  20793214.055                    20793222.762
 127334791.537 5  99221879.631 5  24230983.664
 108733035.449 8  84727138.319 8  20691183.289                    20691191.922
 109518062.547 8  85338907.54146  20840580.781                    20840587.188
 118876531.111 8  92631205.545 7  22621473.898                    22621485.102
 118564407.824 7  92387955.80944  22562062.938                    22562072.781
 11  8 24  0 51  0.0000000  0  8G04G10G12G17G05G02G25G30
 121637859.185 7  94782902.96944  23146904.625                    23146915.188
 112539193.519 7  87693039.17545  21415468.383                    21415477.891
 109255580.179 8  85134335.840 7  20790644.039                    20790652.293
 127402973.620 5  99275008.491 5  24243958.320
 108683140.246 8  84688258.993 8  20681688.359                    20681696.883
 109539353.251 8  85355497.71346  20844632.313                    20844638.090
 118803773.173 7  92574511.096 7  22607628.602                    22607639.977
 118495916.241 7  92334585.79445  22549029.625                    22549038.641
 11  8 24  0 51 30.0000000  0  8G04G10G12G17G05G02G25G30
 121719541.835 7  94846551.77744  23162448.211                    23162459.094
 112596662.553 8  87737820.24545  21426404.375                    21426413.098
 109242648.824 8  85124259.481 7  20788183.172                    20788191.262
 127471345.428 5  99328285.180 5  24256968.766
 108633770.464 8  84649789.080 8  20672293.383                    20672301.742
 109560818.782 8  85372224.10046  20848717.172                    20848723.012
 118731427.379 7  92518137.790 7  22593861.750                    22593873.461
 118427901.881 7  92281587.63045  22536086.969                    22536096.531
 11  8 24  0 52  0.0000000  0  8G04G10G12G17G05G02G25G30
 121801214.030 6  94910192.41044  23177990.383                    23177999.965
 112654657.656 8  87783011.23345  21437440.578                    21437449.543
 109230293.549 8  85114631.994 7  20785832.078                    20785840.133
 127539907.240 5  99381709.945 5  24270016.320
 108584927.237 8  84611729.482 7  20662999.125                    20663007.180
 109582457.958 8  85389085.79446  20852834.586                    20852840.883
 118659496.254 7  92462087.623 7  22580173.383                    22580184.645
 118360367.011 7  92228963.08945  22523235.742                    22523245.074
 11  8 24  0 52 30.0000000  0  8G04G10G12G17G05G02G25G30
 121882874.762 6  94973824.12544  23193529.039                    23193539.824
 112713176.227 7  87828610.11245  21448576.328                    21448584.820
 109218515.146 8  85105454.016 7  20783590.617                    20783598.516
 127608658.754 4  99435282.498 5  24283099.086
 108536612.089 8  84574081.367 8  20653804.773                    20653813.324
 109604269.646 8  85406081.91346  20856985.672                    20856991.863
 118587982.084 7  92406362.337 7  22566565.047                    22566576.031
 118293313.846 7  92176713.93545  22510475.906                    22510484.371
 11  8 24  0 53  0.0000000  0  8G04G10G12G17G05G02G25G30
 121964523.094 6  95037446.16944  23209067.328                    23209076.871
 112772216.332 8  87874615.39145  21459811.258                    21459819.723
 109207314.152 8  85096725.989 7  20781459.422                    20781467.113
 127677600.283 5  99489003.171 5  24296218.617                    24296230.703
 108488826.920 8  84536846.224 8  20644711.398                    20644719.820
 109626253.008 8  85423211.80946  20861168.844                    20861175.063
 118516887.333 7  92350963.885 7  22553035.719                    22553046.863
 118226744.691 7  92124841.92245  22497807.695                    22497816.898
 11  8 24  0 53 30.0000000  0  8G04G10G12G17G05G02G25G30
 122046157.855 6  95101057.67244  23224600.758                    23224611.438
 112831775.867 7  87921025.40345  21471145.133                    21471153.258
 109196691.073 8  85088448.273 7  20779437.750                    20779446.199
 127746731.57914  99542871.69615  24309371.711                    24309386.043
 108441573.286 8  84500025.258 8  20635719.328                    20635727.977
 109648406.820 8  85440474.51146  20865384.555                    20865390.863
 118446214.441 7  92295894.136 7  22539587.234                    22539598.090
 118160661.900 7  92073348.88645  22485232.602                    22485241.941
 11  8 24  0 54  0.0000000  0  8G04G10G12G17G05G02G25G30
 122127778.315 7  95164658.02543  23240133.398                    23240143.598
 112891852.587 7  87967838.42745  21482577.320                    21482586.000
 109186646.493 7  85080621.339 8  20777525.875                    20777534.734
 127816052.93614  99596888.37515  24322564.984                    24322577.969
 108394852.600 8  84463619.573 8  20626828.633                    20626837.160
 109670730.080 7  85457869.24546  20869632.789                    20869638.473
 118375965.676 7  92241154.868 7  22526219.477                    22526231.199
 118095067.596 7  92022236.48644  22472750.461                    22472759.418
 11  8 24  0 54 30.0000000  0  8G04G10G12G17G05G02G25G30
 122209383.051 6  95228246.11844  23255661.273                    23255671.254
 112952444.086 7  88015052.58345  21494107.297                    21494115.582
 109177180.758 8  85073245.454 7  20775724.930                    20775733.328
 127885564.40915  99651053.16615  24335792.031
 108348665.966 8  84427630.031 8  20618039.688                    20618048.090
 109693221.321 8  85475394.88246  20873912.664                    20873918.367
 118306143.250 7  92186747.825 7  22512932.914                    22512943.754
 118029963.872 7  91971506.37744  22460361.109                    22460370.301
 11  8 24  0 55  0.0000000  0  9G04G10G12G29G17G05G02G25G30
 122290971.628 7  95291821.61744  23271187.852                    23271198.527
 113013548.195 8  88062666.17645  21505735.508                    21505743.672
 109168294.511 8  85066321.118 7  20774033.844                    20774042.207
 129604210.86416                  24662884.328
 127955265.93314  99705365.62815  24349055.813
 108303015.115 8  84392057.980 7  20609352.555                    20609360.617
 109715879.991 8  85493050.97846  20878224.477                    20878230.230
 118236749.789 7  92132675.031 7  22499727.742                    22499738.570
 117965353.132 7  91921160.37944  22448066.617                    22448075.855
 11  8 24  0 55 30.0000000  0  8G04G10G12G29G05G02G25G30
 122372543.614 7  95355384.16044  23286710.875                    23286721.332
 113075163.457 7  88110678.05845  21517459.820                    21517468.852
 109159989.490 8  85059849.698 7  20772453.594                    20772461.504
 129524633.437 6 100928411.66416  24647740.992                    24647752.527
 108257902.180 8  84356905.090 8  20600768.281                    20600776.238
 109738705.775 8  85510837.29346  20882567.961                    20882574.277
 118167788.377 7  92078938.916 7  22486604.680                    22486615.711
 117901238.349 7  91871200.86944  22435866.242                    22435874.984
 11  8 24  0 56  0.0000000  0  9G04G10G12G29G17G05G02G25G30
 122454097.069 6  95418932.25244  23302230.109                    23302240.711
 113137286.191 7  88159085.39045  21529281.656                    21529290.238
 109152264.569 8  85053830.301 7  20770983.672                    20770991.520
 129444975.363 6 100866340.526 6  24632582.492                    24632593.961
 128095234.75015  99814430.83715  24375692.234
 108213327.354 8  84322171.498 8  20592285.727                    20592293.809
 109761696.410 8  85528752.05746  20886943.086                    20886949.406
 118099260.098 7  92025540.301 7  22473563.430                    22473575.172
 117837620.484 7  91821628.56745  22423759.102                    22423768.602
 11  8 24  0 56 30.0000000  0  9G04G10G12G29G17G05G02G25G30
 122535630.690 6  95482464.89644  23317745.789                    23317755.645
 113199913.979 7  88207886.26745  21541198.891                    21541207.891
 109145119.983 8  85048263.108 7  20769624.125                    20769632.180
 129365236.524 6 100804206.446 6  24617408.445                    24617419.707
 128165505.67115  99869187.31715  24389064.461
 108169292.155 8  84287858.394 8  20583905.648                    20583914.168
 109784850.743 8  85546794.37546  20891349.469                    20891355.625
 118031167.177 7  91972480.939 7  22460606.219                    22460617.324
 117774501.469 7  91772444.96845  22411748.680                    22411757.840
 11  8 24  0 57  0.0000000  0  9G04G10G12G29G17G05G02G25G30
 122617144.285 6  95545981.94844  23333256.094                    23333266.820
 113263044.885 7  88257079.16445  21553213.000                    21553221.301
 109138556.962 8  85043149.082 7  20768375.063                    20768382.891
 129285418.043 6 100742010.360 6  24602219.820                    24602230.625
 128235966.408 4  99924091.807 4  24402470.953
 108125798.339 8  84253967.143 8  20575629.367                    20575637.484
 109808168.262 8  85564963.87046  20895786.250                    20895792.816
 117963512.451 7  91919762.992 7  22447731.648                    22447742.609
 117711884.132 7  91723652.28445  22399832.766                    22399841.992
 11  8 24  0 57 30.0000000  0  9G04G10G12G29G17G05G02G25G30
 122698636.408 6  95609482.27944  23348764.594                    23348774.313
 113326676.233 7  88306662.01645  21565321.703                    21565330.195
 109132575.240 8  85038488.021 8  20767237.063                    20767244.973
 129205520.064 6 100679752.285 6  24587016.188                    24587026.180
 128306616.655 5  99979143.949 4  24415917.969
 108082846.454 8  84220498.183 8  20567455.633                    20567463.977
 109831647.299 8  85583259.20946  20900253.820                    20900260.234
 117896297.617 7  91867387.847 7  22434941.141                    22434952.305
 117649769.957 7  91675251.67345  22388012.906                    22388022.191
 11  8 24  0 58  0.0000000  0  9G04G10G12G29G17G05G02G25G30
 122780106.000 6  95672965.04244  23364267.633                    23364277.914
 113390805.665 8  88356632.99445  21577525.055                    21577533.637
 109127175.008 8  85034280.069 7  20766209.461                    20766217.473
 129125542.990 6 100617432.572 6  24571796.508                    24571807.793
 128377456.009 5                  24429398.352
 108040437.830 8  84187452.537 8  20559385.609                    20559393.914
 109855286.668 8  85601679.48246  20904752.523                    20904758.785
 117829524.900 7  91815357.174 7  22422234.938                    22422246.250
 117588160.919 7  91627244.68045  22376289.016                    22376298.496
 11  8 24  0 58 30.0000000  0  9G04G10G12G29G17G05G02G25G30
 122861552.075 6  95736429.47444  23379766.242                    23379776.422
 113455430.484 7  88406989.98845  21589822.242                    21589831.250
 109122356.386 8  85030525.317 8  20765291.938                    20765300.391
 129045487.387 7 100555051.664 6  24556562.477                    24556573.742
 128448484.802 5                  24442913.750
 107998573.885 8  84154831.325 8  20551418.961                    20551427.320
 109879085.153 8  85620223.73746  20909281.320                    20909287.289
 117763196.311 7  91763672.591 7  22409612.664                    22409623.574
 117527058.856 7  91579632.73245  22364661.680                    22364670.820
 11  8 24  0 59  0.0000000  0  9G04G10G12G29G17G05G02G25G30
 122942974.677 6  95799875.59444  23395260.703                    23395271.082
 113520549.604 8  88457732.14345  21602214.266                    21602223.059
 109118120.822 8  85027224.891 7  20764486.125                    20764494.344
 128965354.466 7 100492610.524 6  24541313.969                    24541324.512
 128519703.152 5                  24456466.992
 107957256.416 8  84122635.925 8  20543556.695                    20543564.809
 109903043.043 8  85638892.22146  20913840.758                    20913846.496
 117697315.244 7  91712336.724 7  22397076.063                    22397086.863
 117466466.994 7  91532418.34145  22353131.234                    22353140.520
 11  8 24  0 59 30.0000000  0  9G04G10G12G29G17G05G02G25G30
 123024372.548 6  95863302.41344  23410750.703                    23410760.406
 113586159.943 7  88508857.07745  21614699.688                    21614707.848
 109114468.229 8  85024378.737 7  20763791.078                    20763799.121
 128885144.984 7 100430109.696 6  24526050.422                    24526061.617
 128591110.651 5 100200845.46314  24470054.453
 107916486.401 8  84090867.121 8  20535798.492                    20535806.754
 109927158.707 7  85657683.64246  20918429.367                    20918435.617
 117631883.482 7  91661350.960 7  22384624.969                    22384636.461
 117406387.012 7  91485602.82845  22341697.930                    22341707.816
 11  8 24  1  0  0.0000000  0  9G04G10G12G29G17G05G02G25G30
 123105744.809 6  95926709.26943  23426234.797                    23426245.066
 113652258.681 8  88560362.57145  21627277.766                    21627286.645
 109111399.159 7  85021987.255 8  20763207.055                    20763214.953
 128804859.271 6 100367549.472 6  24510771.977                    24510783.543
 128662707.538 5 100256635.123 5  24483679.781
 107876265.228 8  84059525.987 8  20528144.891                    20528153.027
 109951430.954 8  85676597.07546  20923048.359                    20923054.875
 117566903.195 7  91610716.973 7  22372259.984                    22372270.934
 117346820.849 7  91439187.66945  22330363.125                    22330372.512
 11  8 24  1  0 30.0000000  0  9G04G10G12G29G17G05G02G25G30
 123187090.817 6  95990095.70944  23441714.281                    23441724.992
 113718843.655 8  88612246.94145  21639948.664                    21639957.328
 109108913.160 8  85020050.124 8  20762733.883                    20762742.020
 128724498.081 6 100304930.444 6  24495480.344                    24495490.691
 128734493.930 5 100312572.571 5  24497339.516
 107836593.806 8  84028613.231 8  20520595.469                    20520603.707
 109975859.294 8  85695632.14446  20927696.727                    20927702.969
 117502376.671 7  91560436.599 7  22359979.938                    22359991.418
 117287770.500 7  91393174.44845  22319126.570                    22319135.023
 11  8 24  1  1  0.0000000  0  8G04G10G12G29G05G02G25G30
 123268410.713 6  96053461.77543  23457188.688                    23457199.813
 113785913.654 8  88664509.26545  21652711.742                    21652720.102
 109107011.786 8  85018568.553 8  20762371.898                    20762380.324
 128644063.181 6 100242253.971 5  24480174.039                    24480183.898
 107797474.593 8  83998130.764 8  20513150.953                    20513159.211
 110000443.574 8  85714788.72046  20932374.688                    20932381.109
 117438307.291 7  91510512.430 7  22347788.516                    22347799.633
 117229239.232 7  91347565.67845  22307988.430                    22307997.316
 11  8 24  1  1 30.0000000  0  8G04G10G12G29G05G02G25G30
 123349702.550 7  96116805.97743  23472658.094                    23472668.543
 113853464.967 7  88717146.63045  21665565.602                    21665574.871
 109105694.224 8  85017541.880 7  20762121.398                    20762129.379
 128563554.065 6 100179519.655 6  24464852.953                    24464863.832
 107758907.565 8  83968078.572 8  20505812.141                    20505820.301
 110025181.659 8  85734065.15846  20937082.680                    20937088.730
 117374696.002 7  91460945.203 7  22335683.516                    22335694.629
 117171227.748 7  91302361.94745  22296949.234                    22296957.906
 11  8 24  1  2  0.0000000  0  8G04G10G12G29G05G02G25G30
 123430965.559 6  96180127.71543  23488122.234                    23488132.281
 113921495.231 7  88770157.20545  21678511.523                    21678520.844
 109104960.349 8  85016970.036 7  20761981.898                    20761989.668
 128482971.145 6 100116727.801 6  24449519.430                    24449529.535
 107720893.632 8  83938457.360 8  20498578.086                    20498586.418
 110050072.553 8  85753460.66446  20941819.242                    20941825.652
 117311544.912 7  91411736.589 7  22323666.484                    22323677.031
 117113737.879 7  91257564.67745  22286009.484                    22286018.141
 11  8 24  1  2 30.0000000  0  8G04G10G12G29G05G02G25G30
 123512198.416 6  96243425.98343  23503580.063                    23503590.555
 113990001.599 7  88823538.77645  21691548.313                    21691557.074
 109104810.392 8  85016853.179 8  20761953.000                    20761961.848
 128402315.182 6 100053879.050 6  24434170.242                    24434180.469
 107683434.158 8  83909268.193 8  20491449.773                    20491457.953
 110075115.138 7  85772974.37646  20946584.570                    20946590.719
 117248855.923 7  91362888.054 7  22311736.961                    22311748.156
 117056771.413 7  91213175.23745  22275168.711                    22275177.832
 11  8 24  1  3  0.0000000  0  8G04G10G12G29G05G02G25G30
 123593400.484 6  96306700.22243  23519032.688                    23519043.145
 114058981.553 8  88877289.35945  21704674.719                    21704683.672
 109105244.351 8  85017191.330 7  20762035.781                    20762043.766
 128321586.491 6  99990973.665 6  24418807.867                    24418818.848
 107646529.580 8  83880511.415 8  20484427.313                    20484435.770
 110100307.962 8  85792605.16046  20951378.594                    20951384.875
 117186631.204 7  91314401.280 7  22299895.641                    22299906.609
 117000330.255 7  91169195.13145  22264428.453                    22264437.402
 11  8 24  1  3 30.0000000  0  8G04G10G12G29G05G02G25G30
 123674570.968 6  96369949.90243  23534479.344                    23534489.230
 114128432.281 8  88931406.79145  21717890.188                    21717899.371
 109106262.304 8  85017984.545 7  20762229.516                    20762237.461
 128240785.918 6  99928012.271 6  24403432.617                    24403443.301
 107610181.132 8  83852187.977 8  20477510.438                    20477518.539
 110125650.285 8  85812352.43146  20956200.750                    20956206.848
 117124872.822 7  91266277.898 7  22288144.094                    22288154.289
 116944416.212 7  91125625.77945  22253787.633                    22253797.277
 11  8 24  1  4  0.0000000  0  8G04G10G12G29G05G02G25G30
 123755709.134 6  96433174.39643  23549919.578                    23549929.516
 114198351.278 7  88985889.09745  21731196.000                    21731204.871
 109107864.224 8  85019232.787 8  20762534.617                    20762542.555
 128159914.145 6  99864995.360 6  24388043.070                    24388053.992
 107574389.963 8  83824298.785 8  20470699.484                    20470707.707
 110151141.261 8  85832215.53546  20961052.109                    20961058.254
 117063582.975 7  91218519.606 7  22276480.539                    22276491.250
 116889031.372 7  91082468.78045  22243248.578                    22243258.293
 11  8 24  1  4 30.0000000  0  8G04G10G12G29G05G02G25G30
 123836814.239 6  96496373.11243  23565353.289                    23565363.688
 114268736.021 7  89040734.32545  21744589.836                    21744598.047
 109110049.825 8  85020935.836 7  20762950.273                    20762958.543
 128078971.834 6  99801923.504 6  24372640.000                    24372651.555
 107539156.749 8  83796844.374 8  20463994.852                    20464002.773
 110176779.718 8  85852193.55946  20965930.766                    20965936.715
 117002763.647 7  91171127.931 7  22264907.398                    22264917.617
 116834177.355 7  91039725.39945  22232810.867                    22232819.547
 11  8 24  1  5  0.0000000  0  8G04G10G12G29G05G02G25G30
 123917885.401 7  96559545.39743  23580780.883                    23580790.965
 114339584.188 8  89095940.66845  21758071.477                    21758080.168
 109112819.372 7  85023093.917 7  20763477.422                    20763485.008
 127997959.875 6  99738797.387 6  24357223.195                    24357234.895
 107504482.730 8  83769825.683 8  20457396.453                    20457404.719
 110202564.873 8  85872285.89846  20970837.555                    20970843.957
 116942417.060 8  91124104.643 7  22253423.555                    22253434.406
 116779856.081 7  90997397.16745  22222473.516                    22222482.117
 11  8 24  1  5 30.0000000  0  8G04G10G12G29G05G02G25G30
 123998922.388 7  96622691.06243  23596202.258                    23596211.801
 114410893.764 7  89151506.55645  21771641.734                    21771650.055
 109116173.361 8  85025707.409 8  20764115.477                    20764123.699
 127916879.209 6  99675617.737 6  24341794.398                    24341805.246
 107470369.201 8  83743243.748 8  20450904.875                    20450913.125
 110228496.409 8  85892492.30246  20975772.070                    20975778.203
 116882545.669 8  91077451.638 7  22242030.211                    22242041.117
 116726069.877 7  90955485.85545  22212238.953                    22212247.695
 11  8 24  1  6  0.0000000  0  8G04G10G12G29G05G02G25G30
 124079923.929 7  96685809.14444  23611615.180                    23611625.672
 114482661.411 8  89207429.37745  21785298.313                    21785307.125
 109120111.084 8  85028775.752 7  20764864.883                    20764872.984
 127835730.296 6  99612384.904 6  24326352.633                    24326362.578
 107436816.495 8  83717098.819 8  20444520.016                    20444528.566
 110254572.512 8  85912811.33046  20980734.313                    20980740.383
 116823151.033 7  91031170.103 7  22230728.141                    22230738.984
 116672820.005 7  90913992.46345  22202105.219                    22202114.355
 11  8 24  1  6 30.0000000  0  8G04G10G12G29G05G02G25G30
 124160889.135 7  96748898.89044  23627023.164                    23627033.438
 114554884.312 7  89263706.95045  21799042.031                    21799050.715
 109124632.475 8  85032298.897 7  20765725.219                    20765733.516
 127754513.740 7  99549099.329 6  24310898.125                    24310907.848
 107403825.508 8  83691391.595 8  20438241.805                    20438250.387
 110280792.220 8  85933242.27646  20985723.742                    20985730.391
 116764235.066 7  90985261.594 7  22219516.453                    22219527.539
 116620108.087 7  90872918.27745  22192074.398                    22192083.273
 11  8 24  1  7  0.0000000  0  8G04G10G12G29G05G02G25G30
 124241817.542 7  96811959.99243  23642422.719                    23642433.816
 114627560.156 7  89320337.46645  21812871.789                    21812880.582
 109129737.748 8  85036277.023 7  20766696.945                    20766704.422
 127673230.555 7  99485761.824 6  24295430.320                    24295439.926
 107371397.303 8  83666122.893 8  20432071.211                    20432079.387
 110307154.931 7  85953784.63646  20990740.500                    20990746.234
 116705800.052 7  90939727.832 7  22208397.078                    22208407.434
 116567936.231 7  90832264.89145  22182146.422                    22182155.652
 11  8 24  1  7 30.0000000  0  8G04G10G12G29G05G02G25G30
 124322708.207 7  96874991.67944  23657815.820                    23657826.625
 114700686.005 8  89377318.62645  21826787.438                    21826795.836
 109135426.329 8  85040709.674 7  20767779.367                    20767787.094
 127591880.776 6  99422372.471 6  24279950.164                    24279959.633
 107339532.544 8  83641293.249 8  20426007.242                    20426015.664
 110333659.103 8  85974437.24546  20995783.602                    20995789.746
 116647847.467 8  90894570.028 7  22197368.352                    22197379.734
 116516305.511 7  90792033.16545  22172321.477                    22172330.066
 11  8 24  1  8  0.0000000  0  8G04G10G12G29G05G02G25G30
 124403560.748 7  96937993.66244  23673202.258                    23673212.059
 114774259.721 7  89434648.78845  21840787.938                    21840796.422
 109141698.188 8  85045596.831 7  20768972.680                    20768980.406
 127510466.056 6  99358932.490 6  24264456.352                    24264467.195
 107308232.401 8  83616903.561 8  20420051.188                    20420059.586
 110360304.526 8  85995199.90346  21000854.570                    21000860.742
 116590379.844 7  90849790.080 7  22186433.508                    22186444.309
 116465218.323 7  90752224.98745  22162599.789                    22162608.293
 11  8 24  1  8 30.0000000  0  8G04G10G12G29G05G02G25G30
 124484374.985 7  97000965.81044  23688579.391                    23688590.875
 114848279.129 7  89492326.25545  21854873.438                    21854881.879
 109148554.111 8  85050939.103 7  20770277.414                    20770285.531
 127428987.549 6  99295442.854 6  24248951.156                    24248962.242
 107277498.208 8  83592954.867 8  20414202.586                    20414210.621
 110387091.110 8  86016072.56646  21005951.797                    21005957.543
 116533399.906 7  90805390.149 7  22175590.172                    22175601.125
 116414677.016 7  90712842.17145  22152982.086                    22152991.152
 11  8 24  1  9  0.0000000  0  8G04G10G12G29G05G02G25G30
 124565149.373 7  97063906.87743  23703950.242                    23703962.160
 114922740.658 7  89550348.22545  21869042.930                    21869051.715
 109155992.842 8  85056735.504 8  20771692.813                    20771700.984
 127347445.091 6  99231903.330 6  24233434.164                    24233445.559
 107247329.673 8  83569446.961 8  20408461.586                    20408469.648
 110414016.316 8  86037053.23646  21011075.688                    21011081.434
 116476908.441 8  90761370.874 7  22164839.789                    22164851.172
 116364682.176 7  90673885.16745  22143468.195                    22143476.996
 11  8 24  1  9 30.0000000  0  8G04G10G12G29G05G02G25G30
 124645883.525 6  97126816.58843  23719313.289                    23719324.723
 114997641.900 7  89608712.82245  21883295.859                    21883304.871
 109164014.168 8  85062985.880 7  20773219.141                    20773227.613
 127265839.914 6  99168314.917 6  24217905.703                    24217915.230
 107217727.610 8  83546380.446 8  20402828.242                    20402836.363
 110441079.734 8  86058141.61546  21016225.305                    21016231.578
 116420907.647 8  90717733.904 7  22154183.547                    22154194.398
 116315235.601 7  90635355.39645  22134058.938                    22134067.500
 11  8 24  1 10  0.0000000  0  8G04G10G12G29G05G02G25G30
 124726576.991 6  97189694.57343  23734669.383                    23734680.184
 115072980.697 8  89667418.36645  21897632.469                    21897641.246
 109172618.507 8  85069690.568 7  20774856.688                    20774864.715
 127184173.055 6  99104678.401 5  24202364.664                    24202374.785
 107188693.429 8  83523756.441 8  20397303.445                    20397311.195
 110468281.158 8  86079337.52546  21021401.805                    21021407.652
 116365399.923 8  90674481.184 7  22143620.789                    22143631.809
 116266339.493 7  90597254.55145  22124754.477                    22124762.887
 11  8 24  1 10 30.0000000  0  8G04G10G12G29G05G02G25G30
 124807228.425 6  97252539.83543  23750016.430                    23750027.574
 115148753.444 8  89726462.03945  21912051.422                    21912060.094
 109181804.239 8  85076848.266 7  20776604.898                    20776612.723
 127102444.186 6  99040993.593 5  24186811.555                    24186822.230
 107160226.762 8  83501574.658 8  20391886.375                    20391894.301
 110495618.202 8  86100639.10946  21026603.422                    21026609.895
 116310386.182 8  90631613.360 7  22133151.945                    22133163.121
 116217994.404 7  90559583.08845  22115554.328                    22115563.289
 11  8 24  1 11  0.0000000  0  8G04G10G12G29G05G02G25G30
 124887837.978 6  97315352.46543  23765356.492                    23765366.758
 115224958.436 8  89785842.55145  21926552.875                    21926561.973
 109191572.125 8  85084459.618 7  20778463.313                    20778471.473
 127020655.713 6  98977262.374 5  24171248.547                    24171258.176
 107132329.433 8  83479836.502 8  20386577.617                    20386586.141
 110523091.600 8  86122046.94946  21031831.758                    21031838.039
 116255869.346 8  90589132.739 7  22122777.805                    22122788.348
 116170203.068 7  90522343.11345  22106459.672                    22106468.992
 11  8 24  1 11 30.0000000  0  8G04G10G12G29G05G02G25G30
 124968404.741 6  97378131.74243  23780687.273                    23780698.207
 115301592.365 7  89845557.30245  21941135.555                    21941144.422
 109201921.746 8  85092524.264 7  20780433.102                    20780441.363
 126938807.656 6  98913484.716 5  24155672.469                    24155682.512
 107105001.741 8  83458542.237 8  20381377.563                    20381385.684
 110550699.855 8  86143559.87146  21037085.422                    21037091.859
 116201850.977 8  90547040.532 7  22112498.250                    22112508.918
 116122966.567 7  90485535.48645  22097471.430                    22097480.281
 11  8 24  1 12  0.0000000  0  8G04G10G12G29G05G02G25G30
 125048928.178 6  97440877.22143  23796011.570                    23796020.707
 115378652.522 7  89905604.15245  21955799.789                    21955808.195
 109212852.742 8  85101041.928 7  20782512.734                    20782521.207
 126856901.137 6  98849661.492 5  24140086.742                    24140097.051
 107078244.337 8  83437692.333 8  20376285.727                    20376293.883
 110578442.272 8  86165177.33446  21042364.766                    21042370.949
 116148332.959 7  90505338.222 7  22102313.844                    22102325.566
 116076286.615 7  90449161.52145  22088588.039                    22088597.246
 11  8 24  1 12 30.0000000  0  8G04G10G12G29G05G02G25G30
 125129407.503 7  97503588.34843  23811325.914                    23811336.730
 115456136.362 7  89965981.15445  21970544.750                    21970553.234
 109224364.430 8  85110012.075 8  20784703.609                    20784711.633
 126774937.104 7  98785793.483 6  24124489.633                    24124500.375
 107052057.441 8  83417286.999 8  20371302.414                    20371310.754
 110606317.782 8  86186898.50546  21047668.969                    21047675.508
 116095317.013 8  90464027.098 7  22092225.172                    22092236.266
 116030164.472 7  90413222.22945  22079811.211                    22079820.129
 11  8 24  1 13  0.0000000  0  8G04G10G12G29G05G02G25G30
 125209841.878 6  97566264.45843  23826631.016                    23826642.480
 115534041.116 7  90026686.14545  21985369.375                    21985377.660
 109236456.429 8  85119434.421 7  20787004.523                    20787012.645
 126692916.115 7  98721881.095 6  24108881.617                    24108891.551
 107026441.677 8  83397326.697 8  20366427.836                    20366436.023
 110634325.270 8  86208722.52346  21052998.414                    21053005.250
 116042804.856 8  90423108.574 7  22082232.727                    22082243.789
 115984601.673 7  90377718.77345  22071141.078                    22071150.094
 11  8 24  1 13 30.0000000  0  8G04G10G12G29G05G02G25G30
 125290230.875 6  97628905.16043  23841928.992                    23841940.633
 115612363.770 7  90087716.78245  22000273.531                    22000282.070
 109249128.066 8  85129308.427 7  20789416.180                    20789424.105
 126610838.722 6  98657924.765 6  24093262.328                    24093272.891
 107001397.885 8  83377812.073 8  20361662.078                    20361670.434
 110662463.887 8  86230648.71846  21058353.406                    21058359.852
 115990798.160 8  90382583.889 7  22072335.938                    22072347.516
 115939599.474 7  90342652.15745  22062577.281                    22062586.348
 11  8 24  1 14  0.0000000  0  8G04G10G12G29G05G02G25G30
 125370573.925 5  97691510.02643  23857218.430                    23857229.191
 115691101.691 6  90149070.98843  22015257.234                    22015265.469
 109262379.333 6  85139634.109 7  20791937.617                    20791945.867
 126528706.251 5  98593925.533 6  24077633.906                    24077643.520
 106976925.878 6  83358743.010 8  20357005.523                    20357013.418
 110690732.926 6  86252676.51745  21063732.445                    21063738.965
 115939298.754 7  90342454.502 7  22062536.477                    22062547.031
 115895159.436 6  90308023.57443  22054120.617                    22054129.895
 11  8 24  1 14 30.0000000  0  8G04G10G12G29G05G02G25G30
 125450870.728 6  97754078.89543  23872498.391                    23872508.621
 115770252.523 7  90210746.95945  22030318.734                    22030327.715
 109276209.187 8  85150410.634 8  20794569.406                    20794577.805
 126446519.594 6  98529884.058 6  24061993.797                    24062003.918
 106953026.885 8  83340120.452 8  20352457.359                    20352465.148
 110719131.750 8  86274805.48046  21069137.141                    21069143.074
 115888308.797 8  90302722.086 7  22052832.969                    22052843.875
 115851283.317 7  90273834.40845  22045771.367                    22045780.406
 11  8 24  1 15  0.0000000  0  8G04G10G12G29G05G02G25G30
 125531120.139 7  97816610.88743  23887769.633                    23887780.039
 115849812.892 7  90272742.04245  22045458.625                    22045467.734
 109290616.922 8  85161637.453 8  20797311.055                    20797319.090
 126364279.273 6  98465800.788 6  24046343.609                    24046353.863
 106929700.894 8  83321944.381 8  20348018.484                    20348026.750
 110747658.889 8  86297034.42146  21074565.258                    21074571.777
 115837829.464 8  90263387.562 7  22043226.852                    22043238.031
 115807971.992 7  90240085.34245  22037529.836                    22037538.426
 11  8 24  1 15 30.0000000  0  8G04G10G12G29G05G02G25G30
 125611321.818 7  97879105.63343  23903031.461                    23903042.633
 115929780.204 7  90335054.24745  22060675.898                    22060684.762
 109305602.845 8  85173314.802 8  20800163.023                    20800170.938
 126281986.782 6  98401676.886 6  24030683.906                    24030693.902
 106906948.292 8  83304215.116 8  20343689.039                    20343696.793
 110776313.984 8  86319363.05646  21080018.102                    21080024.492
 115787862.755 8  90224452.482 7  22033719.234                    22033729.746
 115765227.036 7  90206777.60145  22029395.258                    22029404.441
 11  8 24  1 16  0.0000000  0  8G04G10G12G29G05G02G25G30
 125691475.329 7  97941562.82943  23918284.094                    23918294.738
 116010151.933 7  90397681.57745  22075969.898                    22075978.813
 109321165.806 8  85185441.792 7  20803124.258                    20803132.145
 126199642.720 6  98337512.772 6  24015013.945                    24015024.746
 106884769.683 8  83286933.108 8  20339468.844                    20339476.750
 110805096.126 8  86341790.69746  21085495.352                    21085501.918
 115738410.291 8  90185918.129 7  22024308.031                    22024319.500
 115723049.847 7  90173912.27845  22021369.430                    22021378.293
 11  8 24  1 16 30.0000000  0  8G04G10G12G29G05G02G25G30
 125771580.131 6  98003982.15743  23933527.859                    23933536.938
 116090925.292 7  90460621.83345  22091341.086                    22091349.289
 109337305.457 8  85198018.148 7  20806195.672                    20806203.707
 126117248.347 7  98273309.459 6  23999335.820                    23999345.691
 106863165.676 8  83270098.857 8  20335357.461                    20335364.891
 110834004.755 8  86364316.89146  21090996.594                    21091002.859
 115689473.943 8  90147785.912 7  22014996.031                    22015007.098
 115681441.808 7  90141490.45245  22013451.891                    22013460.980
 11  8 24  1 17  0.0000000  0  8G04G10G12G29G05G02G25G30
 125851635.729 6  98066363.10843  23948761.695                    23948771.023
 116172097.260 7  90523872.71745  22106787.563                    22106795.672
 109354020.754 8  85211043.062 7  20809376.719                    20809384.762
 126034804.462 6  98209067.544 6  23983646.852                    23983656.438
 106842136.571 8  83253712.567 8  20331355.695                    20331363.543
 110863038.920 8  86386940.91746  21096521.664                    21096528.051
 115641055.412 8  90110057.206 7  22005782.055                    22005792.957
 115640404.299 7  90109513.18345  22005642.148                    22005651.438
 11  8 24  1 17 30.0000000  0  8G04G10G12G29G05G02G25G30
 125931641.115 6  98128704.90243  23963986.477                    23963996.379
 116253664.372 7  90587431.48645  22122309.234                    22122317.852
 109371310.749 8  85224515.779 7  20812666.508                    20812674.633
 125952311.287 6  98144787.235 6  23967948.859                    23967958.719
 106821681.980 8  83237773.964 8  20327463.336                    20327471.113
 110892196.816 8  86409661.35246  21102069.938                    21102076.492
 115593155.639 8  90072732.717 7  21996667.438                    21996678.223
 115599938.006 7  90077981.02145  21997942.258                    21997951.055
 11  8 24  1 18  0.0000000  0  8G04G10G12G29G05G02G25G30
 126011596.323 6  98191007.60343  23979201.313                    23979211.719
 116335624.795 7  90651296.74745  22137906.047                    22137914.367
 109389175.835 8  85238436.625 7  20816065.914                    20816074.383
 125869771.110 7  98080470.259 6  23952242.406                    23952251.215
 106801803.143 8  83222283.986 8  20323680.484                    20323688.652
 110921479.214 8  86432478.80246  21107642.164                    21107648.980
 115545777.121 7  90035814.407 7  21987651.383                    21987662.184
 115560044.961 7  90046895.54145  21990350.570                    21990359.898
 11  8 24  1 18 30.0000000  0  8G04G10G12G29G05G02G25G30
 126091500.942 6  98253270.88543  23994406.078                    23994416.801
 116417975.753 7  90715466.33145  22153576.234                    22153585.387
 109407614.986 8  85252804.797 7  20819575.242                    20819582.938
 125787184.294 7  98016116.913 6  23936526.195                    23936536.012
 106782500.465 8  83207242.975 8  20320007.031                    20320014.969
 110950885.022 8  86455392.41846  21113238.094                    21113244.547
 115498921.564 8  89999303.599 7  21978735.328                    21978745.887
 115520726.419 7  90016257.73345  21982868.148                    21982877.348
 11  8 24  1 19  0.0000000  0  8G04G10G12G29G05G02G25G30
 126171354.372 6  98315494.30743  24009602.383                    24009612.922
 116500714.366 7  90779937.96545  22169320.766                    22169329.746
 109426627.231 8  85267619.519 7  20823193.180                    20823200.441
 125704551.940 7  97951728.105 6  23920802.000                    23920811.465
 106763773.816 8  83192650.812 8  20316443.656                    20316451.129
 110980413.254 8  86478401.43246  21118857.117                    21118863.313
 115452590.221 8  89963201.279 7  21969918.250                    21969929.477
 115481983.394 7  89986068.37545  21975495.867                    21975505.668
 11  8 24  1 19 30.0000000  0  8G04G10G12G29G05G02G25G30
 126251155.804 6  98377677.18743  24024788.156                    24024798.320
 116583837.480 7  90844709.20044  22185139.484                    22185147.703
 109446211.662 8  85282880.102 7  20826919.648                    20826927.637
 125621874.692 7  97887304.337 6  23905068.430                    23905078.355
 106745623.109 8  83178507.435 8  20312989.344                    20312996.961
 111010062.697 8  86501504.89246  21124499.086                    21124505.531
 115406784.443 8  89927508.476 7  21961202.023                    21961212.816
 115443816.757 7  89956328.14945  21968233.172                    21968241.809
 11  8 24  1 20  0.0000000  0  8G04G10G12G29G05G02G25G30
 126330905.327 6  98439819.61443  24039963.445                    24039974.332
 116667342.882 7  90909778.33345  22201029.570                    22201038.355
 109466367.659 8  85298586.077 7  20830755.484                    20830762.742
 125539153.849 7  97822846.552 6  23889328.016                    23889336.301
 106728049.228 8  83164813.526 8  20309645.258                    20309653.410
 111039833.162 8  86524702.65846  21130164.625                    21130170.996
 115361506.372 8  89892226.887 7  21952585.648                    21952596.617
 115406228.282 7  89927038.45645  21961080.219                    21961089.188
 11  8 24  1 20 30.0000000  0  8G04G10G12G29G05G02G25G30
 126410601.832 6  98501920.71443  24055129.984                    24055140.805
 116751227.157 7  90975142.68945  22216992.352                    22217000.934
 109487094.422 8  85314736.781 7  20834699.680                    20834707.441
 125456390.211 7  97758355.427 6  23873578.055                    23873586.992
 106711051.762 8  83151568.781 8  20306410.672                    20306418.574
 111069723.453 8  86547993.80746  21135852.398                    21135858.203
 115316756.971 8  89857357.248 7  21944070.094                    21944081.434
 115369218.662 7  89898199.79445  21954037.484                    21954046.590
 11  8 24  1 21  0.0000000  0  8G04G10G12G29G05G02G25G30
 126490245.085 6  98563980.33243  24070284.938                    24070296.051
 116835487.556 7  91040800.11745  22233026.375                    22233035.371
 109508390.893 8  85331331.424 7  20838752.117                    20838760.242
 125373585.163 7  97693832.059 6  23857820.977                    23857829.777
 106694630.977 8  83138773.383 8  20303285.898                    20303293.598
 111099732.850 8  86571377.76446  21141562.734                    21141568.875
 115272537.893 7  89822900.877 7  21935655.539                    21935666.324
 115332788.976 7  89869813.04445  21947105.367                    21947114.484
 11  8 24  1 21 30.0000000  0  8G04G10G12G29G05G02G25G30
 126569834.506 6  98625998.04743  24085430.836                    24085441.141
 116920121.085 7  91106748.29345  22249132.031                    22249140.266
 109530256.008 8  85348369.164 7  20842912.984                    20842921.137
 125290739.679 7  97629277.176 6  23842055.414                    23842064.691
 106678786.898 8  83126427.377 8  20300270.633                    20300278.910
 111129860.469 8  86594853.85246  21147295.945                    21147302.035
 115228850.487 8  89788858.783 7  21927341.961                    21927353.078
 115296940.255 7  89841878.99745  21940283.539                    21940292.348
 11  8 24  1 22  0.0000000  0  8G04G10G12G29G05G02G25G30
 126649369.745 6  98687973.48743  24100565.844                    24100576.594
 117005125.053 7  91172985.13745  22265307.789                    22265315.844
 109552689.295 8  85365849.632 7  20847181.734                    20847189.438
 125207854.773 6  97564691.571 6  23826283.453                    23826292.578
 106663520.113 8  83114531.203 8  20297365.492                    20297373.621
 111160105.879 8  86618421.71046  21153051.430                    21153057.629
 115185696.361 7  89755232.235 7  21919130.266                    21919140.563
 115261673.715 7  89814398.59445  21933572.227                    21933581.434
 11  8 24  1 22 30.0000000  0  8G04G10G12G29G05G02G25G30
 126728850.784 6  98749906.69943  24115690.867                    24115700.340
 117090497.006 7  91239508.69245  22281553.078                    22281561.781
 109575690.050 8  85383772.290 7  20851558.898                    20851566.684
 125124931.608 6  97500076.188 6  23810503.469                    23810513.004
 106648830.473 8  83103084.750 8  20294570.320                    20294578.211
 111190468.906 8  86642081.20846  21158829.453                    21158835.980
 115143077.329 8  89722022.642 7  21911019.859                    21911030.566
 115226990.759 7  89787372.94145  21926972.977                    21926981.035
 11  8 24  1 23  0.0000000  0  8G04G10G12G29G05G02G25G30
 126808276.649 6  98811796.90143  24130804.898                    24130815.820
 117176233.723 7  91306316.50745  22297868.047                    22297877.641
 109599256.972 8  85402136.120 7  20856043.336                    20856051.074
 125041971.105 6  97435431.739 6  23794715.102                    23794726.629
 106634717.945 8  83092088.000 8  20291884.602                    20291892.922
 111220947.959 8  86665831.12746  21164629.484                    21164635.402
 115100994.439 8  89689230.798 7  21903011.719                    21903022.637
 115192891.949 7  89760802.46945  21920483.820                    21920492.219
 11  8 24  1 23 30.0000000  0  8G04G10G12G29G05G02G25G30
 126887646.977 6  98873643.84543  24145908.445                    24145919.465
 117262331.981 7  91373406.02544  22314252.570                    22314261.738
 109623388.946 8  85420940.243 7  20860635.430                    20860643.223
 124958974.013 6  97370758.771 6  23778921.234                    23778932.434
 106621182.288 8  83081540.760 8  20289308.898                    20289317.086
 111251542.176 8  86689670.78846  21170451.266                    21170457.563
 115059448.879 8  89656857.668 7  21895105.938                    21895116.359
 115159378.143 7  89734687.85145  21914106.422                    21914115.004
 11  8 24  1 24  0.0000000  0  8G04G10G12G29G05G02G25G30
 126966961.445 6  98935447.25244  24161001.828                    24161013.285
 117348789.386 7  91440775.39545  22330704.695                    22330713.961
 109648084.953 8  85440183.870 7  20865335.203                    20865342.875
 124875941.979 7  97306058.567 6  23763121.469                    23763131.895
 106608223.708 8  83071443.187 8  20286843.125                    20286851.293
 111282251.241 8  86713599.93646  21176294.969                    21176301.328
 115018442.297 8  89624904.517 7  21887302.898                    21887313.305
 115126450.514 7  89709029.99045  21907840.313                    21907848.820
 11  8 24  1 24 30.0000000  0  8G04G10G12G29G05G02G25G30
 127046219.690 6  98997206.86943  24176084.258                    24176095.402
 117435602.789 7  91508422.18544  22347225.070                    22347233.809
 109673344.163 8  85459866.366 7  20870141.945                    20870149.418
 124792875.988 7  97241331.908 6  23747314.633                    23747324.793
 106595842.241 8  83061795.309 8  20284486.695                    20284494.801
 111313074.438 8  86737618.01346  21182160.563                    21182166.926
 114977976.019 8  89593372.369 7  21879602.227                    21879613.250
 115094109.940 7  89683829.58145  21901685.703                    21901694.961
 11  8 24  1 25  0.0000000  0  8G04G10G12G29G05G02G25G30
 127125421.189 6  99058922.27343  24191154.633                    24191166.395
 117522769.198 7  91576344.03944  22363812.219                    22363820.730
 109699165.388 8  85479986.793 7  20875055.414                    20875063.309
 124709776.916 7  97176579.439 6  23731501.516                    23731510.727
 106584037.657 8  83052596.964 8  20282240.656                    20282249.051
 111344010.896 8  86761724.35246  21188047.797                    21188053.406
 114938051.234 8  89562262.178 7  21872004.484                    21872015.039
 115062357.240 7  89659087.23945  21895643.383                    21895652.262
 11  8 24  1 25 30.0000000  0  9G04G10G12G29G26G05G02G25G30
 127204565.172 6  99120592.86743  24206216.453                    24206227.461
 117610285.780 7  91644538.76844  22380466.133                    22380474.867
 109725547.572 7  85500544.331 7  20880075.695                    20880084.008
 124626645.393 7  97111801.660 6  23715681.703                    23715691.664
 130611785.79716                  24854579.789
 106572809.750 8  83043847.963 8  20280103.984                    20280111.863
 111375059.445 8  86785918.04946  21193955.844                    21193961.613
 114898668.974 8  89531574.726 7  21864510.367                    21864521.285
 115031192.986 7  89634803.43745  21889712.969                    21889722.094
 11  8 24  1 26  0.0000000  0  9G04G10G12G29G26G05G02G25G30
 127283652.681 6  99182219.47543  24221265.133                    24221276.605
 117698150.920 7  91713005.08444  22397185.477                    22397195.277
 109752490.352 8  85521538.685 7  20885202.883                    20885210.695
 124543483.803 7  97047000.482 6  23699856.945                    23699866.160
 130520477.193 6 101704247.26053  24837205.594                    24837216.988
 106562159.577 8  83035549.151 8  20278077.172                    20278085.523
 111406221.311 8  86810200.04646  21199885.813                    21199891.941
 114859831.885 8  89501312.075 7  21857120.406                    21857130.504
 115000619.361 7  89610979.84745  21883895.289                    21883904.020
 11  8 24  1 26 30.0000000  0  9G04G10G12G29G26G05G02G25G30
 127362682.172 6  99243800.85843  24236304.945                    24236316.059
 117786360.551 7  91781739.83545  22413972.031                    22413980.906
 109779991.637 8  85542968.258 7  20890436.125                    20890444.117
 124460292.944 7  96982176.455 6  23684026.336                    23684035.895
 130429026.294 6 101632986.95643  24819802.430                    24819815.164
 106552085.947 8  83027699.588 8  20276160.469                    20276168.617
 111437493.985 8  86834568.36746  21205836.492                    21205842.719
 114821540.117 8  89471474.373 7  21849832.984                    21849844.078
 114970636.023 7  89587616.23745  21878189.492                    21878198.465
 11  8 24  1 27  0.0000000  0  9G04G10G12G29G26G05G02G25G30
 127441653.485 6  99305336.86943  24251332.773                    24251343.676
 117874911.857 7  91850740.81544  22430822.570                    22430831.910
 109808050.622 8  85564832.393 7  20895775.461                    20895783.559
 124377073.660 7  96917330.286 6  23668190.563                    23668199.441
 130337435.597 6 101561617.73843  24802373.883                    24802386.461
 106542588.927 8  83020299.341 8  20274352.828                    20274360.984
 111468877.191 8  86859022.81846  21211808.789                    21211814.594
 114783795.083 7  89442062.668 7  21842650.500                    21842661.898
 114941244.026 7  89564713.40345  21872595.969                    21872605.367
 11  8 24  1 27 30.0000000  0  9G04G10G12G29G26G05G02G25G30
 127520566.238 6  99366827.27243  24266349.242                    24266360.414
 117963801.893 7  91920005.74845  22447738.359                    22447746.418
 109836665.754 7  85587129.890 7  20901220.859                    20901229.035
 124293826.929 7  96852462.748 6  23652349.148                    23652358.508
 130245707.874 6 101490141.71043  24784918.758                    24784930.398
 106533668.288 8  83013348.206 8  20272655.734                    20272663.543
 111500370.046 7  86883562.70446  21217801.672                    21217807.531
 114746597.946 8  89413077.906 7  21835572.266                    21835582.922
 114912444.056 7  89542271.89145  21867116.313                    21867125.023
 11  8 24  1 28  0.0000000  0  9G04G10G12G29G26G05G02G25G30
 127599420.070 7  99428271.81443  24281354.469                    24281365.582
 118053028.028 7  91989532.58544  22464716.820                    22464726.250
 109865836.391 8  85609860.250 7  20906771.766                    20906779.789
 124210554.087 7  96787574.836 6  23636502.766                    23636512.020
 130153845.952 6 101418561.16743  24767438.102                    24767449.230
 106525323.869 8  83006846.086 8  20271067.438                    20271075.523
 111531972.399 8  86908187.92246  21223815.297                    21223821.086
 114709950.086 8  89384521.133 7  21828597.883                    21828609.473
 114884237.041 7  89520292.42245  21861747.930                    21861756.816
 11  8 24  1 28 30.0000000  0  9G04G10G12G29G26G05G02G25G30
 127678214.507 6  99489670.06442  24296348.719                    24296358.855
 118142586.999 7  92059318.76044  22481758.953                    22481768.547
 109895560.845 8  85633022.165 7  20912428.289                    20912436.258
 124127256.432 7  96722667.616 6  23620651.352                    23620660.844
 130061852.558 6 101346878.18043  24749931.117                    24749943.219
 106517554.897 8  83000792.354 8  20269589.203                    20269597.242
 111563683.293 8  86932897.71946  21229849.484                    21229855.453
 114673852.329 7  89356393.010 7  21821729.156                    21821739.949
 114856623.304 7  89498775.24545  21856493.625                    21856502.699
 11  8 24  1 29  0.0000000  0  9G04G10G12G29G26G05G02G25G30
 127756949.430 6  99551021.93843  24311332.180                    24311341.813
 118232476.451 7  92129362.45744  22498864.859                    22498874.012
 109925838.380 8  85656615.042 7  20918190.055                    20918197.922
 124043935.250 7  96657742.009 6  23604795.367                    23604805.438
 129969730.870 6 101275095.19343  24732401.266                    24732413.332
 106510361.983 8  82995187.503 8  20268220.289                    20268228.426
 111595502.350 8  86957691.81246  21235904.797                    21235910.645
 114638306.297 8  89328694.812 7  21814965.148                    21814975.777
 114829604.065 7  89477721.29845  21851351.875                    21851360.996
 11  8 24  1 29 30.0000000  0  9G04G10G12G29G26G05G02G25G30
 127835624.634 6  99612327.25743  24326302.633                    24326314.125
 118322693.347 7  92199661.31444  22516033.367                    22516042.016
 109956667.461 8  85680637.696 7  20924056.727                    20924064.375
 123960591.560 7  96592798.904 6  23588936.094                    23588946.113
 129877483.449 6 101203214.24343  24714845.875                    24714859.039
 106503744.517 8  82990031.054 8  20266960.883                    20266969.008
 111627428.781 8  86982569.57446  21241979.938                    21241986.344
 114603313.021 8  89301427.330 7  21808306.164                    21808316.957
 114803179.833 7  89457131.00545  21846323.438                    21846332.445
 11  8 24  1 30  0.0000000  0  9G04G10G12G29G26G05G02G25G30
 127914239.634 6  99673585.72043  24341262.867                    24341273.891
 118413234.510 7  92270212.84644  22533261.648                    22533270.895
 109988046.769 8  85705089.111 7  20930028.102                    20930035.270
 123877226.686 7  96527839.279 6  23573072.328                    23573081.730
 129785113.328 6 101131237.66243  24697269.148                    24697281.230
 106497702.141 8  82985322.724 8  20265811.414                    20265819.645
 111659461.967 7  87007530.50346  21248075.695                    21248082.375
 114568873.533 8  89274591.366 7  21801752.188                    21801763.426
 114777351.220 7  89437004.81345  21841408.961                    21841417.414
 11  8 24  1 30 30.0000000  0  9G04G10G12G29G26G05G02G25G30
 127992794.385 6  99734797.17042  24356211.000                    24356221.988
 118504097.210 7  92341014.93844  22550552.203                    22550561.633
 110019975.216 8  85729968.418 7  20936103.531                    20936111.281
 123793841.870 7  96462864.118 6  23557205.133                    23557214.078
 129692623.532 6 101059167.84643  24679669.000                    24679680.887
 106492235.043 8  82981062.658 8  20264770.758                    20264779.059
 111691601.294 8  87032574.14546  21254191.766                    21254197.984
 114534989.077 8  89248187.913 7  21795304.289                    21795315.234
 114752118.921 7  89417343.28245  21836607.352                    21836615.801
 11  8 24  1 31  0.0000000  0  9G04G10G12G29G26G05G02G25G30
 128071288.165 6  99795961.16542  24371147.609                    24371159.375
 118595278.338 6  92412065.11944  22567903.852                    22567913.297
 110052450.961 7  85755274.183 7  20942283.563                    20942291.586
 123710438.186 7  96397874.264 6  23541334.383                    23541342.770
 129600016.392 6 100987006.60443  24662046.461                    24662058.105
 106487341.974 8  82977249.895 8  20263839.734                    20263847.785
 111723845.975 8  87057699.88146  21260327.844                    21260333.742
 114501660.413 8  89222217.528 7  21788961.992                    21788972.953
 114727483.280 7  89398146.67845  21831919.000                    21831927.922
 11  8 24  1 31 30.0000000  0  9G04G10G12G29G26G05G02G25G30
 128149720.714 6  99857077.33043  24386072.820                    24386084.535
 118686774.925 6  92483361.10044  22585315.234                    22585324.535
 110085472.834 8  85781005.516 7  20948567.453                    20948575.566
 123627016.976 7  96332870.781 6  23525458.844                    23525467.813
 129507294.990 6 100914756.26742  24644402.805                    24644413.590
 106483022.830 8  82973884.344 8  20263017.617                    20263025.766
 111756195.479 8  87082907.30246  21266483.367                    21266489.750
 114468888.637 8  89196681.085 7  21782725.813                    21782736.984
 114703444.917 7  89379415.49345  21827344.703                    21827352.996
 11  8 24  1 32  0.0000000  0  9G04G10G12G29G26G05G02G25G30
 128228092.006 6  99918145.79443  24400987.313                    24400998.164
 118778584.458 7  92554900.93744  22602786.344                    22602794.867
 110119039.429 8  85807161.298 7  20954954.664                    20954962.918
 123543579.601 6  96267854.705 6  23509581.617                    23509590.324
 129414462.425 6 100842419.36243  24626736.445                    24626747.723
 106479277.542 8  82970965.958 8  20262304.883                    20262313.199
 111788649.361 7  87108196.05346  21272659.367                    21272665.262
 114436675.029 7  89171579.566 7  21776595.953                    21776607.125
 114680004.532 7  89361150.26645  21822884.484                    21822893.137
 11  8 24  1 32 30.0000000  0  9G04G10G12G29G26G05G02G25G30
 128306401.855 6  99979166.39143  24415889.820                    24415899.930
 118870703.990 7  92626682.35644  22620315.703                    22620324.922
 110153149.778 8  85833740.788 7  20961445.883                    20961453.504
 123460127.342 7  96202827.045 6  23493700.703                    23493709.383
 129321521.541 6 100769998.01042  24609049.164                    24609061.629
 106476105.453 7  82968494.215 8  20261701.391                    20261709.406
 111821207.176 8  87133565.77846  21278854.688                    21278860.801
 114405020.478 7  89146913.689 7  21770572.414                    21770582.875
 114657162.615 7  89343351.36545  21818537.719                    21818545.926
 11  8 24  1 33  0.0000000  0  9G04G10G12G29G26G05G02G25G30
 128384649.822 6 100040138.73343  24430779.094                    24430790.262
 118963130.537 6  92698703.00244  22637904.023                    22637913.020
 110187801.954 8  85860742.483 7  20968039.992                    20968048.051
 123376661.478 6  96137788.793 6  23477818.367                    23477825.926
 129228475.321 6 100697494.56842  24591343.516                    24591355.047
 106473506.050 8  82966468.719 8  20261206.922                    20261214.746
 111853867.986 7  87159015.77146  21285070.047                    21285075.797
 114373925.953 8  89122684.192 7  21764654.938                    21764666.195
 114634919.653 7  89326019.18545  21814305.000                    21814313.699
 11  8 24  1 33 30.0000000  0  9G04G10G12G29G26G05G02G25G30
 128462835.556 6 100101062.63443  24445657.734                    24445668.676
 119055861.272 7  92770960.69144  22655550.008                    22655559.363
 110222994.777 7  85888165.448 7  20974737.039                    20974744.539
 123293183.461 7  96072741.053 6  23461932.234                    23461940.621
 129135326.663 5 100624911.28542  24573617.781                    24573629.105
 106471479.140 7  82964889.327 8  20260820.953                    20260829.336
 111886631.291 7  87184545.63446  21291304.602                    21291310.969
 114343392.481 7  89098891.857 7  21758844.336                    21758855.762
 114613276.086 7  89309154.07545  21810186.453                    21810194.469
 11  8 24  1 34  0.0000000  0  9G04G10G12G29G26G05G02G25G30
 128540959.157 6 100161938.12043  24460523.500                    24460535.031
 119148893.258 6  92843453.11444  22673253.164                    22673262.094
 110258726.702 8  85916008.507 7  20981536.203                    20981544.543
 123209694.217 7  96007684.592 6  23446045.078                    23446053.715
 129042078.433 6 100552250.43142  24555873.797                    24555884.797
 106470024.047 8  82963755.502 8  20260544.453                    20260551.910
 111919496.759 8  87210155.10146  21297558.594                    21297565.098
 114313420.918 8  89075537.385 7  21753141.234                    21753152.340
 114592232.323 8  89292756.32045  21806181.406                    21806190.004
 11  8 24  1 34 30.0000000  0  9G04G10G12G29G26G05G02G25G30
 128619019.913 6 100222764.63343  24475377.719                    24475389.770
 119242223.047 6  92916177.59245  22691013.836                    22691022.953
 110294995.826 8  85944270.149 7  20988437.945                    20988445.977
 123126195.018 7  95942620.373 6  23430155.469                    23430164.465
 128948733.485 6 100479514.25043  24538110.461                    24538121.625
 106469140.018 8  82963066.675 8  20260376.141                    20260384.500
 111952463.047 7  87235843.11546  21303831.836                    21303838.078
 114284011.890 8  89052621.262 7  21747544.766                    21747555.660
 114571788.516 8  89276826.08345  21802290.906                    21802299.738
 11  8 24  1 35  0.0000000  0  9G04G10G12G29G26G05G02G25G30
 128697017.866 6 100283542.22143  24490220.977                    24490231.609
 119335848.486 7  92989132.44144  22708829.680                    22708839.203
 110331800.898 7  85972949.410 7  20995442.148                    20995449.910
 123042687.497 7  95877549.675 6  23414264.523                    23414274.008
 128855294.985 6 100406705.12243  24520328.938                    24520340.855
 106468826.886 8  82962822.697 8  20260316.258                    20260324.496
 111985530.191 7  87261609.72446  21310124.539                    21310130.980
 114255166.650 8  89030144.441 7  21742056.266                    21742066.996
 114551945.328 8  89261363.83845  21798515.148                    21798524.094
 11  8 24  1 35 30.0000000  0  9G04G10G12G29G26G05G02G25G30
 128774952.865 6 100344270.76743  24505051.625                    24505062.828
 119429766.726 6  93062315.46144  22726701.781                    22726711.516
 110369140.813 8  86002045.439 7  21002547.484                    21002555.254
 122959172.963 7  95812473.495 6  23398371.820                    23398381.789
 128761766.039 6 100333825.51643  24502531.516                    24502543.426
 106469084.048 8  82963023.106 8  20260365.352                    20260373.645
 112018698.161 7  87287454.90246  21316435.781                    21316442.180
 114226886.051 8  89008107.613 7  21736674.258                    21736685.180
 114532703.159 8  89246369.94745  21794853.930                    21794862.340
 11  8 24  1 36  0.0000000  0  9G04G10G12G29G26G05G02G25G30
 128852824.568 6 100404949.98143  24519870.500                    24519881.777
 119523974.496 6  93135724.08444  22744629.625                    22744638.680
 110407013.530 8  86031556.637 7  21009754.656                    21009762.637
 122875652.595 7  95747392.765 7  23382478.820                    23382488.594
 128668149.480 6 100260877.62343  24484717.328                    24484729.094
 106469910.794 8  82963667.348 8  20260522.531                    20260530.469
 112051965.964 7  87313377.86246  21322766.906                    21322772.738
 114199170.835 8  88986511.333 7  21731400.383                    21731411.355
 114514062.323 8  89231844.61545  21791306.383                    21791315.148
 11  8 24  1 36 30.0000000  0  9G04G10G12G29G26G05G02G25G30
 128930632.638 6 100465579.60243  24534676.539                    24534688.055
 119618468.797 7  93209355.95944  22762611.273                    22762620.270
 110445417.209 8  86061481.573 7  21017062.422                    21017070.234
 122792127.700 7  95682308.490 6  23366584.148                    23366593.793
 128574448.130 6 100187863.67743  24466886.164                    24466898.023
 106471306.196 8  82964754.697 8  20260787.867                    20260795.949
 112085332.785 8  87339377.97846  21329116.227                    21329122.672
 114172021.554 8  88965356.059 7  21726233.719                    21726244.590
 114496022.664 8  89217787.72645  21787873.508                    21787882.586
 11  8 24  1 37  0.0000000  0  9G04G10G12G29G26G05G02G25G30
 129008376.841 6 100526159.47543  24549471.141                    24549482.105
 119713246.777 7  93283208.89044  22780646.664                    22780655.934
 110484350.659 8  86091819.313 7  21024471.516                    21024479.004
 122708599.668 6  95617221.781 6  23350689.914                    23350698.922
 128480665.058 6 100114786.07743  24449039.531                    24449051.457
 106473269.710 7  82966284.743 8  20261161.789                    20261169.598
 112118798.149 8  87365454.87846  21335484.172                    21335490.418
 114145439.216 8  88944642.551 7  21721175.570                    21721186.453
 114478584.823 8  89204199.80545  21784555.406                    21784564.398
 11  8 24  1 37 30.0000000  0  9G04G10G12G29G26G05G02G25G30
 129086057.360 7 100586689.73943  24564253.430                    24564263.945
 119808305.660 7  93357280.71144  22798735.891                    22798744.609
 110523812.121 8  86122568.494 7  21031980.602                    21031988.270
 122625069.984 6  95552133.769 6  23334793.930                    23334803.789
 128386803.504 6 100041647.35543  24431178.961                    24431189.781
 106475801.156 8  82968257.328 8  20261643.531                    20261651.332
 112152361.691 8  87391608.27946  21341871.484                    21341877.535
 114119424.714 8  88924371.523 7  21716224.977                    21716235.473
 114461749.048 8  89191081.01645  21781351.602                    21781360.582
 11  8 24  1 38  0.0000000  0  9G04G10G12G29G26G05G02G25G30
 129163673.892 6 100647170.15743  24579022.211                    24579034.234
 119903642.347 6  93431569.00944  22816877.398                    22816886.969
 110563799.793 8  86153727.719 7  21039590.250                    21039597.926
 122541539.920 6  95487045.474 7  23318898.141                    23318909.156
 128292866.464 6  99968449.79543  24413302.609                    24413314.652
 106478899.531 8  82970671.683 8  20262233.086                    20262240.805
 112186022.803 7  87417837.71646  21348276.961                    21348283.289
 114093978.601 8  88904543.388 7  21711382.656                    21711393.461
 114445515.462 8  89178431.47345  21778262.828                    21778270.957
 11  8 24  1 38 30.0000000  0  9G04G10G12G29G26G05G02G25G30
 129241226.145 6 100707600.46343  24593780.172                    24593792.258
 119999254.137 7  93506071.66844  22835072.047                    22835080.621
 110604312.037 8  86185295.687 7  21047299.375                    21047306.711
 122458011.050 6  95421958.095 6  23303003.617                    23303013.480
 128198856.926 6  99895195.74143  24395413.313                    24395424.680
 106482564.096 8  82973527.220 8  20262930.391                    20262938.258
 112219781.016 8  87444142.80946  21354701.008                    21354707.180
 114069101.642 8  88885158.768 7  21706649.125                    21706659.641
 114429884.241 8  89166251.29845  21775287.719                    21775296.770
 11  8 24  1 39  0.0000000  0  9G04G10G12G29G26G05G02G25G30
 129318714.147 6 100767980.71943  24608525.828                    24608537.793
 120095138.193 7  93580786.49444  22853318.031                    22853327.160
 110645347.476 8  86217271.345 7  21055107.961                    21055115.867
 122374484.690 6  95356872.659 6  23287108.844                    23287118.340
 128104777.999 6  99821887.59243  24377510.250                    24377521.852
 106486794.102 8  82976823.357 8  20263735.148                    20263743.398
 112253636.008 7  87470523.31946  21361143.148                    21361149.684
 114044794.551 8  88866218.184 7  21702023.398                    21702034.168
 114414855.631 7  89154540.71245  21772428.023                    21772436.535
 11  8 24  1 39 30.0000000  0  9G04G10G12G29G26G05G02G25G30
 129396137.434 6 100828310.50842  24623258.273                    24623270.328
 120191291.532 6  93655711.14944  22871615.594                    22871624.441
 110686904.096 8  86249653.118 7  21063016.367                    21063023.988
 122290962.337 6  95291790.313 6  23271214.695                    23271224.961
 128010632.653 6  99748527.74843  24359594.539                    24359606.551
 106491588.764 8  82980559.487 8  20264647.594                    20264655.676
 112287587.031 7  87496978.64146  21367603.930                    21367609.953
 114021057.937 8  88847722.139 7  21697506.750                    21697517.008
 114400429.611 7  89143299.66745  21769683.086                    21769691.605
 11  8 24  1 40  0.0000000  0  9G04G10G12G29G26G05G02G25G30
 129473495.894 5 100888589.81242  24637979.336                    24637991.918
 120287711.345 7  93730843.43944  22889964.383                    22889972.949
 110728980.123 8  86282439.625 7  21071022.711                    21071030.543
 122207445.298 6  95226712.120 6  23255322.180                    23255332.031
 127916424.144 6  99675118.64143  24341667.719                    24341678.594
 106496947.214 8  82984734.937 8  20265667.398                    20265675.566
 112321633.945 7  87523508.68846  21374083.250                    21374088.695
 113997892.413 8  88829671.099 7  21693098.156                    21693108.457
 114386606.396 8  89132528.33445  21767052.609                    21767061.168
 11  8 24  1 40 30.0000000  0  9G04G10G12G29G26G05G02G25G30
 129550789.309 6 100948818.48042  24652687.805                    24652699.980
 120384394.455 7  93806180.90944  22908362.492                    22908371.055
 110771573.780 8  86315629.486 7  21079128.008                    21079135.938
 122123935.134 7  95161639.298 6  23239431.531                    23239440.645
 127822155.391 6  99601662.63543  24323729.852                    24323739.953
 106502868.580 8  82989349.011 8  20266793.984                    20266802.059
 112355775.909 7  87550112.81346  21380579.914                    21380585.762
 113975298.596 8  88812065.538 7  21688798.836                    21688809.406
 114373385.877 8  89122226.63145  21764536.375                    21764545.418
 11  8 24  1 41  0.0000000  0  9G04G10G12G29G26G05G02G25G30
 129628017.922 6 101008996.60642  24667383.969                    24667396.508
 120481338.313 7  93881721.54044  22926809.375                    22926819.309
 110814683.494 8  86349221.462 7  21087331.891                    21087339.629
 122040433.143 7  95096572.830 6  23223541.438                    23223551.160
 127727829.519 6  99528162.11643  24305779.750                    24305790.414
 106509352.413 8  82994401.389 8  20268027.930                    20268035.703
 112390012.563 8  87576790.71346  21387094.977                    21387101.023
 113953277.071 7  88794905.929 7  21684608.352                    21684619.020
 114360768.250 8  89112394.73845  21762135.531                    21762144.109
 11  8 24  1 41 30.0000000  0  8G10G12G29G26G05G02G25G30
 120578540.776 7  93957463.70044  22945306.172                    22945316.047
 110858308.641 8  86383215.077 7  21095633.289                    21095641.527
 121956942.036 7  95031514.837 6  23207653.836                    23207662.605
 127633450.589 6  99454620.25043  24287818.688                    24287830.535
 106516398.610 8  82999891.952 8  20269368.906                    20269376.730
 112424344.625 8  87603542.96546  21393628.148                    21393634.027
 113931829.410 8  88778193.478 7  21680527.125                    21680537.328
 114348754.415 8  89103033.32345  21759849.281                    21759858.105
 11  8 24  1 42  0.0000000  0  8G10G12G29G26G05G02G25G30
 120675998.219 7  94033404.53544  22963852.367                    22963861.707
 110902445.504 8  86417607.425 7  21104032.109                    21104040.082
 121873461.776 7  94966465.350 6  23191767.859                    23191777.137
 127539020.794 6  99381038.68443  24269849.547                    24269860.918
 106524005.408 8  83005819.342 8  20270816.156                    20270824.145
 112458770.628 8  87630368.41746  21400179.078                    21400185.234
 113910955.088 8  88761927.800 7  21676554.352                    21676565.539
 114337343.407 8  89094141.62545  21757677.984                    21757687.000
 11  8 24  1 42 30.0000000  0  8G10G12G29G26G05G02G25G30
 120773707.372 6  94109541.52544  22982445.578                    22982455.453
 110947092.454 8  86452397.246 7  21112528.258                    21112535.871
 121789993.923 6  94901425.521 7  23175884.094                    23175893.793
 127444543.136 6  99307419.87343  24251871.523                    24251882.336
 106532171.435 8  83012182.507 8  20272370.031                    20272377.969
 112493289.809 8  87657266.48846  21406747.914                    21406754.242
 113890654.496 8  88746109.172 7  21672691.242                    21672702.117
 114326535.033 8  89085719.52045  21755621.133                    21755629.895
 11  8 24  1 43  0.0000000  0  8G10G12G29G26G05G02G25G30
 120871665.590 6  94185872.56944  23001086.500                    23001096.367
 110992247.746 8  86487583.181 7  21121121.086                    21121128.594
 121706540.461 6  94836396.910 6  23160003.305                    23160012.758
 127350020.740 6  99233766.17343  24233883.609                    24233895.457
 106540896.015 8  83018980.896 8  20274030.234                    20274038.277
 112527901.931 8  87684236.98046  21413334.609                    21413341.086
 113870928.187 8  88730738.045 7  21668937.727                    21668948.398
 114316329.300 8  89077767.00945  21753679.008                    21753687.742
 11  8 24  1 43 30.0000000  0  8G10G12G29G26G05G02G25G30
 120969870.143 6  94262395.54944  23019774.219                    23019784.047
 111037909.859 8  86523164.024 7  21129810.133                    21129818.297
 121623102.585 7  94771380.443 6  23144125.453                    23144134.652
 127255456.875 6  99160080.20843  24215888.805                    24215900.449
 106550178.408 8  83026213.948 8  20275796.852                    20275804.914
 112562606.830 8  87711279.75446  21419938.602                    21419944.828
 113851776.863 8  88715814.951 7  21665293.031                    21665304.137
 114306726.309 8  89070284.17745  21751851.352                    21751860.414
 11  8 24  1 44  0.0000000  0  8G10G12G29G26G05G02G25G30
 121068318.035 6  94339108.17144  23038508.563                    23038517.750
 111084076.848 8  86559138.289 7  21138595.477                    21138603.016
 121539681.820 7  94706377.318 6  23128250.969                    23128260.281
 127160855.002 6  99086364.57843  24197886.531                    24197897.836
 106560017.644 8  83033880.896 8  20277669.219                    20277677.074
 112597403.731 8  87738394.22046  21426560.328                    21426566.281
 113833200.778 8  88701340.099 7  21661758.547                    21661768.996
 114297725.747 8  89063270.76445  21750139.133                    21750147.719
 11  8 24  1 44 30.0000000  0  8G10G12G29G26G05G02G25G30
 121167006.318 6  94416008.11444  23057288.109                    23057297.188
 111130746.444 8  86595504.203 7  21147476.469                    21147485.008
 121456279.781 7  94641388.778 6  23112380.078                    23112388.887
 127066217.842 6  99012621.42043  24179877.570                    24179888.914
 106570412.545 8  83041980.835 8  20279646.805                    20279655.223
 112632292.326 8  87765580.14646  21433199.133                    21433205.246
 113815200.363 8  88687313.835 7  21658333.086                    21658343.512
 114289327.561 8  89056726.73645  21748540.883                    21748549.570
 11  8 24  1 45  0.0000000  0  8G10G12G29G26G05G02G25G30
 121265931.980 6  94493093.04744  23076112.977                    23076121.531
 111177916.906 8  86632260.379 7  21156452.797                    21156461.309
 121372897.922 7  94576415.944 6  23096513.617                    23096522.160
 126971548.801 6  98938853.42643  24161862.844                    24161873.945
 106581362.081 8  83050512.946 8  20281730.961                    20281738.598
 112667272.170 8  87792837.19046  21439855.438                    21439861.797
 113797775.988 8  88673736.410 7  21655017.172                    21655027.480
 114281531.471 8  89050651.89045  21747057.375                    21747065.520
 11  8 24  1 45 30.0000000  0  8G10G12G29G26G05G02G25G30
 121365092.531 7  94570360.99344  23094983.617                    23094991.625
 111225586.427 8  86669405.436 7  21165523.906                    21165531.746
 121289537.549 7  94511459.852 6  23080649.961                    23080659.621
 126876851.024 6  98865063.10043  24143842.867                    24143852.512
 106592865.355 8  83059476.553 8  20283919.508                    20283927.629
 112702343.033 8  87820165.13846  21446529.477                    21446535.609
 113780927.923 8  88660608.066 7  21651810.977                    21651821.992
 114274337.263 8  89045046.01845  21745688.109                    21745697.090
 11  8 24  1 46  0.0000000  0  8G10G12G29G26G05G02G25G30
 121464484.861 6  94647809.53544  23113896.648                    23113904.938
 111273752.590 8  86706937.493 7  21174689.594                    21174697.652
 121206200.660 7  94446522.044 6  23064792.117                    23064801.035
 126782127.440 6  98791252.58643  24125817.211                    24125827.711
 106604921.173 8  83068870.704 8  20286214.070                    20286222.063
 112737504.282 8  87847563.53546  21453220.477                    21453226.609
 113764656.570 8  88647929.104 7  21648714.508                    21648725.313
 114267744.717 7  89039908.97645  21744433.773                    21744442.375
 11  8 24  1 46 30.0000000  0  8G10G12G29G26G05G02G25G30
 121564106.112 7  94725436.44443  23132853.789                    23132862.758
 111322413.445 8  86744855.023 7  21183949.445                    21183957.629
 121122888.540 7  94381603.548 6  23048938.320                    23048946.387
 126687381.716 7  98717424.85443  24107787.164                    24107798.680
 106617528.391 8  83078694.517 8  20288612.844                    20288621.000
 112772755.763 8  87875032.23246  21459928.344                    21459934.766
 113748962.120 8  88635699.680 7  21645727.969                    21645738.496
 114261753.431 7  89035240.44645  21743293.563                    21743302.109
 11  8 24  1 47  0.0000000  0  8G10G12G29G26G05G02G25G30
 121663953.674 6  94803239.67844  23151854.133                    23151862.957
 111371567.056 8  86783156.506 7  21193303.398                    21193311.734
 121039602.736 7  94316705.545 6  23033089.133                    23033098.117
 126592617.013 6  98643582.32443  24089753.359                    24089765.438
 106630686.196 8  83088947.367 8  20291116.594                    20291124.855
 112808097.198 8  87902571.02746  21466653.797                    21466659.945
 113733845.117 8  88623920.203 7  21642851.219                    21642862.215
 114256363.440 8  89031040.45445  21742267.945                    21742276.477
 11  8 24  1 47 30.0000000  0  8G10G12G29G26G05G02G25G30
 121764024.431 6  94881216.87244  23170897.227                    23170906.016
 111421211.320 8  86821840.339 7  21202750.484                    21202758.082
 120956344.762 7  94251829.239 6  23017245.867                    23017254.316
 126497836.279 7  98569727.32743  24071718.258                    24071729.035
 106644392.771 8  83099627.822 8  20293725.078                    20293733.043
 112843527.553 8  87930179.11246  21473395.461                    21473401.824
 113719305.448 8  88612590.587 7  21640084.813                    21640094.777
 114251574.081 8  89027308.47145  21741356.500                    21741365.332
 11  8 24  1 48  0.0000000  0  8G10G12G29G26G05G02G25G30
 121864315.558 7  94959365.74944  23189981.867                    23189990.883
 111471344.442 8  86860905.108 7  21212290.336                    21212298.180
 120873116.387 7  94186976.004 6  23001407.992                    23001416.922
 126403043.130 7  98495862.64043  24053679.914                    24053690.605
 106658647.701 8  83110735.570 8  20296437.453                    20296445.789
 112879047.169 8  87957856.73746  21480154.906                    21480161.152
 113705343.559 8  88601711.199 7  21637427.977                    21637438.613
 114247385.131 8  89024044.36745  21740559.438                    21740567.527
 11  8 24  1 48 30.0000000  0  8G10G12G29G26G05G02G25G30
 121964824.444 7  95037684.35044  23209108.258                    23209116.633
 111521964.530 8  86900349.317 7  21221922.852                    21221931.227
 120789919.326 7  94122147.178 7  22985575.641                    22985584.750
 126308240.652 6  98421990.70243  24035638.734                    24035650.422
 106673449.762 8  83122269.659 8  20299254.375                    20299262.578
 112914655.615 8  87985603.57646  21486930.656                    21486937.395
 113691959.788 8  88591282.290 7  21634880.875                    21634891.219
 114243796.366 8  89021247.91645  21739876.813                    21739885.297
 11  8 24  1 49  0.0000000  0  8G10G12G29G26G05G02G25G30
 122065548.188 7  95116170.34543  23228275.641                    23228284.000
 111573068.762 8  86940170.779 7  21231647.656                    21231656.117
 120706755.355 7  94057344.121 7  22969750.547                    22969759.281
 126213432.105 6  98348114.03743  24017597.352                    24017608.117
 106688797.911 8  83134229.259 8  20302175.336                    20302183.051
 112950352.589 8  88013419.40146  21493724.117                    21493730.289
 113679154.226 8  88581303.937 7  21632444.398                    21632454.785
 114240807.327 8  89018918.79145  21739307.742                    21739316.461
 11  8 24  1 49 30.0000000  0  8G10G12G29G26G05G02G25G30
 122166483.819 7  95194821.49143  23247482.805                    23247491.512
 111624655.549 8  86980368.271 7  21241464.227                    21241472.543
 120623625.784 7  93992567.888 7  22953930.961                    22953940.277
 126118620.801 6  98274235.17943  23999555.273                    23999566.027
 106704690.471 8  83146613.086 8  20305199.281                    20305206.887
 112986137.773 8  88041303.96346  21500533.258                    21500539.750
 113666927.031 8  88571776.243 7  21630117.477                    21630128.543
 114238417.623 8  89017056.68745  21738852.773                    21738861.520
 11  8 24  1 50  0.0000000  0  8G10G12G29G26G05G02G25G30
 122267628.503 7  95273635.52943  23266729.938                    23266738.477
 111676722.371 8  87020939.802 7  21251372.453                    21251380.766
 120540532.264 7  93927819.727 7  22938119.117                    22938128.641
 126023809.894 6  98200356.68043  23981513.703                    23981523.953
 106721126.326 8  83159420.262 8  20308326.977                    20308335.137
 113022010.517 8  88069256.75746  21507359.898                    21507365.980
 113655278.094 8  88562699.154 7  21627900.891                    21627911.117
 114236626.472 8  89015660.98445  21738511.695                    21738521.020
 11  8 24  1 50 30.0000000  0  8G10G12G29G26G05G02G25G30
 122368979.582 7  95352610.41443  23286016.008                    23286024.422
 111729267.335 8  87061883.922 7  21261371.578                    21261379.254
 120457476.445 7  93863100.924 7  22922313.617                    22922323.520
 125929003.007 6  98126481.30043  23963472.297                    23963482.641
 106738104.475 8  83172650.002 8  20311557.813                    20311565.785
 113057970.906 8  88097277.83645  21514203.242                    21514209.125
 113644207.839 8  88554073.002 7  21625794.172                    21625804.809
 114235433.721 8  89014731.56945  21738284.945                    21738294.434
 11  8 24  1 51  0.0000000  0  8G10G12G29G26G05G02G25G30
 122470533.860 6  95431743.60343  23305341.398                    23305349.980
 111782288.020 8  87103198.732 7  21271460.680                    21271468.234
 120374459.697 7  93798412.552 6  22906517.008                    22906525.605
 125834203.021 6  98052611.27843  23945431.656                    23945442.336
 106755622.888 8  83186300.734 8  20314891.531                    20314899.340
 113094018.073 8  88125366.54746  21521062.617                    21521068.445
 113633715.927 8  88545897.500 7  21623797.219                    21623808.133
 114234838.554 8  89014267.79445  21738171.398                    21738180.785
 11  8 24  1 51 30.0000000  0  8G10G12G29G26G05G02G25G30
 122572288.910 6  95511033.21043  23324704.805                    23324714.395
 111835782.791 8  87144882.953 7  21281640.625                    21281648.676
 120291484.061 7  93733756.221 6  22890726.766                    22890735.543
 125739413.358 6  97978749.33343  23927393.734                    23927404.789
 106773680.826 8  83200371.869 8  20318327.680                    20318335.125
 113130152.055 8  88153522.89746  21527938.898                    21527944.770
 113623802.724 8  88538172.920 7  21621911.055                    21621921.559
 114234840.675 8  89014269.45645  21738172.242                    21738181.141
 11  8 24  1 52  0.0000000  0  8G10G12G29G26G05G02G25G30
 122674242.121 7  95590477.22844  23344106.281                    23344115.078
 111889748.727 8  87186934.316 7  21291909.648                    21291918.340
 120208551.170 7  93669133.205 6  22874945.125                    22874954.250
 125644637.565 6  97904898.15543  23909359.086                    23909369.070
 106792277.150 8  83214862.531 8  20321866.367                    20321874.211
 113166372.542 8  88181746.65546  21534831.195                    21534837.117
 113614468.162 8  88530899.251 7  21620134.586                    21620144.828
 114235439.425 7  89014736.02445  21738285.664                    21738294.852
 11  8 24  1 52 30.0000000  0  8G10G12G29G26G05G02G25G30
 122776390.355 7  95670073.21844  23363544.273                    23363553.746
 111944183.938 8  87229351.352 7  21302268.633                    21302276.707
 120125662.930 7  93604544.969 6  22859171.922                    22859180.898
 125549878.823 6  97831060.28543  23891327.203                    23891337.383
 106811410.658 8  83229771.771 8  20325507.281                    20325515.270
 113202679.585 8  88210037.84845  21541740.414                    21541746.273
 113605712.397 8  88524076.584 7  21618468.656                    21618479.375
 114236634.368 8  89015667.14145  21738513.523                    21738522.133
 11  8 24  1 53  0.0000000  0  8G10G12G29G26G05G02G25G30
 122878730.542 7  95749818.80144  23383018.859                    23383028.617
 111999085.904 8  87272132.086 7  21312716.438                    21312724.371
 120042820.453 7  93539992.380 6  22843407.477                    22843416.441
 125455140.427 7  97757238.27643  23873299.547                    23873309.637
 106831079.223 8  83245097.936 8  20329250.297                    20329258.117
 113239072.113 8  88238395.65846  21548665.656                    21548671.840
 113597534.932 8  88517704.541 7  21616912.563                    21616923.133
 114238424.381 8  89017061.97045  21738854.070                    21738862.145
 11  8 24  1 53 30.0000000  0  8G10G12G29G26G05G02G25G30
 122981260.308 7  95829712.12444  23402529.563                    23402539.207
 112054452.944 8  87315275.223 7  21323252.063                    21323260.012
 119960025.899 7  93475477.164 6  22827651.797                    22827661.172
 125360425.884 6  97683434.85244  23855275.070                    23855285.520
 106851282.197 8  83260840.523 8  20333094.609                    20333102.641
 113275550.773 8  88266820.59246  21555607.164                    21555613.398
 113589936.243 8  88511783.498 7  21615466.352                    21615477.336
 114240809.452 8  89018920.47345  21739307.984                    21739316.191
 11  8 24  1 54  0.0000000  0  8G10G12G29G26G05G02G25G30
 123083976.557 7  95909750.76144  23422075.750                    23422085.578
 112110282.302 7  87358778.603 7  21333876.195                    21333884.113
 119877280.665 7  93411000.368 6  22811906.359                    22811914.738
 125265738.400 6  97609652.51143  23837256.617                    23837267.008
 106872017.605 8  83276998.001 8  20337040.445                    20337048.414
 113312114.693 7  88295311.95746  21562564.875                    21562570.551
 113582915.811 8  88506313.035 7  21614130.609                    21614141.266
 114243788.313 8  89021241.66945  21739874.984                    21739883.703
 11  8 24  1 54 30.0000000  0  8G10G12G29G26G05G02G25G30
 123186876.871 6  95989932.78243  23441656.898                    23441667.066
 112166571.691 8  87402640.445 7  21344587.531                    21344595.641
 119794586.994 7  93346563.765 6  22796170.078                    22796178.602
 125171081.415 6  97535893.93043  23819243.695                    23819254.109
 106893284.474 8  83293569.606 8  20341087.242                    20341095.277
 113348763.760 8  88323869.66146  21569539.172                    21569545.285
 113576473.860 8  88501293.348 7  21612904.570                    21612915.297
 114247360.745 8  89024025.39545  21740554.594                    21740563.074
 11  8 24  1 55  0.0000000  0  8G10G12G29G26G05G02G25G30
 123289958.761 6  96070256.31843  23461272.453                    23461281.980
 112223319.073 7  87446859.175 7  21355386.117                    21355394.090
 119711946.316 7  93282168.454 6  22780444.313                    22780453.012
 125076458.324 6  97462161.74743  23801237.547                    23801247.594
 106915081.597 8  83310554.392 8  20345235.164                    20345242.914
 113385498.068 8  88352493.78546  21576529.672                    21576535.633
 113570610.259 8  88496724.306 7  21611789.102                    21611799.516
 114251525.976 8  89027271.04045  21741347.055                    21741355.883
 11  8 24  1 55 30.0000000  0  8G10G12G29G26G05G02G25G30
 123393219.089 6  96150718.88043  23480921.883                    23480932.195
 112280521.861 7  87491432.757 7  21366271.922                    21366279.457
 119629360.200 7  93217815.676 6  22764728.578                    22764737.277
 124981872.524 6  97388458.58943  23783238.063                    23783248.902
 106937407.099 8  83327950.895 8  20349483.734                    20349491.480
 113422317.186 7  88381184.00246  21583535.703                    21583542.188
 113565324.567 8  88492605.604 7  21610783.203                    21610793.918
 114256282.897 7  89030977.76045  21742252.039                    21742261.004
 11  8 24  1 56  0.0000000  0  8G10G12G29G26G05G02G25G30
 123496654.640 6  96231317.98343  23500605.836                    23500614.645
 112338177.888 7  87536359.521 7  21377243.016                    21377251.258
 119546830.648 7  93153506.974 7  22749023.336                    22749032.941
 124887327.313 6  97314787.07244  23765247.898                    23765256.828
 106960259.376 8  83345757.882 8  20353832.195                    20353840.012
 113459220.595 8  88409939.91745  21590558.313                    21590564.457
 113560616.622 8  88488937.084 7  21609887.289                    21609898.270
 114261630.783 7  89035144.93045  21743269.742                    21743279.641
 11  8 24  1 56 30.0000000  0  8G10G12G29G26G05G02G25G30
 123600263.042 7  96312051.76943  23520321.883                    23520330.879
 112396284.518 7  87581637.392 7  21388300.633                    21388308.891
 119464359.269 7  93089243.610 7  22733330.102                    22733339.125
 124792826.046 6  97241149.84343  23747265.000                    23747274.418
 106983637.151 8  83363974.331 8  20358281.156                    20358288.676
 113496208.295 8  88438761.49646  21597596.688                    21597602.895
 113556486.214 8  88485718.577 7  21609101.148                    21609112.293
 114267568.850 8  89039772.00545  21744400.102                    21744408.707
 11  8 24  1 57  0.0000000  0  9G15G10G12G29G26G05G02G25G30
 129445514.08516                  24632671.828
 123704041.377 7  96392917.98143  23540070.578                    23540079.184
 112454839.518 7  87627264.643 7  21399443.578                    21399451.125
 119381947.609 7  93025026.784 7  22717647.586                    22717656.445
 124698372.064 6  97167549.42643  23729289.813                    23729299.980
 107007538.613 8  83382598.869 8  20362829.141                    20362837.082
 113533279.786 8  88467648.36246  21604651.281                    21604657.664
 113552932.999 7  88482949.840 7  21608425.078                    21608435.809
 114274096.174 8  89044858.24145  21745642.305                    21745651.383
 11  8 24  1 57 30.0000000  0  9G15G10G12G29G26G05G02G25G30
 129352821.601 6 100794464.26316  24615032.820                    24615044.125
 123807987.279 7  96473914.77243  23559850.867                    23559859.676
 112513840.542 7  87673239.458 7  21410670.766                    21410678.730
 119299597.687 7  92960858.059 7  22701976.664                    22701986.340
 124603968.743 6  97093988.50543  23711325.516                    23711335.281
 107031962.355 8  83401630.367 8  20367476.859                    20367484.535
 113570435.046 8  88496600.51546  21611721.828                    21611727.906
 113549956.789 8  88480630.718 7  21607858.555                    21607869.375
 114281211.900 8  89050402.96245  21746996.563                    21747005.133
 11  8 24  1 58  0.0000000  0  9G15G10G12G29G26G05G02G25G30
 129259995.088 6 100722132.050 6  24597367.547                    24597379.531
 123912097.725 7  96555039.75143  23579662.734                    23579671.402
 112573285.170 7  87719559.923 7  21421982.914                    21421990.652
 119217311.742 7  92896739.202 7  22686317.898                    22686327.590
 124509619.965 6  97020470.05043  23693371.305                    23693381.824
 107056907.060 8  83421067.811 8  20372223.445                    20372231.332
 113607673.958 8  88525617.84846  21618808.094                    21618814.434
 113547557.488 8  88478761.137 7  21607402.016                    21607412.523
 114288915.401 8  89056405.67945  21748462.484                    21748471.191
 11  8 24  1 58 30.0000000  0  9G15G10G12G29G26G05G02G25G30
 129167037.284 6 100649697.535 6  24579678.063                    24579690.508
 124016370.243 7  96636291.05643  23599504.234                    23599514.367
 112633171.394 8  87766224.490 7  21433378.992                    21433386.840
 119135091.149 7  92832671.269 6  22670671.773                    22670680.320
 124415329.307 6  96946996.87943  23675428.320                    23675439.188
 107082371.427 8  83440910.192 8  20377069.148                    20377076.996
 113644996.760 8  88554700.53046  21625910.406                    21625916.355
 113545734.938 8  88477340.964 7  21607055.477                    21607066.422
 114297205.834 7  89062865.76245  21750039.719                    21750048.680
 11  8 24  1 59  0.0000000  0  9G15G10G12G29G26G05G02G25G30
 129073950.148 6 100577162.243 6  24561964.398                    24561976.277
 124120802.132 7  96717666.51943  23619376.789                    23619386.473
 112693496.270 8  87813230.886 7  21444858.375                    21444866.375
 119052937.749 7  92768655.678 6  22655038.914                    22655047.156
 124321099.847 6  96873571.40343  23657496.688                    23657507.375
 107108353.758 8  83461156.168 8  20382013.555                    20382021.727
 113682402.830 8  88583848.12245  21633028.422                    21633034.660
 113544488.502 8  88476369.702 7  21606818.047                    21606828.660
 114306082.107 7  89069782.33145  21751728.961                    21751737.559
 11  8 24  1 59 30.0000000  0  9G15G10G12G29G26G05G02G25G30
 128980736.229 6 100504528.157 6  24544226.625                    24544237.836
 124225390.556 7  96799163.94844  23639280.141                    23639289.621
 112754257.349 7  87860577.157 7  21456420.539                    21456429.086
 118970853.226 7  92704693.759 7  22639418.258                    22639426.895
 124226934.926 6  96800196.19143  23639577.859                    23639588.133
 107134852.260 8  83481804.365 8  20387056.367                    20387063.934
 113719891.803 7  88613060.31346  21640162.047                    21640168.660
 113543817.699 8  88475847.007 7  21606690.086                    21606700.863
 114315542.964 7  89077154.44345  21753529.289                    21753538.023
 11  8 24  2  0  0.0000000  0  9G15G10G12G29G26G05G02G25G30
 128887397.733 6 100431797.016 6  24526464.313                    24526476.277
 124330132.436 6  96880780.99243  23659211.914                    23659221.324
 112815452.218 7  87908261.441 7  21468065.531                    21468073.605
 118888839.518 7  92640787.021 7  22623811.836                    22623820.711
 124132837.908 6  96726873.91444  23621671.984                    23621682.648
 107161865.040 8  83502853.286 8  20392196.516                    20392204.387
 113757463.860 8  88642337.23345  21647312.070                    21647318.250
 113543722.218 8  88475772.597 7  21606672.453                    21606683.246
 114325587.542 7  89084981.36645  21755440.758                    21755449.305
 11  8 24  2  0 30.0000000  0  9G15G10G12G29G26G05G02G25G30
 128793937.043 6 100358970.651 6  24508679.250                    24508690.473
 124435025.080 7  96962515.48243  23679171.555                    23679181.531
 112877077.974 7  87956281.496 7  21479792.586                    21479800.539
 118806898.433 7  92576936.863 7  22608218.852                    22608228.309
 124038812.097 6  96653607.19344  23603779.391                    23603790.035
 107189390.217 7  83524301.487 8  20397434.266                    20397442.629
 113795118.286 8  88671678.34846  21654477.734                    21654483.938
 113544201.272 8  88476145.879 7  21606763.211                    21606774.012
 114336214.489 7  89093262.10645  21757463.273                    21757472.055
 11  8 24  2  1  0.0000000  0  9G15G10G12G29G26G05G02G25G30
 128700357.343 6 100286051.525 6  24490872.000                    24490882.980
 124540066.102 6  97044365.60443  23699160.219                    23699170.379
 112939132.525 7  88004635.674 7  21491601.063                    21491609.719
 118725031.709 7  92513144.633 7  22592640.320                    22592649.219
 123944861.251 6  96580398.85344  23585900.930                    23585911.297
 107217426.577 7  83546148.012 8  20402769.516                    20402777.645
 113832855.295 8  88701083.80946  21661658.648                    21661665.043
 113545254.758 8  88476966.765 7  21606964.055                    21606973.770
 114347423.067 8  89101996.04445  21759595.969                    21759604.809
 11  8 24  2  1 30.0000000  0  9G15G10G12G29G26G05G02G25G30
 128606660.744 6 100213041.337 6  24473042.656                    24473052.770
 124645252.792 6  97126329.20943  23719177.188                    23719187.004
 113001613.398 8  88053322.041 7  21503490.625                    21503499.184
 118643241.218 7  92449411.811 7  22577076.250                    22577084.383
 123850988.853 6  96507251.61944  23568037.563                    23568048.262
 107245972.431 8  83568391.541 8  20408201.500                    20408209.133
 113870674.785 8  88730553.55446  21668855.703                    21668861.453
 113546882.052 8  88478234.790 7  21607273.703                    21607284.152
 114359212.083 8  89111182.29045  21761839.578                    21761848.004
 11  8 24  2  2  0.0000000  0  9G15G10G12G29G26G05G02G25G30
 128512849.831 6 100139942.086 5  24455190.563                    24455200.512
 124750582.349 6  97208404.20543  23739219.844                    23739230.648
 113064517.892 8  88102338.512 7  21515461.063                    21515469.512
 118561528.880 7  92385739.882 7  22561526.500                    22561535.867
 123757198.377 6  96434168.24143  23550189.711                    23550200.230
 107275026.051 8  83591030.736 8  20413730.586                    20413738.035
 113908576.217 8  88760087.14745  21676067.727                    21676073.824
 113549082.573 8  88479949.476 7  21607692.438                    21607703.242
 114371580.344 8  89120819.89945  21764192.938                    21764201.492
 11  8 24  2  2 30.0000000  0  9G15G10G12G29G26G05G02G25G30
 128418927.264 6 100066755.797 5  24437317.172                    24437327.301
 124856052.169 7  97290588.49643  23759290.930                    23759300.148
 113127843.929 8  88151683.471 7  21527511.680                    21527519.633
 118479896.464 7  92322130.231 7  22545992.453                    22546001.180
 123663493.354 6  96361151.42843  23532357.891                    23532368.551
 107304585.757 8  83614064.276 8  20419355.102                    20419363.172
 113946559.971 8  88789684.87645  21683295.813                    21683302.410
 113551856.039 8  88482110.603 7  21608219.859                    21608231.195
 114384526.898 8  89130908.10545  21766656.695                    21766664.969
 11  8 24  2  3  0.0000000  0  9G15G10G12G29G26G05G02G25G30
 128324895.302 6  99993484.298 5  24419422.273                    24419433.438
 124961659.676 7  97372880.04544  23779387.523                    23779397.664
 113191588.407 8  88201354.480 7  21539642.484                    21539650.008
 118398346.151 7  92258584.573 7  22530473.453                    22530482.859
 123569877.275 7  96288203.91544  23514543.219                    23514553.844
 107334649.883 8  83637490.870 8  20425076.523                    20425084.023
 113984625.732 8  88819346.51345  21690539.531                    21690545.840
 113555201.835 7  88484717.705 7  21608856.961                    21608867.617
 114398050.597 8  89141446.05545  21769230.031                    21769239.078
 11  8 24  2  3 30.0000000  0  9G15G10G12G29G26G05G02G25G30
 128230756.792 6  99920129.757 5  24401509.023                    24401519.996
 125067402.148 7  97455276.72944  23799510.094                    23799519.488
 113255748.885 7  88251349.640 7  21551851.211                    21551859.547
 118316879.672 7  92195104.267 7  22514970.875                    22514979.766
 123476353.568 7  96215328.38644  23496746.469                    23496756.902
 107365216.531 8  83661309.040 8  20430892.719                    20430900.598
 114022773.441 8  88849072.01545  21697798.914                    21697805.379
 113559119.203 8  88487770.195 7  21609602.188                    21609613.320
 114412150.035 8  89152432.62245  21771913.063                    21771921.750
 11  8 24  2  4  0.0000000  0  9G15G10G12G29G26G05G02G25G30
 128136514.016 6  99846693.957 6  24383575.273                    24383586.699
 125173277.041 6  97537776.63543  23819657.398                    23819667.023
 113320322.921 7  88301667.049 7  21564139.281                    21564147.527
 118235498.743 7  92131690.627 6  22499484.664                    22499493.270
 123382925.810 7  96142527.61444  23478967.914                    23478977.855
 107396283.954 8  83685517.431 8  20436805.141                    20436812.852
 114061002.859 7  88878861.17945  21705074.008                    21705079.301
 113563607.664 8  88491267.674 7  21610456.578                    21610467.531
 114426824.143 8  89163866.99845  21774705.266                    21774714.219
 11  8 24  2  4 30.0000000  0  9G15G10G12G29G26G05G02G25G30
 128042169.683 6  99773179.003 6  24365622.570                    24365633.891
 125279281.339 6  97620377.32343  23839828.539                    23839838.949
 113385307.527 7  88352304.400 7  21576505.656                    21576513.969
 118154205.471 7  92068345.278 6  22484015.219                    22484023.363
 123289597.431 7  96069804.30844  23461207.953                    23461218.047
 107427850.461 8  83710114.706 8  20442811.852                    20442819.820
 114099313.801 7  88908713.88145  21712363.922                    21712369.645
 113568666.445 8  88495209.591 7  21611419.063                    21611429.453
 114442071.617 8  89175748.13345  21777607.320                    21777615.711
 11  8 24  2  5  0.0000000  0  9G15G10G12G29G26G05G02G25G30
 127947726.279 7  99699586.855 6  24347651.102                    24347660.984
 125385412.268 6  97703076.67443  23860024.148                    23860035.230
 113450700.064 8  88403259.590 7  21588949.578                    21588957.703
 118073001.574 7  92005069.568 6  22468562.688                    22468570.520
 123196371.778 7  95997161.02144  23443467.859                    23443477.707
 107459913.785 8  83735099.116 8  20448913.078                    20448921.066
 114137706.047 7  88938629.92645  21719669.766                    21719676.051
 113574294.685 8  88499595.221 7  21612489.930                    21612501.184
 114457890.853 8  89188074.82345  21780617.055                    21780626.207
 11  8 24  2  5 30.0000000  0  9G15G10G12G29G26G05G02G25G30
 127853186.523 7  99625919.624 6  24329659.977                    24329670.297
 125491667.634 6  97785872.99143  23880244.625                    23880254.746
 113516498.713 8  88454531.258 7  21601470.773                    21601478.590
 117991889.126 7  91941865.106 6  22453127.977                    22453135.449
 123103252.749 7  95924600.85744  23425747.641                    23425757.945
 107492472.788 8  83760469.765 8  20455109.266                    20455117.105
 114176179.757 7  88968609.43745  21726991.242                    21726997.051
 113580492.016 8  88504424.298 7  21613669.203                    21613680.176
 114474281.050 8  89200846.38745  21783736.172                    21783744.699
 11  8 24  2  6  0.0000000  0  9G15G10G12G29G26G05G02G25G30
 127758553.054 6  99552179.372 6  24311651.703                    24311662.320
 125598044.731 6  97868764.17643  23900487.586                    23900497.379
 113582700.413 7  88506116.992 7  21614068.219                    21614076.840
 117910870.132 7  91878733.485 6  22437709.867                    22437718.277
 123010243.829 7  95852126.43044  23408048.922                    23408059.020
 107525525.690 8  83786225.283 8  20461398.938                    20461406.840
 114214734.933 7  88998652.44245  21734327.961                    21734333.684
 113587257.709 8  88509696.269 7  21614956.602                    21614967.813
 114491240.717 8  89214061.71945  21786963.516                    21786972.355
 11  8 24  2  6 30.0000000  0  9G15G10G12G29G26G05G02G25G30
 127663828.132 6  99478367.891 6  24293625.031                    24293636.613
 125704540.869 7  97951748.16243  23920753.539                    23920762.273
 113649302.212 7  88558014.472 7  21626742.313                    21626750.328
 117829946.354 7  91815676.102 7  22422310.563                    22422319.113
 122917348.116 7  95779740.23444  23390371.031                    23390380.957
 107559069.886 8  83812363.608 8  20467782.000                    20467789.840
 114253371.355 8  89028758.75345  21741680.125                    21741685.867
 113594590.736 8  88515410.303 7  21616352.109                    21616363.086
 114508768.294 8  89227719.56945  21790298.648                    21790307.676
 11  8 24  2  7  0.0000000  0  9G15G10G12G29G26G05G02G25G30
 127569014.921 6  99404487.601 6  24275583.719                    24275594.719
 125811153.485 6  98034822.89843  23941041.359                    23941049.844
 113716301.758 7  88610221.887 7  21639492.000                    21639500.086
 117749120.008 7  91752694.602 7  22406929.883                    22406938.750
 122824569.969 6  95707445.67344  23372715.977                    23372725.980
 107593104.386 8  83838884.001 8  20474258.734                    20474266.277
 114292089.047 8  89058928.41145  21749047.688                    21749053.641
 113602490.733 8  88521566.142 7  21617855.648                    21617866.488
 114526862.767 8  89241819.14245  21793742.477                    21793751.113
 11  8 24  2  7 30.0000000  0  9G15G10G12G29G26G05G02G25G30
 127474115.629 7  99330540.220 6  24257525.148                    24257536.008
 125917879.956 6  98117986.45143  23961350.344                    23961358.617
 113783696.373 7  88662737.150 7  21652316.469                    21652325.188
 117668392.962 7  91689790.481 7  22391568.086                    22391576.484
 122731912.268 7  95635244.93844  23355083.289                    23355093.305
 107627626.797 8  83865784.592 8  20480828.000                    20480835.660
 114330887.858 8  89089161.25645  21756430.852                    21756437.516
 113610956.619 8  88528162.923 7  21619466.031                    21619476.875
 114545522.516 8  89256359.20345  21797292.992                    21797301.734
 11  8 24  2  8  0.0000000  0  9G15G10G12G29G26G05G02G25G30
 127379133.201 7  99256528.067 6  24239450.680                    24239460.465
 126024717.737 6  98201236.65143  23981681.242                    23981690.117
 113851483.318 7  88715558.119 7  21665215.750                    21665223.801
 117587767.108 7  91626965.225 7  22376225.063                    22376234.027
 122639378.907 7  95563141.09944  23337475.289                    23337485.164
 107662635.588 8  83893064.180 8  20487489.922                    20487497.352
 114369767.822 7  89119457.33045  21763829.883                    21763835.855
 113619987.788 8  88535200.178 7  21621185.234                    21621195.840
 114564746.311 8  89271338.76645  21800951.570                    21800960.285
 11  8 24  2  8 30.0000000  0  9G15G10G12G29G26G05G02G25G30
 127284069.895 6  99182452.900 6  24221360.406                    24221369.758
 126131664.097 7  98284571.43843  24002032.805                    24002041.383
 113919659.867 7  88768682.692 7  21678189.594                    21678197.465
 117507244.132 7  91564220.118 7  22360902.688                    22360911.148
 122546973.109 7  95491136.65244  23319890.719                    23319900.789
 107698128.274 8  83920720.826 8  20494243.625                    20494251.410
 114408728.521 7  89149816.32645  21771243.430                    21771250.160
 113629583.005 8  88542676.950 7  21623011.281                    21623022.125
 114584532.211 8  89286756.34945  21804716.586                    21804725.504
 11  8 24  2  9  0.0000000  0  9G15G10G12G29G26G05G02G25G30
 127188928.442 6  99108316.842 6  24203254.742                    24203265.320
 126238716.321 7  98367988.78143  24022403.125                    24022412.609
 113988223.139 7  88822108.599 7  21691236.773                    21691245.348
 117426826.525 7  91501557.125 7  22345598.711                    22345608.176
 122454698.766 7  95419234.65144  23302331.258                    23302341.754
 107734103.163 7  83948753.216 8  20501089.477                    20501097.152
 114447770.275 7  89180238.47145  21778672.906                    21778678.793
 113639741.556 8  88550592.697 7  21624944.367                    21624954.871
 114604879.142 8  89302611.07145  21808588.453                    21808597.137
 11  8 24  2  9 30.0000000  0  9G15G10G12G29G26G05G02G25G30
 127093711.938 6  99034122.313 6  24185135.797                    24185145.887
 126345872.236 6  98451486.86143  24042794.203                    24042804.309
 114057170.486 7  88875833.779 7  21704356.922                    21704365.316
 117346516.047 7  91438977.592 7  22330316.461                    22330325.676
 122362559.501 7  95347437.90244  23284797.633                    23284808.000
 107770558.783 8  83977160.202 8  20508027.242                    20508034.922
 114486892.999 7  89210723.71745  21786118.164                    21786123.715
 113650462.779 8  88558946.865 7  21626984.898                    21626994.977
 114625785.608 8  89318901.81145  21812566.656                    21812575.508
 11  8 24  2 10  0.0000000  0  9G15G10G12G29G26G05G02G25G30
 126998422.682 6  98959871.121 6  24167002.680                    24167013.438
 126453129.352 6  98535063.72043  24063204.961                    24063214.922
 114126499.358 7  88929856.261 7  21717549.836                    21717558.477
 117266314.823 7  91376483.186 7  22315054.867                    22315063.480
 122270558.646 7  95275748.98444  23267290.227                    23267300.703
 107807492.928 8  84005940.080 8  20515055.438                    20515063.691
 114526096.774 7  89241272.12245  21793578.125                    21793584.176
 113661745.533 8  88567738.608 7  21629131.648                    21629141.582
 114647250.036 8  89335627.31245  21816651.539                    21816660.195
 11  8 24  2 10 30.0000000  0  9G15G10G12G29G26G05G02G25G30
 126903063.342 6  98885565.299 6  24148856.492                    24148866.754
 126560484.973 6  98618717.41943  24083633.953                    24083643.750
 114196206.956 8  88984173.860 7  21730814.883                    21730822.855
 117186224.759 7  91314075.404 7  22299813.797                    22299822.539
 122178700.116 7  95204170.97743  23249810.070                    23249820.102
 107844903.565 7  84035091.240 8  20522174.250                    20522182.074
 114565381.598 7  89271883.68145  21801053.125                    21801059.613
 113673588.950 8  88576967.223 7  21631385.305                    21631395.816
 114669270.851 8  89352786.37545  21820841.445                    21820850.520
 11  8 24  2 11  0.0000000  0  9G15G10G12G29G26G05G02G25G30
 126807636.510 6  98811206.865 6  24130697.211                    24130708.242
 126667936.438 6  98702445.75343  24104081.594                    24104091.063
 114266290.937 7  89038784.753 7  21744151.391                    21744159.688
 117106248.036 7  91251755.935 7  22284595.086                    22284603.277
 122086987.060 7  95132706.31244  23232358.375                    23232367.309
 107882788.620 8  84064612.071 8  20529383.813                    20529391.043
 114604747.157 7  89302558.13545  21808544.375                    21808551.016
 113685991.863 8  88586631.810 7  21633745.664                    21633756.332
 114691846.378 8  89370377.66345  21825137.883                    21825146.508
 11  8 24  2 11 30.0000000  0  9G15G10G12G29G26G05G02G25G30
 126712145.032 6  98736798.074 6  24112525.664                    24112535.988
 126775481.368 6  98786246.96744  24124547.078                    24124556.844
 114336747.943 7  89093686.294 7  21757559.102                    21757567.234
 117026386.366 7  91189526.116 7  22269397.453                    22269406.383
 121995423.437 7  95061358.12844  23214934.258                    23214943.957
 107921146.334 8  84094501.213 8  20536682.570                    20536690.602
 114644193.575 7  89333295.60645  21816050.883                    21816056.961
 113698953.475 8  88596731.771 7  21636211.539                    21636223.016
 114714975.115 8  89388400.03345  21829538.547                    21829547.449
 11  8 24  2 12  0.0000000  0  9G15G10G12G29G26G05G02G25G30
 126616591.582 6  98662340.973 6  24094341.688                    24094352.121
 126883116.964 6  98870118.83843  24145029.219                    24145038.664
 114407575.271 7  89148876.414 7  21771037.281                    21771045.168
 116946642.086 7  91127387.757 7  22254223.539                    22254231.801
 121904012.846 7  94990129.18144  23197539.094                    23197549.359
 107959974.560 7  84124756.993 8  20544071.313                    20544079.086
 114683721.037 7  89364096.22245  21823572.906                    21823579.148
 113712472.754 8  88607266.252 7  21638784.617                    21638795.461
 114738655.529 8  89406852.28745  21834045.109                    21834053.652
 11  8 24  2 12 30.0000000  0  9G15G10G12G29G26G05G02G25G30
 126520978.943 6  98587837.741 6  24076147.234                    24076157.262
 126990840.741 6  98954059.35543  24165527.703                    24165537.605
 114478770.244 7  89204353.001 7  21784584.609                    21784593.477
 116867016.863 7  91065342.165 7  22239070.672                    22239079.773
 121812758.813 7  94919022.20644  23180174.516                    23180183.930
 107999271.148 8  84155377.712 8  20551549.211                    20551556.816
 114723329.317 7  89394959.80945  21831110.070                    21831115.668
 113726548.516 8  88618234.369 7  21641463.234                    21641473.750
 114762885.801 8  89425732.99145  21838655.969                    21838664.527
 11  8 24  2 13  0.0000000  0  9G15G10G12G29G26G05G02G25G30
 126425309.999 7  98513290.646 6  24057942.680                    24057952.629
 127098650.594 6  99038067.01143  24186044.055                    24186053.695
 114550330.279 7  89260114.062 7  21798202.234                    21798210.625
 116787513.214 7  91003391.309 7  22223941.406                    22223950.664
 121721665.150 7  94848040.20244  23162839.602                    23162849.188
 108039034.825 8  84186362.422 8  20559116.055                    20559123.996
 114763018.707 7  89425886.60545  21838662.336                    21838669.156
 113741179.953 8  88629635.476 7  21644247.227                    21644258.445
 114787664.585 8  89445041.12245  21843371.289                    21843380.027
 11  8 24  2 13 30.0000000  0  9G15G10G12G29G26G05G02G25G30
 126329586.947 7  98438701.389 6  24039726.898                    24039737.285
 127206543.558 6  99122139.44543  24206574.859                    24206584.938
 114622252.227 7  89316157.129 7  21811888.344                    21811896.746
 116708132.803 7  90941536.475 7  22208835.961                    22208844.887
 121630734.756 7  94777185.41444  23145535.375                    23145545.738
 108079262.507 7  84217708.681 8  20566771.195                    20566779.176
 114802788.672 7  89456876.17945  21846230.578                    21846236.781
 113756365.430 8  88641468.309 7  21647136.883                    21647147.699
 114812989.574 8  89464774.86245  21848190.758                    21848199.137
 11  8 24  2 14  0.0000000  0  9G15G10G12G29G26G05G02G25G30
 126233812.770 7  98364072.266 6  24021501.430                    24021512.344
 127314517.600 6  99206275.02942  24227121.484                    24227131.691
 114694533.343 7  89372480.064 7  21825643.469                    21825651.219
 116628877.787 7  90879779.337 7  22193754.375                    22193763.000
 121539971.787 7  94706461.07644  23128263.742                    23128273.770
 108119952.656 8  84249415.319 8  20574514.469                    20574522.043
 114842639.589 7  89487928.84845  21853813.914                    21853820.344
 113772104.092 8  88653732.199 7  21650132.125                    21650142.570
 114838859.379 8  89484933.13945  21853113.406                    21853122.500
 11  8 24  2 14 30.0000000  0  9G15G10G12G29G26G05G02G25G30
 126137990.132 7  98289405.391 6  24003267.164                    24003278.164
 127422569.899 6  99290471.66342  24247683.414                    24247692.738
 114767170.797 7  89429080.681 7  21839465.906                    21839473.926
 116549750.193 7  90818121.472 7  22178696.984                    22178705.984
 121449379.743 7  94635869.95344  23111024.984                    23111034.992
 108161102.994 8  84281480.530 8  20582345.094                    20582352.750
 114882571.395 7  89519044.55745  21861412.750                    21861419.078
 113788394.718 8  88666426.199 7  21653231.953                    21653242.781
 114865272.173 8  89505514.51745  21858139.438                    21858148.680
 11  8 24  2 15  0.0000000  0  9G15G10G12G29G26G05G02G25G30
 126042121.830 6  98214702.915 6  23985024.078                    23985034.461
 127530697.922 6  99374727.22643  24268259.195                    24268269.879
 114840161.853 7  89485956.821 7  21853355.508                    21853364.117
 116470752.339 7  90756564.711 7  22163664.094                    22163673.059
 121358962.350 7  94565414.90944  23093819.320                    23093828.992
 108202711.563 7  84313902.809 8  20590262.664                    20590270.348
 114922584.086 7  89550223.26445  21869027.102                    21869032.949
 113805236.239 8  88679549.467 7  21656436.953                    21656447.313
 114892226.339 8  89526517.74145  21863268.414                    21863277.559
 11  8 24  2 15 30.0000000  0  9G15G10G12G29G26G05G02G25G30
 125946210.782 7  98139967.141 6  23966772.203                    23966782.879
 127638899.374 6  99459040.04642  24288849.492                    24288859.605
 114913503.806 7  89543106.382 7  21867311.648                    21867320.348
 116391886.171 7  90695110.566 7  22148656.164                    22148664.758
 121268723.383 7  94495098.92644  23076646.875                    23076656.336
 108244776.434 8  84346680.639 8  20598267.734                    20598274.871
 114962677.955 7  89581465.21745  21876656.992                    21876662.887
 113822627.410 8  88693101.031 7  21659746.508                    21659757.313
 114919719.986 8  89547941.34345  21868500.547                    21868509.242
 11  8 24  2 16  0.0000000  0  9G15G10G12G29G26G05G02G25G30
 125850259.946 7  98065200.390 6  23948513.398                    23948524.258
 127747171.712 6  99543408.09543  24309452.430                    24309461.988
 114987193.747 7  89600527.097 7  21881334.695                    21881342.992
 116313153.927 7  90633760.786 7  22133673.688                    22133682.531
 121178666.278 7  94424924.64344  23059509.742                    23059518.973
 108287295.624 8  84379812.502 8  20606358.719                    20606366.051
 115002853.028 7  89612770.46845  21884301.609                    21884307.883
 113840567.093 8  88707080.011 7  21663160.250                    21663171.164
 114947751.466 7  89569784.06545  21873834.367                    21873843.504
 11  8 24  2 16 30.0000000  0  9G15G10G12G29G26G05G02G25G30
 125754271.685 7  97990404.497 6  23930247.188                    23930257.820
 127855512.498 6  99627829.40943  24330069.750                    24330078.730
 115061228.547 7  89658216.538 7  21895422.797                    21895431.043
 116234557.680 7  90572516.963 7  22118717.500                    22118726.223
 121088794.768 6  94354894.95244  23042406.953                    23042417.195
 108330266.694 7  84413296.454 8  20614535.953                    20614543.902
 115043109.449 7  89644139.09945  21891962.680                    21891968.406
 113859054.013 8  88721485.414 7  21666677.914                    21666689.008
 114976318.895 7  89592044.39045  21879270.625                    21879280.020
 11  8 24  2 17  0.0000000  0  9G15G10G12G29G26G05G02G25G30
 125658248.661 7  97915581.494 6  23911974.633                    23911984.926
 127963919.275 6  99712302.21343  24350699.180                    24350708.992
 115135605.277 8  89716172.418 7  21909576.711                    21909584.801
 116156099.513 7  90511380.742 7  22103787.172                    22103796.285
 120999112.432 7  94285012.68844  23025341.234                    23025351.582
 108373687.422 8  84447130.806 8  20622798.281                    20622806.008
 115083446.957 7  89675570.92645  21899638.234                    21899644.395
 113878086.759 8  88736316.126 7  21670299.906                    21670310.676
 115005420.239 7  89614720.74845  21884809.023                    21884817.371
 11  8 24  2 17 30.0000000  0  9G15G10G12G29G26G05G02G25G30
 125562194.091 6  97840733.884 6  23893696.070                    23893705.340
 128072389.442 6  99796824.36243  24371340.625                    24371350.332
 115210321.376 8  89774392.733 7  21923794.523                    21923803.266
 116077781.456 7  90450353.700 7  22088884.039                    22088892.719
 120909622.879 7  94215280.63644  23008312.836                    23008321.488
 108417555.693 7  84481313.882 8  20631146.297                    20631154.328
 115123865.740 7  89707066.07045  21907329.711                    21907336.023
 113897664.053 8  88751571.178 7  21674025.250                    21674036.082
 115035053.746 8  89637811.80445  21890447.633                    21890456.695
 11  8 24  2 18  0.0000000  0  9G15G10G12G29G26G05G02G25G30
 125466110.638 7  97765863.775 6  23875411.727                    23875421.215
 128180921.048 6  99881394.36743  24391993.414                    24392003.367
 115285374.252 8  89832875.473 7  21938076.250                    21938085.086
 115999605.883 7  90389437.683 7  22074007.414                    22074016.242
 120820330.031 7  94145701.89344  22991320.086                    22991329.453
 108461869.949 8  84515844.481 8  20639578.914                    20639586.332
 115164366.061 7  89738624.75645  21915036.625                    21915042.988
 113917784.867 8  88767249.741 7  21677854.297                    21677864.918
 115065217.680 7  89661316.15445  21896187.742                    21896196.559
 11  8 24  2 18 30.0000000  0  9G15G10G12G29G26G05G02G25G30
 125370001.054 6  97690973.295 6  23857122.695                    23857132.555
 128289511.412 6  99966010.18943  24412657.188                    24412667.766
 115360760.722 8  89891618.166 7  21952422.500                    21952430.316
 115921574.601 7  90328634.109 7  22059158.469                    22059167.113
 120731237.247 7  94076279.00444  22974366.727                    22974375.461
 108506627.586 8  84550720.566 7  20648096.125                    20648103.566
 115204947.962 8  89770247.02245  21922759.594                    21922765.359
 113938447.531 8  88783350.532 7  21681786.039                    21681797.230
 115095909.903 7  89685232.17445  21902028.758                    21902037.164
 11  8 24  2 19  0.0000000  0  9G15G10G12G29G26G05G02G25G30
 125273867.939 6  97616064.482 6  23838829.070                    23838838.898
 128398158.088 6 100050669.83943  24433332.469                    24433342.512
 115436477.482 8  89950618.221 7  21966830.359                    21966839.020
 115843689.571 7  90267944.513 7  22044337.570                    22044346.070
 120642347.739 7  94007014.55444  22957451.258                    22957460.457
 108551825.967 8  84585940.096 8  20656696.805                    20656704.383
 115245611.015 8  89801932.49545  21930497.219                    21930502.996
 113959650.381 8  88799872.230 7  21685821.070                    21685831.828
 115127128.184 7  89709558.12445  21907969.180                    21907978.281
 11  8 24  2 19 30.0000000  0  9G15G10G12G29G26G05G02G25G30
 125177714.348 7  97541139.717 6  23820530.602                    23820541.883
 128506858.755 6 100135371.63343  24454018.195                    24454027.602
 115512522.130 8  90009873.769 7  21981301.070                    21981309.766
 115765953.678 8  90207371.132 7  22029545.523                    22029553.496
 120553665.981 7  93937911.95644  22940576.281                    22940584.871
 108597463.696 8  84621501.974 8  20665381.266                    20665389.066
 115286355.707 8  89833681.60545  21938250.938                    21938256.477
 113981392.550 8  88816814.202 7  21689958.328                    21689968.617
 115158870.988 7  89734292.77845  21914009.727                    21914018.047
 11  8 24  2 20  0.0000000  0  9G15G10G12G29G26G05G02G25G30
 125081542.941 7  97466201.042 6  23802230.906                    23802240.797
 128615610.813 5 100220113.48243  24474712.375                    24474721.973
 115588891.317 8  90069382.197 7  21995833.938                    21995842.914
 115688368.408 8  90146915.116 7  22014781.125                    22014789.211
 120465195.060 7  93868973.64744  22923740.406                    22923749.938
 108643537.977 8  84657404.013 8  20674149.016                    20674156.637
 115327182.013 8  89865494.30345  21946019.570                    21946025.625
 114003672.235 8  88834174.991 7  21694197.953                    21694208.668
 115191135.995 7  89759434.36645  21920149.367                    21920158.016
 11  8 24  2 20 30.0000000  0  9G15G10G12G29G26G05G02G25G30
 124985356.714 7  97391250.821 6  23783926.875                    23783936.484
 128724412.222 6 100304893.78343  24495415.977                    24495426.719
 115665582.299 8  90129141.387 7  22010427.703                    22010436.281
 115610936.038 7  90086578.256 7  22000046.328                    22000054.609
 120376938.966 7  93800202.71544  22906945.734                    22906955.266
 108690047.016 8  84693644.842 7  20682999.766                    20683007.027
 115368090.262 8  89897370.85845  21953804.289                    21953810.027
 114026488.194 8  88851953.661 7  21698539.695                    21698549.863
 115223921.443 7  89784981.46245  21926388.711                    21926397.234
 11  8 24  2 21  0.0000000  0  9G15G10G12G29G26G05G02G25G30
 124889158.551 7  97316291.297 6  23765620.922                    23765630.496
 128833260.292 6 100389710.43043  24516128.648                    24516139.625
 115742591.994 8  90189148.923 7  22025082.320                    22025090.770
 115533658.563 7  90026362.103 7  21985340.766                    21985349.094
 120288901.062 7  93731601.81044  22890192.523                    22890201.914
 108736988.158 8  84730222.358 8  20691932.328                    20691939.699
 115409080.446 7  89929311.26745  21961604.242                    21961610.617
 114049838.722 8  88870148.893 7  21702983.266                    21702994.273
 115257225.054 7  89810932.33845  21932725.617                    21932734.539
 11  8 24  2 21 30.0000000  0  9G15G10G12G29G26G05G02G25G30
 124792951.231 7  97241324.643 6  23747313.609                    23747323.758
 128942152.794 6 100474561.66043  24536850.852                    24536861.852
 115819917.883 8  90249402.846 7  22039797.109                    22039805.301
 115456538.544 8  89966268.648 7  21970665.086                    21970673.676
 120201085.318 7  93663174.02044  22873481.750                    22873491.434
 108784359.465 8  84767135.071 7  20700946.453                    20700954.031
 115450152.653 7  89961315.57145  21969419.633                    21969426.090
 114073722.580 8  88888759.687 7  21707528.070                    21707538.676
 115291044.933 7  89837285.49145  21939161.594                    21939170.055
 11  8 24  2 22  0.0000000  0  9G15G10G12G29G26G05G02G25G30
 124696737.663 7  97166353.114 6  23729004.734                    23729014.941
 129051087.480 6 100559445.84643  24557580.570                    24557591.020
 115897556.910 8  90309900.788 7  22054571.172                    22054579.582
 115379578.349 7  89906299.731 7  21956020.305                    21956028.258
 120113495.259 7  93594922.07344  22856813.539                    22856823.438
 108832158.880 8  84804381.367 8  20710042.516                    20710050.289
 115491307.373 7  89993384.17645  21977251.094                    21977257.934
 114098138.308 8  88907784.938 7  21712174.359                    21712185.176
 115325379.158 7  89864039.43545  21945695.055                    21945703.715
 11  8 24  2 22 30.0000000  0 10G15G10G12G29G26G05G02G25G30G21
 124600520.662 7  97091378.875 6  23710694.617                    23710705.418
 129160062.296 6 100644361.35243  24578317.516                    24578327.512
 115975506.111 8  90370640.402 7  22069404.555                    22069413.008
 115302779.878 7  89846456.840 7  21941405.289                    21941413.750
 120026134.714 7  93526848.97244  22840189.266                    22840199.105
 108880384.334 8  84841959.650 8  20719219.727                    20719227.289
 115532544.575 7  90025517.06145  21985098.648                    21985105.313
 114123084.471 8  88927223.484 7  21716921.563                    21716932.422
 115360225.723 8  89891192.63345  21952325.883                    21952334.348
 132383801.06116                  25191820.898
 11  8 24  2 23  0.0000000  0  9G15G12G29G26G05G02G25G30G21
 124504304.700 7  97016405.531 6  23692385.109                    23692395.609
 116053764.170 8  90431620.698 7  22084296.453                    22084304.559
 115226146.868 8  89786742.869 7  21926822.586                    21926831.055
 119939008.891 7  93458958.77744  22823609.852                    22823619.449
 108929034.982 8  84879869.250 8  20728477.672                    20728485.184
 115573865.935 7  90057715.52845  21992961.602                    21992967.824
 114148560.780 8  88947075.163 7  21721769.344                    21721780.078
 115395583.812 8  89918744.38145  21959054.734                    21959063.363
 132328163.980 6 103112974.79453  25181233.727                    25181242.977
 11  8 24  2 23 30.0000000  0  9G15G12G29G26G05G02G25G30G21
 124408090.999 7  96941433.885 6  23674077.063                    23674086.016
 116132326.243 7  90492837.898 7  22099246.227                    22099254.008
 115149679.944 8  89727158.333 7  21912271.672                    21912279.691
 119852119.779 7  93391253.04944  22807075.867                    22807085.102
 108978106.785 8  84918107.031 8  20737815.563                    20737823.152
 115615269.953 7  90089978.38045  22000840.742                    22000846.793
 114174564.190 8  88967337.555 7  21726717.852                    21726728.527
 115431449.649 7  89946691.81645  21965879.141                    21965888.105
 132272533.997 6 103069626.82043  25170647.430                    25170656.711
 11  8 24  2 24  0.0000000  0  9G15G12G29G26G05G02G25G30G21
 124311882.902 6  96866466.612 6  23655768.609                    23655777.672
 116211189.809 7  90554290.006 7  22114253.664                    22114261.816
 115073381.546 7  89667705.117 7  21897752.703                    21897761.207
 119765471.114 7  93323734.65645  22790587.195                    22790596.461
 109027597.791 8  84956671.460 7  20747233.477                    20747240.535
 115656756.855 7  90122305.82745  22008735.719                    22008742.070
 114201093.272 8  88988009.583 7  21731766.031                    21731776.293
 115467821.486 7  89975033.49545  21972800.406                    21972809.656
 132216909.481 6 103026283.08643  25160062.008                    25160071.492
 11  8 24  2 24 30.0000000  0  9G15G12G29G26G05G02G25G30G21
 124215682.718 6  96791505.521 6  23637462.719                    23637470.887
 116290351.807 7  90615974.673 7  22129317.633                    22129326.113
 114997253.805 8  89608384.882 7  21883265.648                    21883274.168
 119679066.548 7  93256406.50145  22774145.000                    22774154.305
 109077505.442 8  84995560.545 7  20756730.875                    20756738.469
 115698326.739 7  90154697.95945  22016646.359                    22016652.551
 114228146.225 8  89009089.805 7  21736914.219                    21736924.941
 115504696.788 8  90003767.49545  21979817.750                    21979826.813
 132161289.943 6 102982943.24743  25149477.578                    25149487.801
 11  8 24  2 25  0.0000000  0  9G15G12G29G26G05G02G25G30G21
 124119493.019 6  96716552.559 6  23619158.320                    23619167.164
 116369808.571 8  90677889.023 7  22144437.992                    22144446.094
 114921298.558 8  89549199.053 7  21868811.781                    21868820.395
 119592909.272 7  93189271.03145  22757749.070                    22757758.754
 109127826.716 8  85034771.936 7  20766306.211                    20766313.770
 115739979.300 7  90187154.52245  22024572.125                    22024578.293
 114255720.837 8  89030576.509 7  21742161.211                    21742171.824
 115542072.947 7  90032891.79045  21986930.352                    21986939.246
 132105674.381 6 102939606.46243  25138894.664                    25138904.258
 11  8 24  2 25 30.0000000  0  9G15G12G29G26G05G02G25G30G21
 124023317.211 6  96641610.470 6  23600855.922                    23600866.145
 116449557.618 7  90740031.124 7  22159613.695                    22159621.988
 114845518.190 8  89490149.492 7  21854391.250                    21854400.199
 119507003.446 7  93122331.49045  22741402.258                    22741411.816
 109178559.833 8  85074304.234 7  20775960.414                    20775967.934
 115781714.985 7  90219675.83445  22032514.344                    22032520.301
 114283815.955 8  89052468.800 7  21747507.508                    21747518.621
 115579948.188 8  90062404.95545  21994137.875                    21994147.234
 132050062.471 6 102896272.54543  25128312.977                    25128322.254
 11  8 24  2 26  0.0000000  0  9G15G12G29G26G05G02G25G30G21
 123927158.664 6  96566681.793 6  23582557.492                    23582568.516
 116529596.343 7  90802398.943 7  22174844.477                    22174852.938
 114769915.381 8  89431238.276 7  21840004.086                    21840013.008
 119421353.174 7  93055591.09145  22725103.109                    22725112.660
 109229703.674 8  85114156.588 8  20785692.914                    20785700.398
 115823534.323 7  90252262.34745  22040472.594                    22040478.641
 114312430.274 8  89074765.670 7  21752952.555                    21752963.645
 115618320.708 7  90092305.60645  22001440.008                    22001449.109
 131994454.216 6 102852941.47043  25117730.930                    25117740.145
 11  8 24  2 26 30.0000000  0  9G15G12G29G26G05G02G25G30G21
 123831019.542 6  96491768.257 6  23564263.156                    23564273.324
 116609920.909 7  90864989.501 7  22190129.750                    22190137.789
 114694491.850 8  89372466.753 7  21825651.688                    21825660.250
 119335961.237 7  92989051.99044  22708853.000                    22708862.914
 109281254.706 8  85154326.231 7  20795502.648                    20795510.102
 115865437.254 7  90284914.00345  22048446.172                    22048452.207
 114341561.356 8  89097465.217 7  21758496.086                    21758506.664
 115657187.485 7  90122591.39645  22008835.641                    22008845.113
 131938848.303 6 102809612.21243  25107149.156                    25107158.574
 11  8 24  2 27  0.0000000  0  9G15G12G29G26G05G02G25G30G21
 123734902.558 7  96416871.992 6  23545973.047                    23545982.836
 116690527.930 8  90927800.148 7  22205469.211                    22205477.000
 114619249.457 8  89313836.376 7  21811333.602                    21811342.184
 119250831.097 7  92922716.87044  22692653.078                    22692663.637
 109333210.289 8  85194811.113 7  20805389.242                    20805397.090
 115907423.797 7  90317630.79145  22056436.148                    22056442.063
 114371207.285 8  89120565.936 7  21764137.258                    21764148.500
 115696546.179 8  90153260.51145  22016325.695                    22016334.418
 131883244.190 6 102766284.37943  25096567.750                    25096577.633
 11  8 24  2 27 30.0000000  0  9G15G12G29G26G05G02G25G30G21
 123638811.168 7  96341995.713 6  23527687.688                    23527696.691
 116771415.682 8  90990829.547 7  22220861.500                    22220869.254
 114544190.963 8  89255349.291 7  21797050.875                    21797059.086
 119165967.151 7  92856589.18244  22676505.047                    22676514.211
 109385568.751 8  85235609.915 7  20815352.844                    20815360.418
 115949494.417 7  90350413.09745  22064441.289                    22064447.586
 114401366.866 8  89144066.894 7  21769876.805                    21769887.969
 115736394.882 8  90184311.45145  22023908.453                    22023917.406
 131827641.750 6 102722957.86643  25085986.688                    25085996.406
 11  8 24  2 28  0.0000000  0  9G15G12G29G26G05G02G25G30G21
 123542748.570 7  96267141.831 6  23509406.617                    23509415.785
 116852581.108 7  91054075.329 7  22236306.445                    22236314.797
 114469319.049 8  89197007.587 7  21782803.258                    21782811.406
 119081373.333 7  92790671.99244  22660406.813                    22660416.316
 109438328.190 8  85276721.161 7  20825392.547                    20825400.570
 115991649.385 8  90383261.14245  22072463.617                    22072469.297
 114432038.538 8  89167966.889 7  21775713.492                    21775724.355
 115776731.589 8  90215742.64145  22031584.164                    22031593.551
 131772040.276 6 102679632.11343  25075406.094                    25075416.328
 11  8 24  2 28 30.0000000  0  9G15G12G29G26G05G02G25G30G21
 123446717.040 7  96192312.146 6  23491132.797                    23491140.547
 116934020.323 7  91117534.439 7  22251803.992                    22251812.797
 114394635.199 8  89138812.433 7  21768591.000                    21768599.004
 118997052.677 7  92724967.64444  22644361.594                    22644370.590
 109491485.173 8  85318142.185 7  20835508.070                    20835515.879
 116033888.497 7  90416174.76145  22080501.273                    22080507.395
 114463219.906 8  89192264.059 7  21781646.891                    21781658.043
 115817553.437 7  90247551.85845  22039352.477                    22039360.750
 131716438.632 5 102636306.21143  25064826.555                    25064835.176
 11  8 24  2 29  0.0000000  0  9G15G12G29G26G05G02G25G30G21
 123350720.390 7  96117509.640 6  23472864.695                    23472873.977
 117015731.019 7  91181205.072 7  22267353.063                    22267361.867
 114320142.426 8  89080766.159 7  21754415.375                    21754423.977
 118913009.468 7  92659479.50144  22628368.375                    22628377.410
 109545038.458 8  85359872.022 8  20845698.969                    20845706.508
 116076212.475 7  90449154.50145  22088554.820                    22088561.570
 114494909.753 8  89216957.436 7  21787677.523                    21787688.238
 115858858.634 8  90279737.72645  22047212.594                    22047220.813
 131660836.780 6 102592980.20543  25054244.648                    25054254.980
 11  8 24  2 29 30.0000000  0  9G15G12G29G26G05G02G25G30G21
 123254760.831 7  96042736.060 6  23454604.258                    23454614.484
 117097709.924 7  91245084.718 7  22282952.953                    22282961.242
 114245842.632 8  89022870.255 7  21740276.633                    21740284.816
 118829246.792 7  92594209.94245  22612428.516                    22612437.988
 109598984.963 8  85401908.257 7  20855964.563                    20855972.078
 116118621.245 7  90482200.29445  22096625.156                    22096631.355
 114527105.734 8  89242045.204 7  21793804.141                    21793814.840
 115900644.352 7  90312298.02345  22055164.547                    22055172.906
 131605233.944 6 102549653.34642  25043664.203                    25043673.012
 11  8 24  2 30  0.0000000  0  9G15G12G29G26G05G02G25G30G21
 123158841.782 7  95967994.017 6  23436351.805                    23436361.871
 117179954.244 7  91309171.177 7  22298603.727                    22298612.152
 114171738.402 7  88965126.743 7  21726175.453                    21726183.246
 118745768.751 7  92529162.20544  22596543.117                    22596552.637
 109653323.078 8  85444249.637 8  20866305.016                    20866312.395
 116161115.520 7  90515312.73345  22104711.563                    22104717.883
 114559806.472 8  89267526.286 7  21800026.859                    21800037.383
 115942908.639 7  90345231.22045  22063206.445                    22063215.848
 131549629.665 6 102506325.40142  25033082.484                    25033091.277
 11  8 24  2 30 30.0000000  0  9G15G12G29G26G05G02G25G30G21
 123062965.981 7  95893285.654 6  23418107.617                    23418117.004
 117262460.868 7  91373462.030 7  22314304.109                    22314312.410
 114097831.749 8  88907537.177 7  21712111.172                    21712119.324
 118662578.752 7  92464338.88044  22580712.500                    22580721.887
 109708050.126 8  85486894.087 7  20876719.141                    20876726.883
 116203695.166 7  90548491.68445  22112814.508                    22112820.148
 114593009.754 8  89293398.953 7  21806345.680                    21806355.863
 115985648.852 7  90378535.25045  22071340.109                    22071348.723
 131494023.351 6 102462995.71942  25022502.172                    25022509.629
 11  8 24  2 31  0.0000000  0  9G15G12G29G26G05G02G25G30G21
 122967136.500 7  95818613.421 6  23399871.445                    23399880.992
 117345226.428 7  91437954.646 7  22330054.133                    22330062.512
 114024124.818 8  88850103.247 7  21698085.234                    21698093.277
 118579680.505 7  92399742.88344  22564937.219                    22564947.125
 109763163.327 8  85529839.434 7  20887206.781                    20887214.445
 116246360.247 7  90581737.21945  22120933.109                    22120939.383
 114626713.653 8  89319661.728 7  21812758.859                    21812769.535
 116028862.499 7  90412208.20445  22079563.148                    22079572.199
 131438414.118 6 102419663.92842  25011919.570                    25011928.074
 11  8 24  2 31 30.0000000  0  9G15G12G29G26G05G02G25G30G21
 122871355.847 7  95743979.230 6  23381644.656                    23381653.750
 117428247.741 7  91502646.554 7  22345852.000                    22345861.047
 113950619.939 8  88792826.754 7  21684097.453                    21684105.621
 118497077.440 7  92335376.91645  22549219.242                    22549228.785
 109818660.205 8  85573083.765 8  20897767.094                    20897775.246
 116289110.968 7  90615049.50045  22129068.313                    22129074.262
 114660916.034 8  89346312.931 7  21819267.461                    21819278.039
 116072546.894 7  90446247.98345  22087876.594                    22087885.254
 131382801.267 6 102376329.24242  25001336.156                    25001346.234
 11  8 24  2 32  0.0000000  0  9G15G12G29G26G05G02G25G30G21
 122775627.702 7  95669385.932 6  23363428.445                    23363437.547
 117511522.348 7  91567535.808 7  22361698.781                    22361707.918
 113877319.665 8  88735709.692 7  21670148.789                    21670156.707
 118414773.603 7  92271244.13544  22533557.070                    22533565.781
 109874538.927 8  85616625.621 7  20908400.961                    20908408.191
 116331947.933 7  90648428.98645  22137219.805                    22137225.793
 114695615.372 8  89373351.375 7  21825870.195                    21825881.195
 116116700.158 7  90480653.11245  22096278.125                    22096286.336
 131327184.721 6 102332991.73542  24990752.719                    24990762.051
 11  8 24  2 32 30.0000000  0  9G15G12G29G26G05G02G25G30G21
 122679954.797 7  95594835.660 6  23345221.773                    23345231.809
 117595046.914 7  91632619.860 7  22377592.945                    22377601.875
 113804226.083 8  88678753.687 7  21656239.625                    21656247.813
 118332772.626 7  92207347.30344  22517952.063                    22517961.328
 109930796.979 8  85660463.057 8  20919106.273                    20919113.996
 116374871.358 7  90681875.83745  22145388.500                    22145394.113
 114730809.665 8  89400775.480 7  21832567.797                    21832578.355
 116161319.550 7  90515421.45745  22104769.492                    22104778.230
 131271563.707 6 102289650.70742  24980168.180                    24980177.488
 11  8 24  2 33  0.0000000  0  9G15G12G29G26G05G02G25G30G21
 122584340.194 6  95520330.828 6  23327027.234                    23327036.258
 117678818.476 7  91697896.370 7  22393534.000                    22393542.770
 113731341.827 8  88621960.782 7  21642370.227                    21642378.523
 118251077.991 7  92143689.21344  22502406.445                    22502415.105
 109987431.869 8  85704594.138 7  20929883.734                    20929891.141
 116417881.360 7  90715390.12245  22153572.313                    22153578.527
 114766496.675 8  89428583.541 7  21839358.688                    21839369.613
 116206402.594 7  90550551.07645  22113348.672                    22113357.234
 131215937.439 6 102246305.62442  24969583.211                    24969592.055
 11  8 24  2 33 30.0000000  0  9G15G12G29G26G05G02G25G30G21
 122488786.702 7  95445873.640 6  23308844.141                    23308853.203
 117762833.721 7  91763362.779 7  22409521.805                    22409530.906
 113658668.462 8  88565332.215 7  21628540.906                    21628549.234
 118169693.245 7  92080272.58345  22486919.484                    22486928.488
 110044441.039 8  85749016.876 7  20940732.195                    20940739.547
 116460977.889 7  90748971.83645  22161773.328                    22161779.500
 114802674.308 8  89456773.888 7  21846243.109                    21846254.555
 116251946.528 7  90586039.84345  22122015.211                    22122023.840
 131160305.643 6 102202956.22042  24958997.008                    24959006.328
 11  8 24  2 34  0.0000000  0  9G15G12G29G26G05G02G25G30G21
 122393297.832 7  95371466.813 6  23290672.758                    23290681.676
 117847090.219 7  91829017.154 7  22425555.313                    22425563.934
 113586209.303 8  88508870.556 7  21614752.273                    21614760.336
 118088622.671 7  92017100.76945  22471492.266                    22471501.371
 110101822.880 8  85793730.005 7  20951651.719                    20951658.980
 116504161.844 8  90782621.67245  22169991.492                    22169996.945
 114839341.235 8  89485345.516 7  21853220.117                    21853231.727
 116297949.527 7  90621886.33645  22130768.758                    22130777.563
 131104667.786 6 102159602.06142  24948408.633                    24948418.785
 11  8 24  2 34 30.0000000  0  9G15G12G29G26G05G02G25G30G21
 122297876.177 7  95297112.372 6  23272514.930                    23272523.574
 117931585.005 7  91894857.226 7  22441634.352                    22441642.727
 113513966.530 8  88452577.517 7  21601005.109                    21601013.031
 118007869.639 7  91954176.36945  22456125.344                    22456134.160
 110159574.553 8  85838731.321 7  20962641.133                    20962648.906
 116547433.477 7  90816339.84245  22178225.195                    22178231.398
 114876495.144 8  89514296.606 7  21860290.727                    21860301.598
 116344408.873 7  90658088.39745  22139610.172                    22139619.023
 131049023.314 6 102116242.78142  24937820.203                    24937828.742
 11  8 24  2 35  0.0000000  0  9G15G12G29G26G05G02G25G30G21
 122202524.865 7  95222812.739 6  23254370.195                    23254379.348
 118016314.539 7  91960880.207 7  22457758.102                    22457766.453
 113441942.100 8  88396454.638 7  21587298.703                    21587306.844
 117927437.534 7  91891502.06245  22440819.844                    22440828.969
 110217693.184 8  85884018.556 7  20973700.758                    20973708.402
 116590792.636 7  90850126.20945  22186476.836                    22186482.660
 114914133.579 8  89543625.252 7  21867453.047                    21867464.438
 116391321.662 7  90694643.79645  22148537.086                    22148545.422
 130993371.027 6 102072877.33543  24927229.836                    24927238.191
 11  8 24  2 35 30.0000000  0  9G15G12G29G26G05G02G25G30G21
 122107246.628 7  95148570.018 6  23236239.773                    23236247.801
 118101275.358 8  92027083.440 7  22473925.313                    22473933.324
 113370138.109 8  88340503.515 7  21573635.156                    21573643.113
 117847329.706 7  91829080.43445  22425575.781                    22425584.855
 110276176.401 8  85929589.894 7  20984829.891                    20984837.258
 116634239.497 8  90883980.90945  22194744.078                    22194750.402
 114952254.385 8  89573329.763 7  21874707.164                    21874718.238
 116438685.110 7  90731550.35845  22157550.133                    22157559.199
 130937710.698 6 102029505.66143  24916638.664                    24916647.164
 11  8 24  2 36  0.0000000  0  9G15G12G29G26G05G02G25G30G21
 122012044.413 7  95074386.525 6  23218122.805                    23218131.906
 118186464.324 7  92093464.425 7  22490136.086                    22490144.543
 113298556.581 8  88284725.738 7  21560013.531                    21560021.754
 117767549.925 7  91766914.41745  22410393.953                    22410402.914
 110335021.502 8  85975443.214 7  20996027.898                    20996035.348
 116677774.149 8  90917904.03245  22203028.367                    22203034.254
 114990855.233 8  89603408.343 7  21882052.969                    21882064.070
 116486496.541 7  90768806.02545  22166648.680                    22166657.246
 130882041.623 6 101986127.19343  24906044.094                    24906053.965
 11  8 24  2 36 30.0000000  0  9G15G12G29G26G05G02G25G30G21
 121916921.706 7  95000264.998 6  23200021.266                    23200030.836
 118271879.330 7  92160021.544 7  22506390.414                    22506398.285
 113227200.989 8  88229124.006 7  21546435.047                    21546443.570
 117688102.415 7  91705007.32145  22395275.813                    22395284.523
 110394227.396 8  86021577.672 7  21007294.344                    21007301.629
 116721397.793 7  90951896.47045  22211329.680                    22211335.926
 115029934.935 8  89633860.052 7  21889489.438                    21889500.168
 116534754.223 7  90806409.39945  22175831.688                    22175840.523
 130826363.903 6 101942741.98643  24895450.117                    24895458.770
 11  8 24  2 37  0.0000000  0  9G15G12G29G26G05G02G25G30G21
 121821881.353 7  94926207.623 6  23181935.500                    23181945.148
 118357516.497 7  92226751.769 7  22522686.922                    22522694.883
 113156072.898 8  88173699.541 7  21532899.898                    21532907.906
 117608990.147 7  91643361.43545  22380220.789                    22380230.152
 110453790.584 8  86067990.526 7  21018628.852                    21018636.441
 116765110.301 7  90985958.15545  22219648.211                    22219653.992
 115069490.635 8  89664682.668 7  21897016.641                    21897027.746
 116583454.858 7  90844357.94445  22185098.484                    22185108.094
 130770676.132 6 101899348.97343  24884852.094                    24884862.055
 11  8 24  2 37 30.0000000  0  9G15G12G29G26G05G02G25G30G21
 121726926.305 7  94852216.725 6  23163866.305                    23163874.965
 118443372.928 7  92293652.855 7  22539024.484                    22539033.109
 113085174.613 8  88118454.159 7  21519408.125                    21519416.352
 117530216.833 7  91581979.68445  22365231.047                    22365239.516
 110513708.613 8  86114679.903 7  21030030.813                    21030038.516
 116808911.799 8  91020089.18745  22227982.914                    22227988.859
 115109520.192 8  89695874.535 7  21904633.719                    21904644.754
 116632595.870 7  90882649.61145  22194450.102                    22194459.344
 130714977.981 6 101855947.90743  24874254.188                    24874262.598
 11  8 24  2 38  0.0000000  0  9G15G12G29G26G05G02G25G30G21
 121632059.528 7  94778294.610 6  23145813.898                    23145822.793
 118529446.178 7  92360722.893 7  22555403.141                    22555411.660
 113014508.864 8  88063389.965 7  21505961.250                    21505969.035
 117451786.445 7  91520865.14245  22350305.789                    22350315.066
 110573979.482 8  86161644.217 7  21041500.078                    21041507.379
 116852802.867 7  91054290.02345  22236335.445                    22236341.188
 115150021.859 8  89727434.264 7  21912341.453                    21912352.133
 116682174.931 7  90921282.66045  22203884.391                    22203893.648
 130659269.366 6 101812538.63843  24863653.242                    24863661.887
 11  8 24  2 38 30.0000000  0  9G15G12G29G26G05G02G25G30G21
 121537284.463 7  94704443.963 7  23127778.820                    23127787.953
 118615732.501 7  92427958.980 7  22571823.008                    22571831.461
 112944077.720 8  88008508.581 7  21492558.086                    21492566.227
 117373702.304 7  91460020.39545  22335447.313                    22335455.883
 110634600.470 8  86208881.323 7  21053035.789                    21053043.184
 116896783.427 7  91088560.58745  22244704.453                    22244711.023
 115190992.988 8  89759359.813 7  21920138.047                    21920148.031
 116732189.080 7  90960254.72045  22213402.414                    22213411.297
 130603549.283 6 101769120.42643  24853049.109                    24853058.520
 11  8 24  2 39  0.0000000  0  9G15G12G29G26G05G02G25G30G21
 121442604.020 7  94630667.055 7  23109761.375                    23109770.855
 118702229.496 7  92495359.216 7  22588283.281                    22588291.980
 112873883.870 8  87953812.114 7  21479200.875                    21479209.129
 117295968.287 7  91399448.48645  22320654.898                    22320663.441
 110695569.373 8  86256389.550 7  21064637.742                    21064645.379
 116940854.223 7  91122901.45645  22253091.109                    22253097.406
 115232431.737 8  89791649.739 7  21928023.672                    21928034.000
 116782635.850 7  90999563.89845  22223001.414                    22223010.441
 130547817.313 6 101725693.00943  24842443.914                    24842452.688
 11  8 24  2 39 30.0000000  0  9G15G12G29G26G05G02G25G30G21
 121348021.178 7  94556966.206 7  23091763.188                    23091771.980
 118788933.369 7  92562920.656 7  22604782.336                    22604791.105
 112803929.672 8  87899302.378 7  21465889.547                    21465897.043
 117218587.910 7  91339152.13745  22305929.570                    22305938.289
 110756883.737 8  86304166.960 7  21076305.633                    21076313.281
 116985015.443 8  91157312.79145  22261494.672                    22261500.484
 115274335.772 8  89824302.222 7  21935997.391                    21936008.254
 116833512.673 7  91039208.16145  22232683.484                    22232692.613
 130492072.893 6 101682255.82443  24831835.836                    24831844.832
 11  8 24  2 40  0.0000000  0  9G15G12G29G26G05G02G25G30G21
 121253539.116 7  94483343.869 6  23073783.875                    23073792.879
 118875841.384 7  92630641.149 7  22621320.617                    22621329.102
 112734217.359 8  87844981.136 7  21452623.820                    21452631.523
 117141564.788 7  91279134.16645  22291272.578                    22291281.457
 110818541.189 8  86352211.708 7  21088038.625                    21088046.074
 117029267.397 7  91191794.84545  22269915.555                    22269921.273
 115316702.861 8  89857315.532 7  21944059.656                    21944070.113
 116884816.736 7  91079185.33745  22242446.055                    22242455.262
 130436315.557 6 101638808.59243  24821224.984                    24821234.500
 11  8 24  2 40 30.0000000  0  9G15G12G29G26G05G02G25G30G21
 121159160.724 7  94409802.313 6  23055824.367                    23055832.988
 118962950.160 7  92698518.079 7  22637896.922                    22637905.445
 112664749.117 8  87790850.058 7  21439404.125                    21439411.914
 117064902.101 7  91219397.05445  22276684.219                    22276693.117
 110880538.739 8  86400521.482 7  21099836.188                    21099844.102
 117073610.303 7  91226347.75145  22278353.359                    22278359.879
 115359530.399 8  89890687.625 7  21952209.359                    21952220.090
 116936544.977 7  91119493.04845  22252290.031                    22252298.906
 130380544.333 5 101595350.54142  24810612.266                    24810621.883
 11  8 24  2 41  0.0000000  0  9G15G12G29G26G05G02G25G30G21
 121064889.172 7  94336343.998 6  23037884.648                    23037893.770
 119050257.154 7  92766549.475 7  22654510.688                    22654519.203
 112595527.802 8  87736911.407 7  21426231.898                    21426239.656
 116988603.902 7  91159943.94645  22262165.508                    22262173.688
 110942874.525 8  86449094.813 7  21111698.750                    21111706.414
 117118044.827 7  91260972.02245  22286808.805                    22286815.598
 115402816.591 8  89924417.125 7  21960446.336                    21960457.000
 116988695.166 7  91160129.55145  22262213.711                    22262222.734
 130324759.098 6 101551881.58243  24799996.789                    24800005.480
 11  8 24  2 41 30.0000000  0  9G15G12G29G26G05G02G25G30G21
 120970727.845 7  94262971.581 6  23019966.594                    23019975.785
 119137759.202 7  92834732.856 7  22671162.125                    22671171.137
 112526555.471 8  87683166.770 7  21413106.172                    21413114.727
 116912673.843 7  91100777.70745  22247715.922                    22247724.445
 111005546.180 8  86497929.847 7  21123624.828                    21123632.523
 117162571.349 7  91295667.99445  22295282.344                    22295288.559
 115446559.129 8  89958502.197 7  21968770.336                    21968781.508
 117041264.608 7  91201092.75645  22272216.969                    22272225.918
 130268959.284 6 101508401.26043  24789379.109                    24789388.121
 11  8 24  2 42  0.0000000  0  9G15G12G29G26G05G02G25G30G21
 120876679.484 7  94189687.214 6  23002069.109                    23002078.762
 119225452.786 7  92903065.477 7  22687849.422                    22687858.113
 112457833.926 8  87629617.526 7  21400029.109                    21400037.160
 116837115.204 7  91041900.89445  22233337.773                    22233346.066
 111068550.721 8  86547024.288 7  21135614.125                    21135621.492
 117207189.599 8  91330435.45345  22303773.031                    22303779.273
 115490755.256 8  89992940.738 7  21977180.414                    21977191.598
 117094250.062 7  91242380.11745  22282300.094                    22282309.090
 130213144.185 6 101464909.02843  24778756.961                    24778767.078
 11  8 24  2 42 30.0000000  0  9G15G12G29G26G05G02G25G30G21
 120782747.138 7  94116493.254 6  22984194.266                    22984203.863
 119313335.262 7  92971545.293 7  22704572.969                    22704581.230
 112389366.432 8  87576266.257 7  21387000.203                    21387008.297
 116761931.667 7  90983316.36045  22219030.656                    22219039.508
 111131886.114 8  86596376.540 7  21147666.164                    21147673.824
 117251900.465 7  91365275.07845  22312281.180                    22312287.695
 115535403.002 8  90027731.168 7  21985677.188                    21985687.730
 117147649.125 7  91283989.78545  22292461.680                    22292470.461
 130157313.436 6 101421404.61043  24768132.969                    24768142.289
 11  8 24  2 43  0.0000000  0  9G15G12G29G26G05G02G25G30G21
 120688933.901 7  94043392.027 6  22966342.719                    22966351.742
 119401402.987 7  93040169.464 7  22721331.727                    22721340.402
 112321154.757 8  87523114.325 7  21374020.031                    21374028.207
 116687126.703 7  90925026.83445  22204795.758                    22204804.250
 111195549.519 8  86645984.386 7  21159780.820                    21159788.617
 117296704.025 7  91400186.92045  22320807.305                    22320813.594
 115580499.629 8  90062871.400 7  21994258.484                    21994269.539
 117201458.730 7  91325919.35145  22302700.922                    22302710.133
 130101466.219 6 101377887.35343  24757505.680                    24757514.082
 11  8 24  2 43 30.0000000  0  9G15G12G29G26G05G02G25G30G21
 120595242.875 7  93970386.062 6  22948513.961                    22948523.027
 119489653.096 7  93108935.745 7  22738124.891                    22738133.660
 112253201.414 8  87470163.695 7  21361088.602                    21361096.906
 116612703.801 7  90867035.01344  22190633.992                    22190642.023
 111259538.447 8  86695845.884 7  21171957.898                    21171965.605
 117341600.663 7  91435171.30045  22329350.656                    22329357.141
 115626042.967 8  90098359.682 7  22002925.148                    22002936.309
 117255676.113 7  91368166.64045  22313018.547                    22313027.684
 130045602.047 6 101334356.80342  24746875.023                    24746882.664
 11  8 24  2 44  0.0000000  0 10G15G18G12G29G26G05G02G25G30G21
 120501677.337 7  93897477.907 6  22930709.523                    22930718.457
 129621705.31415                  24666199.180
 119578082.971 7  93177842.107 6  22754952.539                    22754960.922
 112185509.042 8  87417416.419 7  21348207.398                    21348215.078
 116538666.615 7  90809343.73145  22176544.672                    22176552.945
 111323850.631 8  86745959.275 7  21184196.000                    21184203.629
 117386590.934 7  91470228.66345  22337911.664                    22337918.234
 115672030.761 8  90134194.332 7  22011676.594                    22011687.555
 117310298.756 7  91410729.74645  22323412.914                    22323421.688
 129989720.505 6 101290812.80442  24736241.109                    24736249.906
 11  8 24  2 44 30.0000000  0 10G15G18G12G29G26G05G02G25G30G21
 120408240.103 7  93824669.716 6  22912928.336                    22912937.402
 129532552.072 5                  24649235.195
 119666689.427 7  93246886.071 6  22771814.297                    22771822.316
 112118080.079 8  87364874.400 7  21335376.406                    21335384.324
 116465018.912 7  90751955.95145  22162529.766                    22162538.898
 111388483.651 8  86796322.670 7  21196495.039                    21196502.617
 117431675.062 7  91505359.15045  22346491.117                    22346497.551
 115718460.611 8  90170373.413 7  22020511.531                    22020522.961
 117365323.732 7  91453606.34645  22333883.375                    22333892.680
 129933821.475 6 101247255.17943  24725603.633                    24725612.996
 11  8 24  2 45  0.0000000  0 10G15G18G12G29G26G05G02G25G30G21
 120314934.299 7  93751963.940 6  22895173.016                    22895181.625
 129443566.436 5                  24632301.750
 119755469.003 7  93316064.958 6  22788708.477                    22788716.418
 112050916.753 8  87312539.356 7  21322595.711                    21322603.676
 116391763.869 7  90694874.13445  22148589.891                    22148598.773
 111453435.030 8  86846934.130 7  21208854.789                    21208862.547
 117476853.504 7  91540563.12145  22355088.211                    22355094.406
 115765329.971 8  90206894.966 7  22029430.500                    22029441.398
 117420748.115 7  91496794.16745  22344430.289                    22344439.301
 129877904.103 6 101203683.21943  24714963.516                    24714972.129
 11  8 24  2 45 30.0000000  0 10G15G18G12G29G26G05G02G25G30G21
 120221762.809 7  93679362.840 6  22877442.898                    22877451.688
 129354747.958 5                  24615400.789
 119844418.336 7  93385376.094 7  22805635.148                    22805643.316
 111984020.727 8  87260412.620 7  21309865.328                    21309873.563
 116318904.520 7  90638100.65345  22134724.969                    22134733.664
 111518701.741 8  86897791.313 7  21221274.883                    21221282.309
 117522126.250 7  91575840.58645  22363702.375                    22363709.207
 115812635.879 8  90243756.716 7  22038432.563                    22038443.699
 117476568.618 7  91540290.66745  22355052.719                    22355061.566
 129821967.376 6 101160096.17743  24704319.055                    24704327.449
 11  8 24  2 46  0.0000000  0 10G15G18G12G29G26G05G02G25G30G21
 120128729.024 7  93606869.051 6  22859739.281                    22859747.855
 129266098.766 5                  24598530.531
 119933534.656 7  93454817.334 7  22822593.391                    22822601.887
 111917395.029 8  87208496.540 7  21297186.695                    21297194.953
 116246444.715 7  90581638.50745  22120936.688                    22120946.008
 111584281.682 8  86948892.568 7  21233754.453                    21233761.805
 117567493.908 7  91611191.99945  22372337.023                    22372342.984
 115860376.381 8  90280957.109 7  22047517.305                    22047527.945
 117532782.798 7  91584093.90845  22365750.352                    22365759.266
 129766010.974 6 101116493.84843  24693670.328                    24693679.590
 11  8 24  2 46 30.0000000  0 10G15G18G12G29G26G05G02G25G30G21
 120035836.028 7  93534484.953 7  22842062.063                    22842070.766
 129177620.583 5                  24581693.797
 120022815.234 7  93524386.584 7  22839582.734                    22839591.266
 111851042.298 8  87156793.146 7  21284560.547                    21284568.758
 116174388.385 7  90525490.75445  22107224.492                    22107233.391
 111650172.607 8  87000236.147 7  21246292.938                    21246300.688
 117612956.866 7  91646617.67345  22380988.133                    22380994.199
 115908549.181 8  90318494.326 7  22056684.344                    22056695.449
 117589387.946 7  91628201.80645  22376521.977                    22376530.836
 129710034.696 6 101072876.00443  24683019.195                    24683027.453
 11  8 24  2 47  0.0000000  0 10G15G18G12G29G26G05G02G25G30G21
 119943087.031 7  93462213.063 7  22824411.656                    22824420.887
 129089314.238 4                  24564889.492
 120112256.773 7  93594081.259 6  22856602.734                    22856611.391
 111784964.683 8  87105304.125 7  21271986.180                    21271994.125
 116102738.762 7  90469659.91645  22093590.367                    22093598.918
 111716372.117 8  87051820.186 7  21258890.328                    21258897.676
 117658515.492 7  91682117.88945  22389657.242                    22389663.676
 115957151.556 8  90356366.291 7  22065933.141                    22065944.121
 117646380.997 7  91672611.97045  22387367.172                    22387375.461
 129654038.009 6 101029242.30943  24672362.539                    24672372.176
 11  8 24  2 47 30.0000000  0  9G15G12G29G26G05G02G25G30G21
 119850485.525 7  93390056.099 7  22806790.133                    22806799.434
 120201856.559 7  93663899.230 6  22873653.359                    22873661.195
 111719164.967 8  87054031.649 7  21259465.102                    21259472.965
 116031499.956 7  90414149.19045  22080033.938                    22080042.805
 111782877.851 8  87103642.835 7  21271546.008                    21271553.609
 117704170.714 7  91717693.38645  22398345.180                    22398351.504
 116006181.574 8  90394571.471 7  22075263.359                    22075274.113
 117703759.591 7  91717322.54945  22398286.273                    22398295.363
 129598020.497 6 100985592.41843  24661703.109                    24661711.418
 11  8 24  2 48  0.0000000  0  9G15G12G29G26G05G02G25G30G21
 119758033.747 7  93318015.796 7  22789197.625                    22789206.367
 120291610.666 7  93733837.473 6  22890732.898                    22890741.496
 111653644.660 8  87002976.913 7  21246996.711                    21247004.898
 115960674.123 7  90358960.26645  22066556.430                    22066565.613
 111849686.219 8  87155701.309 7  21284258.891                    21284266.426
 117749922.039 7  91753343.75945  22407051.070                    22407057.223
 116055635.759 8  90433107.190 7  22084673.781                    22084684.574
 117761519.856 7  91762330.51845  22409277.359                    22409286.520
 129541981.192 6 100941925.46643  24651038.578                    24651047.449
 11  8 24  2 48 30.0000000  0  9G15G12G29G26G05G02G25G30G21
 119665735.225 7  93246094.937 7  22771634.063                    22771642.820
 120381516.931 7  93803894.269 6  22907841.313                    22907849.891
 111588407.011 8  86952142.425 7  21234582.484                    21234590.434
 115890265.909 7  90304096.75545  22053157.781                    22053166.859
 111916796.333 8  87207994.900 7  21297029.930                    21297037.016
 117795770.605 7  91789069.90345  22415776.383                    22415782.379
 116105512.433 8  90471972.098 7  22094164.945                    22094176.121
 117819659.739 7  91807634.32045  22420340.773                    22420349.500
 129485920.252 6 100898241.73743  24640370.633                    24640379.695
 11  8 24  2 49  0.0000000  0  9G15G12G29G26G05G02G25G30G21
 119573593.364 7  93174296.147 7  22754100.172                    22754108.906
 120471571.913 7  93874066.934 7  22924978.813                    22924986.801
 111523453.861 8  86901529.617 7  21222222.313                    21222230.266
 115820278.491 7  90249561.13045  22039840.000                    22039848.531
 111984204.876 8  87260521.042 7  21309857.289                    21309864.570
 117841716.460 7  91824871.85445  22424519.672                    22424525.453
 116155808.741 8  90511164.000 7  22103736.648                    22103746.516
 117878176.012 7  91853231.40745  22431476.414                    22431485.551
 129429836.749 6 100854540.39843  24629698.391                    24629706.883
 11  8 24  2 49 30.0000000  0  9G15G12G29G26G05G02G25G30G21
 119481610.492 7  93102621.251 7  22736595.984                    22736605.453
 120561772.207 7  93944352.820 6  22942142.922                    22942151.668
 111458787.673 7  86851140.405 7  21209917.000                    21209924.844
 115750714.591 7  90195355.52645  22026602.031                    22026610.766
 112051909.286 8  87313277.721 7  21322741.086                    21322748.488
 117887760.031 7  91860749.94345  22433281.273                    22433287.289
 116206521.818 8  90550680.663 7  22113386.734                    22113397.086
 117937065.494 7  91899119.27045  22442682.602                    22442691.637
 129373730.084 6 100810820.98643  24619020.977                    24619029.824
 11  8 24  2 50  0.0000000  0  9G15G12G29G26G05G02G25G30G21
 119389790.212 7  93031073.054 7  22719122.953                    22719132.012
 120652115.130 7  94014749.860 7  22959334.539                    22959343.484
 111394410.877 8  86800976.688 7  21197666.313                    21197673.965
 115681578.089 7  90141482.97345  22013446.211                    22013454.953
 112119907.050 8  87366262.997 7  21335680.758                    21335688.398
 117933901.368 7  91896704.22245  22442061.859                    22442068.023
 116257649.262 8  90590520.198 7  22123115.703                    22123127.340
 117996325.316 7  91945295.74045  22453959.500                    22453968.340
 129317599.898 6 100767083.25743  24608340.609                    24608349.199
 11  8 24  2 50 30.0000000  0  9G15G12G29G26G05G02G25G30G21
 119298135.823 7  92959654.115 7  22701682.086                    22701690.805
 120742597.243 7  94085255.354 6  22976553.047                    22976560.926
 111330325.963 8  86751040.427 7  21185471.203                    21185479.102
 115612872.474 7  90087946.15345  22000372.047                    22000380.504
 112188195.742 8  87419474.966 7  21348675.125                    21348682.809
 117980141.315 7  91932735.31845  22450860.570                    22450866.711
 116309188.644 8  90630680.738 7  22132923.313                    22132934.578
 118055952.684 7  91991758.58345  22465306.391                    22465315.105
 129261445.728 6 100723326.89843  24597653.484                    24597664.176
 11  8 24  2 51  0.0000000  0  9G15G12G29G26G05G02G25G30G21
 119206650.535 7  92888366.928 6  22684273.242                    22684281.430
 120833215.971 7  94155867.334 6  22993796.969                    22993805.684
 111266535.338 8  86701333.481 7  21173331.914                    21173339.938
 115544601.278 7  90034747.85245  21987380.219                    21987389.480
 112256773.054 8  87472911.820 7  21361724.930                    21361732.512
 118026480.252 7  91968843.55845  22459679.344                    22459685.172
 116361137.489 8  90671160.323 7  22142809.031                    22142820.531
 118115944.844 7  92038505.70445  22476722.172                    22476730.887
 129205267.261 6 100679551.56743  24586963.836                    24586972.523
 11  8 24  2 51 30.0000000  0  9G15G12G29G26G05G02G25G30G21
 119115337.214 7  92817213.747 7  22666896.477                    22666905.086
 120923968.191 7  94226583.322 6  23011066.969                    23011075.332
 111203041.654 8  86651857.911 7  21161249.906                    21161258.238
 115476768.087 7  89981890.86345  21974472.148                    21974481.234
 112325636.858 8  87526571.931 7  21374829.250                    21374837.367
 118072918.976 7  92005029.54445  22468515.914                    22468521.977
 116413493.211 8  90711956.961 7  22152772.039                    22152783.180
 118176298.777 7  92085534.70045  22488207.172                    22488216.297
 129149063.945 7 100635756.85843  24576268.672                    24576276.695
 11  8 24  2 52  0.0000000  0  9G15G12G29G26G05G02G25G30G21
 119024198.574 7  92746196.694 7  22649553.398                    22649562.195
 121014850.462 7  94297400.641 6  23028361.242                    23028370.363
 111139846.733 8  86602615.144 7  21149224.156                    21149232.289
 115409375.769 7  89929377.39645  21961647.586                    21961656.301
 112394784.160 8  87580452.935 7  21387987.797                    21387995.492
 118119457.259 7  92041293.12845  22477372.023                    22477377.609
 116466252.799 8  90753068.296 7  22162811.852                    22162822.676
 118237011.030 7  92132842.91345  22499761.195                    22499770.066
 129092835.024 7 100591942.17143  24565568.773                    24565577.055
 11  8 24  2 52 30.0000000  0 10G15G18G12G29G26G05G02G25G30G21
 118933238.068 7  92675318.428 7  22632243.922                    22632252.961
 128129791.74615                  24382270.625
 121105859.932 7  94368317.084 6  23045679.844                    23045688.742
 111076953.354 8  86553607.336 7  21137255.828                    21137263.598
 115342427.724 8  89877210.11245  21948907.539                    21948916.313
 112464212.700 8  87634553.094 7  21401199.453                    21401207.359
 118166095.699 7  92077634.74545  22486246.844                    22486252.836
 116519413.688 8  90794492.369 7  22172928.242                    22172939.074
 118298078.932 7  92180428.25745  22511381.227                    22511390.492
 129036580.257 6 100548107.37744  24554863.602                    24554872.668
 11  8 24  2 53  0.0000000  0 10G15G18G12G29G26G05G02G25G30G21
 118842459.016 7  92604581.560 7  22614969.633                    22614978.293
 128043646.136 5                  24365878.711
 121196993.609 7  94439330.308 6  23063022.273                    23063031.281
 111014363.604 7  86504836.135 7  21125345.539                    21125353.484
 115275927.373 7  89825391.69445  21936252.945                    21936261.773
 112533919.636 8  87688870.177 7  21414464.141                    21414472.195
 118212834.646 7  92114054.68445  22495141.070                    22495146.754
 116572973.345 8  90836227.134 7  22183120.242                    22183130.961
 118359499.363 7  92228288.29945  22523069.359                    22523078.348
 128980299.038 6 100504251.96843  24544153.555                    24544162.098
 11  8 24  2 53 30.0000000  0 10G15G18G12G29G26G05G02G25G30G21
 118751864.367 7  92533988.376 7  22597729.594                    22597738.766
 127957688.518 5                  24349521.648
 121288248.312 7  94510437.849 6  23080387.438                    23080395.688
 110952080.030 8  86456303.501 7  21113493.398                    21113501.418
 115209878.200 7  89773924.83845  21923684.313                    21923692.953
 112603902.888 8  87743402.577 7  21427781.625                    21427789.805
 118259674.683 7  92150553.38445  22504054.500                    22504060.422
 116626929.072 8  90878270.541 7  22193387.750                    22193398.176
 118421269.444 7  92276420.82045  22534823.930                    22534832.633
 128923990.890 7 100460375.54743  24533439.125                    24533445.414
 11  8 24  2 54  0.0000000  0 10G15G18G12G29G26G05G02G25G30G21
 118661457.212 7  92463541.295 7  22580525.898                    22580535.008
 127871920.071 5                  24333198.844
 121379620.992 7  94581637.309 6  23097774.797                    23097782.688
 110890105.107 8  86408011.381 7  21101699.820                    21101708.027
 115144283.397 7  89722812.02645  21911201.867                    21911210.266
 112674159.941 8  87798148.336 7  21441151.203                    21441158.945
 118306616.216 7  92187131.17345  22512987.000                    22512993.707
 116681278.242 8  90920620.524 7  22203730.047                    22203740.832
 118483386.172 7  92324823.42145  22546643.945                    22546653.137
 128867655.379 6 100416477.77743  24522718.281                    24522726.023
 11  8 24  2 54 30.0000000  0 10G15G18G12G29G26G05G02G25G30G21
 118571240.231 7  92393242.406 7  22563357.836                    22563366.820
 127786341.380 5                  24316914.039
 121471108.286 7  94652926.069 6  23115184.242                    23115193.039
 110828440.652 7  86359961.171 7  21089965.727                    21089973.531
 115079145.979 7  89672055.61045  21898806.680                    21898815.250
 112744687.696 8  87853105.025 7  21454572.297                    21454579.887
 118353659.493 7  92223788.22745  22521939.070                    22521946.031
 116736017.798 8  90963274.721 7  22214146.641                    22214157.316
 118545846.104 7  92373493.47545  22558530.039                    22558538.781
 128811292.084 6 100372558.39043  24511992.594                    24512000.625
 11  8 24  2 55  0.0000000  0 10G15G18G12G29G26G05G02G25G30G21
 118481217.411 7  92323094.819 7  22546227.008                    22546235.816
 127700954.209 6                  24300665.883
 121562707.632 7  94724302.152 6  23132615.180                    23132623.719
 110767089.689 7  86312155.238 7  21078290.734                    21078298.828
 115014469.932 7  89621658.72445  21886499.336                    21886507.586
 112815484.434 8  87908271.314 7  21468044.547                    21468052.211
 118400805.160 7  92260525.07145  22530910.648                    22530917.117
 116791145.490 8  91006231.351 7  22224636.914                    22224647.992
 118608646.654 7  92422428.95145  22570480.148                    22570489.516
 128754900.786 7 100328617.18943  24501262.133                    24501269.887
 11  8 24  2 55 30.0000000  0 10G15G18G12G29G26G05G02G25G30G21
 118391391.792 7  92253100.862 7  22529132.922                    22529142.246
 127615759.940 6                  24284453.695
 121654416.355 7  94795763.455 6  23150066.313                    23150075.176
 110706054.981 7  86264595.747 7  21066676.250                    21066683.629
 114950258.591 7  89571623.92545  21874280.125                    21874288.852
 112886548.015 8  87963645.543 7  21481567.141                    21481574.922
 118448053.878 7  92297342.21645  22539901.492                    22539908.109
 116846658.858 8  91049488.513 7  22235200.570                    22235212.293
 118671785.145 7  92471627.73145  22582495.281                    22582504.508
 128698480.867 6 100284653.67143  24490525.547                    24490533.418
 11  8 24  2 56  0.0000000  0 10G15G18G12G29G26G05G02G25G30G21
 118301766.259 7  92183262.840 7  22512078.570                    22512087.906
 127530759.386 6                  24268278.617
 121746230.899 7  94867307.231 6  23167538.141                    23167546.980
 110645338.415 8  86217284.144 7  21055122.148                    21055129.578
 114886515.107 7  89521953.70145  21862150.195                    21862158.777
 112957875.554 8  88019225.442 7  21495140.266                    21495147.684
 118495405.816 7  92334239.79445  22548912.367                    22548918.832
 116902555.002 8  91093043.927 7  22245837.711                    22245848.996
 118735258.231 7  92521087.26444  22594573.930                    22594582.543
 128642031.967 6 100240667.56543  24479783.188                    24479791.340
 11  8 24  2 56 30.0000000  0 10G15G18G12G29G26G05G02G25G30G21
 118212343.723 7  92113583.000 7  22495062.148                    22495071.027
 127445953.517 6  99308489.53852  24252140.531                    24252149.098
 121838148.076 6  94938930.972 6  23185029.422                    23185037.938
 110584941.929 8  86170221.967 7  21043629.117                    21043636.984
 114823242.241 7  89472650.19045  21850110.047                    21850118.496
 113029464.301 8  88075008.887 7  21508763.234                    21508770.617
 118542861.338 7  92371218.10345  22557943.477                    22557949.766
 116958830.659 8  91136895.088 7  22256546.766                    22256557.625
 118799062.348 7  92570804.76545  22606715.734                    22606724.148
 128585553.149 6 100196658.16243  24469035.133                    24469044.352
 11  8 24  2 57  0.0000000  0 10G15G18G12G29G26G05G02G25G30G21
 118123127.794 7  92044064.127 7  22478084.750                    22478093.605
 127361343.915 5  99242560.02142  24236039.898                    24236049.285
 121930165.259 7  95010632.624 6  23202539.977                    23202549.152
 110524868.682 8  86123411.656 7  21032197.680                    21032205.199
 114760443.831 7  89423716.39145  21838159.555                    21838168.594
 113101312.464 8  88130994.473 7  21522435.367                    21522443.086
 118590421.121 7  92408277.63745  22566993.688                    22566999.871
 117015483.765 7  91181040.359 7  22267327.047                    22267337.434
 118863195.148 7  92620778.35945  22618919.555                    22618928.816
 128529044.598 6 100152625.59943  24458282.313                    24458291.035
 11  8 24  2 57 30.0000000  0 10G15G18G12G29G26G05G02G25G30G21
 118034121.094 7  91974708.324 7  22461147.203                    22461156.258
 127276930.998 5  99176783.89342  24219976.695                    24219985.719
 122022278.965 7  95082409.494 6  23220068.922                    23220077.867
 110465120.350 8  86076854.535 7  21020828.367                    21020835.512
 114698122.535 7  89375154.37145  21826300.234                    21826308.820
 113173416.847 8  88187179.701 7  21536156.742                    21536164.313
 118638085.361 7  92445418.56445  22576063.461                    22576070.141
 117072511.041 7  91225477.187 7  22278179.148                    22278190.215
 118927653.090 7  92671005.29945  22631185.938                    22631194.227
 128472505.735 6 100108569.41743  24447522.203                    24447531.707
 11  8 24  2 58  0.0000000  0 10G15G18G12G29G26G05G02G25G30G21
 117945327.368 7  91905518.462 7  22444250.188                    22444258.523
 127192716.567 5  99111162.32642  24203950.594                    24203961.090
 122114486.896 7  95154259.787 6  23237615.266                    23237624.027
 110405700.478 7  86030553.340 7  21009520.781                    21009527.973
 114636282.212 7  89326967.12845  21814532.180                    21814541.188
 113245775.645 8  88243563.193 7  21549925.813                    21549933.598
 118685855.162 7  92482641.73645  22585154.078                    22585160.945
 117129910.260 8  91270203.840 7  22289101.742                    22289112.613
 118992433.598 7  92721483.63444  22643512.938                    22643521.430
 128415936.398 6 100064489.42743  24436757.734                    24436766.074
 11  8 24  2 58 30.0000000  0 10G15G18G12G29G26G05G02G25G30G21
 117856748.970 7  91836496.378 7  22427394.828                    22427402.992
 127108701.231 5  99045695.88442  24187962.805                    24187973.227
 122206785.082 6  95226180.401 6  23255179.023                    23255188.508
 110346610.030 7  85984508.849 7  20998276.016                    20998284.027
 114574925.499 7  89279156.72545  21802856.445                    21802865.430
 113318385.762 8  88300142.510 7  21563743.281                    21563750.859
 118733730.208 7  92519946.93145  22594264.664                    22594270.969
 117187678.002 7  91315217.664 7  22300094.656                    22300105.727
 119057532.940 7  92772210.37844  22655900.727                    22655909.957
 128359335.445 6 100020384.88243  24425987.328                    24425996.211
 11  8 24  2 59  0.0000000  0 10G15G18G12G29G26G05G02G25G30G21
 117768389.108 7  91767644.584 7  22410580.313                    22410589.055
 127024885.960 5  98980385.31842  24172012.883                    24172022.746
 122299171.001 6  95298169.387 6  23272759.234                    23272769.293
 110287851.537 7  85938723.023 7  20987094.703                    20987102.430
 114514055.395 7  89231725.48945  21791273.023                    21791282.027
 113391244.677 8  88356915.689 7  21577607.953                    21577615.129
 118781710.781 7  92557334.36245  22603394.594                    22603401.070
 117245811.375 7  91360516.389 7  22311157.289                    22311168.277
 119122947.928 7  92823183.08745  22668348.945                    22668357.867
 128302702.634 6  99976255.51043  24415210.523                    24415219.105
 11  8 24  2 59 30.0000000  0 10G15G18G12G29G26G05G02G25G30G21
 117680251.424 7  91698965.929 7  22393808.008                    22393816.840
 126941272.253 5  98915231.83852  24156101.617                    24156112.035
 122391641.307 7  95370224.134 7  23290355.484                    23290365.719
 110229428.074 7  85893198.266 7  20975977.172                    20975985.031
 114453675.861 7  89184676.53745  21779783.461                    21779792.266
 113464350.440 8  88413881.226 7  21591519.094                    21591527.133
 118829798.001 7  92594804.89345  22612545.453                    22612552.273
 117304308.171 7  91406098.296 7  22322288.836                    22322299.391
 119188676.011 7  92874399.77145  22680856.563                    22680865.648
 128246037.928 6  99932101.27543  24404427.688                    24404436.406
 11  8 24  3  0  0.0000000  0 10G15G18G12G29G26G05G02G25G30G21
 117592339.019 7  91630462.793 7  22377078.859                    22377087.160
 126857861.32314                  24140227.000
 122484193.495 7  95442342.673 7  23307968.195                    23307977.551
 110171341.944 8  85847936.363 7  20964923.375                    20964931.789
 114393789.913 7  89138012.18145  21768387.234                    21768396.590
 113537700.886 8  88471037.422 7  21605477.492                    21605485.324
 118877992.338 7  92632358.88145  22621716.719                    22621723.246
 117363165.622 7  91451961.235 7  22333488.656                    22333500.176
 119254714.251 7  92925858.13145  22693422.711                    22693432.375
 128189340.656 6  99887921.66543  24393638.133                    24393647.551
 11  8 24  3  0 30.0000000  0 10G15G18G12G29G26G05G02G25G30G21
 117504654.768 7  91562137.433 7  22360393.289                    22360401.234
 126774653.82715                  24124395.469
 122576824.227 7  95514522.419 6  23325595.406                    23325604.016
 110113595.045 7  85802938.794 7  20953934.703                    20953942.629
 114334400.275 7  89091734.56345  21757085.758                    21757094.910
 113611293.204 8  88528382.087 7  21619481.688                    21619489.500
 118926293.885 7  92669996.42145  22630908.203                    22630914.891
 117422380.552 7  91498102.711 7  22344757.227                    22344767.957
 119321059.063 7  92977555.37645  22706047.984                    22706057.078
 128132610.518 6  99843716.43243  24382842.219                    24382851.066
 11  8 24  3  1  0.0000000  0 10G15G18G12G29G26G05G02G25G30G21
 117417201.788 7  91493992.313 7  22343751.195                    22343759.230
 126691651.012 5                  24108602.586
 122669530.692 7  95586761.167 6  23343236.875                    23343245.496
 110056190.181 8  85758207.755 7  20943010.844                    20943018.559
 114275510.490 7  89045846.44145  21745879.727                    21745888.816
 113685124.985 8  88585913.339 7  21633531.336                    21633539.148
 118974703.421 7  92707718.09545  22640120.297                    22640126.398
 117481950.351 7  91544520.723 7  22356093.008                    22356103.477
 119387707.560 7  93029489.27045  22718731.102                    22718740.051
 128075847.229 7  99799485.36944  24372040.977                    24372050.211
 11  8 24  3  1 30.0000000  0 10G15G18G12G29G26G05G02G25G30G21
 117329982.734 7  91426029.469 7  22327154.273                    22327162.555
 126608853.504 6                  24092845.133
 122762309.195 7  95659056.050 6  23360891.680                    23360900.215
 109999129.028 8  85713744.532 7  20932152.711                    20932160.270
 114217122.968 7  89000349.69745  21734768.945                    21734777.480
 113759193.226 8  88643628.856 7  21647625.930                    21647633.988
 119023220.943 7  92745523.92345  22649353.359                    22649359.141
 117541871.550 7  91591212.546 7  22367495.719                    22367506.449
 119454656.072 7  93081656.93644  22731470.375                    22731479.156
 128019049.898 7  99755227.75444  24361233.398                    24361242.363
 11  8 24  3  2  0.0000000  0 10G15G18G12G29G26G05G02G25G30G21
 117243001.433 7  91358251.891 7  22310601.500                    22310610.504
 126526262.936 6                  24077127.727
 122855157.732 7  95731405.505 6  23378560.359                    23378569.066
 109942414.804 7  85669551.663 7  20921360.047                    20921367.637
 114159241.606 7  88955247.37145  21723754.320                    21723763.211
 113833496.244 8  88701527.287 7  21661765.477                    21661773.449
 119071847.244 7  92783414.51745  22658605.883                    22658612.430
 117602141.960 7  91638176.489 7  22378964.898                    22378975.492
 119521902.183 7  93134056.48144  22744267.680                    22744276.063
 127962218.553 7  99710943.60944  24350418.891                    24350426.609
 11  8 24  3  2 30.0000000  0 10G15G18G12G29G26G05G02G25G30G21
 117156260.806 7  91290661.830 7  22294095.445                    22294103.711
 126443880.155 6  98527652.01552  24061451.820                    24061459.840
 122948072.852 6  95803806.853 6  23396241.773                    23396250.410
 109886049.419 8  85625630.605 7  20910634.250                    20910641.918
 114101868.911 7  88910541.39345  21712836.836                    21712845.309
 113908031.237 8  88759606.503 7  21675949.109                    21675956.813
 119120582.613 7  92821390.09045  22667880.133                    22667886.746
 117662758.547 7  91685410.174 7  22390499.203                    22390510.211
 119589442.458 7  93186685.27345  22757120.188                    22757128.781
 127905352.697 7  99666632.61244  24339597.242                    24339605.797
 11  8 24  3  3  0.0000000  0 10G15G18G12G29G26G05G02G25G30G21
 117069763.139 7  91223261.090 7  22277635.758                    22277644.676
 126361705.918 6  98463620.22842  24045814.047                    24045822.895
 123041050.988 7  95876257.286 6  23413934.484                    23413943.633
 109830034.672 8  85581982.769 7  20899974.859                    20899982.949
 114045007.901 7  88866234.15045  21702016.359                    21702024.875
 113982795.720 8  88817864.529 7  21690176.500                    21690184.012
 119169427.327 7  92859450.84945  22677175.188                    22677181.520
 117723718.147 7  91732911.137 7  22402099.797                    22402110.676
 119657273.440 7  93239540.56345  22770027.820                    22770037.090
 127848451.870 7  99622294.35544  24328768.992                    24328777.770
 11  8 24  3  3 30.0000000  0 10G15G18G12G29G26G05G02G25G30G21
 116983512.854 7  91156053.117 7  22261222.633                    22261231.410
 126279741.042 6  98399751.58742  24030216.445                    24030225.762
 123134089.830 7  95948755.041 6  23431639.680                    23431648.242
 109774373.522 8  85538610.464 7  20889382.891                    20889390.719
 113988661.887 7  88822328.20945  21691294.445                    21691302.613
 114057787.507 8  88876299.684 7  21704446.789                    21704454.504
 119218382.348 7  92897597.59045  22686491.391                    22686497.625
 117785018.174 7  91780677.355 7  22413765.000                    22413776.512
 119725392.496 7  93292620.30845  22782990.539                    22782999.406
 127791516.040 7  99577928.83644  24317934.984                    24317943.074
 11  8 24  3  4  0.0000000  0 10G15G18G12G29G26G05G02G25G30G21
 116897512.571 7  91089039.971 7  22244857.703                    22244866.520
 126197986.835 6  98336047.15642  24014660.156                    24014668.375
 123227186.499 7  96021297.865 6  23449355.320                    23449363.949
 109719068.384 8  85495515.584 7  20878858.516                    20878866.363
 113932834.072 7  88778826.04945  21680670.148                    21680679.004
 114133004.300 8  88934910.163 7  21718759.688                    21718767.633
 119267448.316 7  92935830.77144  22695828.359                    22695834.078
 117846655.828 7  91828706.677 7  22425493.922                    22425505.051
 119793796.322 7  93345921.99244  22796007.156                    22796016.215
 127734544.367 7  99533535.36643  24307093.867                    24307101.016
 11  8 24  3  4 30.0000000  0 10G15G18G12G29G26G05G02G25G30G21
 116811765.250 7  91022223.915 7  22228539.781                    22228548.816
 126116444.573 6  98272507.85542  23999142.367                    23999151.203
 123320338.114 7  96093883.479 6  23467082.359                    23467090.418
 109664121.498 8  85452699.860 7  20868402.430                    20868410.090
 113877527.220 7  88735729.82445  21670146.172                    21670154.297
 114208443.648 8  88993694.073 7  21733115.836                    21733123.105
 119316625.458 7  92974150.59345  22705185.883                    22705192.074
 117908628.201 7  91876996.815 7  22437287.508                    22437298.254
 119862481.990 7  93399443.24944  22809077.797                    22809086.969
 127677536.634 6  99489113.82843  24296246.094                    24296253.355
 11  8 24  3  5  0.0000000  0 10G15G18G12G29G26G05G02G25G30G21
 116726274.012 7  90955607.416 7  22212271.445                    22212280.469
 126035115.392 6  98209134.60342  23983664.898                    23983675.105
 123413541.367 7  96166509.327 6  23484816.828                    23484826.797
 109609535.091 8  85410165.030 7  20858015.266                    20858023.348
 113822744.389 7  88693041.92845  21659720.617                    21659729.250
 114284102.943 8  89052649.353 7  21747512.961                    21747520.680
 119365914.009 7  93012557.22644  22714565.266                    22714571.891
 117970932.219 7  91925545.381 7  22449143.016                    22449154.277
 119931445.959 7  93453181.38245  22822201.188                    22822210.094
 127620492.634 6  99444663.99243  24285390.031                    24285398.629
 11  8 24  3  5 30.0000000  0 10G15G18G12G29G26G05G02G25G30G21
 116641042.153 7  90889193.025 7  22196052.383                    22196061.051
 125954000.029 6  98145927.93042  23968230.039                    23968239.305
 123506793.227 7  96239173.068 6  23502562.531                    23502572.145
 109555311.976 8  85367913.271 7  20847696.945                    20847704.453
 113768488.730 7  88650764.82745  21649396.750                    21649405.242
 114359980.086 8  89111774.398 7  21761952.188                    21761959.840
 119415314.893 7  93051051.39644  22723966.055                    22723972.625
 118033565.285 7  91974350.335 7  22461061.789                    22461072.398
 120000685.533 7  93507134.27544  22835377.141                    22835385.621
 127563412.240 6  99400185.83443  24274528.211                    24274536.098
 11  8 24  3  6  0.0000000  0 10G15G18G12G29G26G05G02G25G30G21
 116556073.103 7  90822983.419 7  22179883.711                    22179892.234
 125873099.235 6  98082888.44942  23952835.188                    23952844.598
 123600091.016 7  96311872.600 6  23520316.688                    23520326.605
 109501454.166 8  85325946.175 7  20837447.836                    20837455.711
 113714763.296 7  88608900.88445  21639173.211                    21639181.340
 114436072.754 8  89171067.383 7  21776431.859                    21776439.863
 119464828.547 7  93089633.43944  22733388.250                    22733394.254
 118096524.515 7  92023409.465 7  22473042.695                    22473053.402
 120070197.526 7  93561299.42144  22848604.266                    22848613.500
 127506294.957 6  99355678.86243  24263658.531                    24263666.672
 11  8 24  3  6 30.0000000  0 10G15G18G12G29G26G05G02G25G30G21
 116471369.477 7  90756980.658 7  22163764.727                    22163773.492
 125792414.036 5  98020016.96342  23937480.797                    23937490.488
 123693431.665 7  96384605.535 6  23538079.039                    23538088.090
 109447963.633 8  85284265.263 7  20827268.930                    20827277.203
 113661570.646 7  88567452.10545  21629050.664                    21629058.914
 114512378.273 8  89230526.215 7  21790952.492                    21790960.016
 119514455.283 7  93128303.60944  22742832.016                    22742837.902
 118159806.578 7  92072720.138 7  22485085.359                    22485096.090
 120139978.419 7  93615674.10744  22861883.297                    22861892.426
 127449140.251 6  99311142.82143  24252781.570                    24252790.711
 11  8 24  3  7  0.0000000  0 10G15G18G12G29G26G05G02G25G30G21
 116386934.385 7  90691187.135 7  22147697.586                    22147705.691
 125711945.428 5  97957314.22942  23922167.875                    23922178.102
 123786812.259 6  96457369.605 6  23555848.656                    23555857.531
 109394843.152 7  85242872.702 7  20817160.477                    20817168.605
 113608913.807 7  88526420.84245  21619030.227                    21619038.895
 114588894.636 8  89290149.347 7  21805513.063                    21805520.582
 119564195.699 7  93167062.36844  22752297.359                    22752303.133
 118223408.861 7  92122280.321 7  22497187.836                    22497198.996
 120210025.327 7  93670256.09644  22875213.430                    22875222.270
 127391948.058 6  99266577.54443  24241898.297                    24241907.516
 11  8 24  3  7 30.0000000  0 10G15G18G12G29G26G05G02G25G30G21
 116302770.964 7  90625605.290 7  22131681.703                    22131689.859
 125631694.420 6  97894781.00142  23906897.445                    23906906.297
 123880229.769 7  96530162.444 6  23573625.305                    23573634.305
 109342094.705 8  85201770.043 7  20807123.195                    20807131.039
 113556795.859 7  88485809.49445  21609112.344                    21609120.668
 114665618.922 8  89349934.511 7  21820113.219                    21820120.941
 119614050.283 7  93205910.09044  22761784.602                    22761790.141
 118287328.257 7  92172087.615 7  22509351.664                    22509362.289
 120280334.874 7  93725042.73444  22888592.531                    22888602.340
 127334717.950 6  99221982.72643  24231008.000                    24231017.359
 11  8 24  3  8  0.0000000  0 10G15G18G12G29G26G05G02G25G30G21
 116218881.920 7  90560237.259 7  22115717.461                    22115726.176
 125551661.514 6  97832417.76943  23891667.359                    23891676.039
 123973681.467 7  96602981.888 6  23591408.789                    23591417.145
 109289720.357 8  85160958.893 8  20797155.992                    20797164.262
 113505219.066 7  88445619.81045  21599297.844                    21599306.164
 114742548.727 8  89409879.832 7  21834752.430                    21834759.816
 119664019.302 7  93244846.96244  22771292.797                    22771299.145
 118351561.564 7  92222139.539 7  22521575.242                    22521585.512
 120350903.769 7  93780031.42244  22902021.625                    22902030.125
 127277449.208 6  99177357.78543  24220110.734                    24220118.402
 11  8 24  3  8 30.0000000  0 10G15G18G12G29G26G05G02G25G30G21
 116135270.830 7  90495085.813 7  22099807.594                    22099815.953
 125471848.129 6  97770225.58943  23876479.250                    23876487.465
 124067164.081 7  96675825.410 6  23609198.297                    23609206.750
 109237723.024 8  85120441.510 7  20787261.672                    20787268.914
 113454187.083 7  88405854.66445  21589586.563                    21589594.715
 114819682.264 8  89469983.872 7  21849430.461                    21849438.051
 119714103.547 7  93283873.61744  22780823.305                    22780830.414
 118416106.257 7  92272434.086 7  22533857.148                    22533868.297
 120421729.136 7  93835219.99944  22915499.367                    22915507.559
 127220141.960 6  99132702.84943  24209205.500                    24209213.809
 11  8 24  3  9  0.0000000  0 10G15G18G12G29G26G05G02G25G30G21
 116051940.574 7  90430153.186 7  22083950.133                    22083958.344
 125392255.091 6  97708205.10643  23861333.289                    23861341.797
 124160674.694 7  96748690.746 6  23626992.891                    23627001.793
 109186104.992 8  85080219.691 7  20777438.844                    20777446.621
 113403702.321 7  88366515.91245  21579979.711                    21579987.859
 114897016.957 8  89530244.679 7  21864147.094                    21864154.090
 119764303.560 7  93322990.47444  22790376.313                    22790382.945
 118480959.268 7  92322968.871 7  22546198.023                    22546209.488
 120492807.780 7  93890605.93944  22929024.500                    22929033.801
 127162795.755 7  99088017.56443  24198292.086                    24198301.320
 11  8 24  3  9 30.0000000  0 10G15G18G12G29G26G05G02G25G30G21
 115968894.415 7  90365441.942 7  22068147.047                    22068155.344
 125312883.015 6  97646356.79843  23846229.695                    23846238.102
 124254210.696 6  96821575.889 6  23644791.992                    23644801.063
 109134868.087 8  85040294.847 8  20767688.859                    20767696.602
 113353767.785 8  88327605.91545  21570477.406                    21570485.961
 114974550.224 8  89590660.230 7  21878900.641                    21878908.414
 119814619.423 7  93362197.61544  22799951.688                    22799957.578
 118546117.568 7  92373741.546 7  22558597.195                    22558608.535
 120564136.383 7  93946186.61544  22942597.789                    22942607.809
 127105410.422 6  99043301.79243  24187371.813                    24187380.625
 11  8 24  3 10  0.0000000  0 10G15G18G12G29G26G05G02G25G30G21
 115886134.847 7  90300954.006 7  22052398.070                    22052406.488
 125233732.955 6  97584681.48743  23831167.773                    23831176.008
 124347768.943 7  96894478.397 6  23662595.172                    23662604.313
 109084014.424 8  85000668.639 7  20758011.797                    20758019.500
 113304385.753 7  88289126.46045  21561080.305                    21561088.781
 115052279.571 8  89651228.556 7  21893692.320                    21893699.875
 119865051.552 7  93401495.37244  22809548.156                    22809554.078
 118611577.893 7  92424749.579 7  22571054.305                    22571065.027
 120635711.526 7  94001959.43144  22956218.789                    22956227.590
 127047985.421 6  98998555.09944  24176444.586                    24176452.980
 11  8 24  3 10 30.0000000  0 10G15G18G12G29G26G05G02G25G30G21
 115803665.783 7  90236692.442 7  22036705.016                    22036713.457
 125154805.976 6  97523180.00643  23816147.211                    23816157.031
 124441346.577 7  96967395.985 6  23680403.398                    23680411.805
 109033546.601 7  84961343.084 7  20748407.758                    20748415.844
 113255559.457 7  88251080.02445  21551789.227                    21551797.391
 115130203.140 8  89711948.218 7  21908520.484                    21908528.492
 119915600.802 7  93440884.42044  22819167.391                    22819173.660
 118677337.620 7  92475990.930 7  22583568.000                    22583578.977
 120707530.445 7  94057922.20344  22969885.219                    22969894.516
 126990520.486 7  98953777.30344  24165509.930                    24165518.184
 11  8 24  3 11  0.0000000  0 10G15G18G12G29G26G05G02G25G30G21
 115721489.900 7  90172659.340 7  22021067.258                    22021075.555
 125076103.016 6  97461853.11843  23801171.484                    23801180.117
 124534940.695 7  97040326.399 6  23698213.555                    23698222.324
 108983467.184 8  84922320.198 7  20738877.992                    20738885.703
 113207291.491 7  88213468.67045  21542603.922                    21542612.473
 115208318.565 8  89772817.387 7  21923385.266                    21923393.129
 119966267.799 7  93480365.18344  22828808.680                    22828815.219
 118743393.817 7  92527463.260 7  22596137.922                    22596149.383
 120779589.875 7  94114072.37444  22983597.555                    22983607.043
 126933015.376 7  98908968.18144  24154566.680                    24154575.449
 11  8 24  3 11 30.0000000  0 10G15G18G12G29G26G05G02G25G30G21
 115639609.767 7  90108856.682 7  22005486.109                    22005494.258
 124997624.306 6  97400700.92043  23786237.063                    23786245.902
 124628548.085 7  97113267.154 6  23716026.719                    23716035.973
 108933777.694 7  84883601.131 8  20729422.711                    20729430.313
 113159584.478 7  88176294.40145  21533525.320                    21533533.816
 115286622.953 8  89833833.786 7  21938286.430                    21938293.758
 120017052.676 7  93519937.79744  22838473.297                    22838479.941
 118809742.986 7  92579163.869 7  22608764.008                    22608775.152
 120851886.189 7  94170407.13344  22997355.508                    22997364.719
 126875469.702 7  98864127.45444  24143616.242                    24143624.984
 11  8 24  3 12  0.0000000  0 10G15G18G12G29G26G05G02G25G30G21
 115558028.764 7  90045287.119 7  21989961.688                    21989969.973
 124919370.905 6  97339724.34543  23771345.594                    23771354.262
 124722165.983 7  97186216.098 6  23733841.516                    23733851.004
 108884480.472 8  84845187.725 7  20720041.578                    20720048.887
 113112441.002 8  88139559.27145  21524554.398                    21524562.996
 115365113.977 8  89894995.624 7  21953222.883                    21953230.422
 120067955.913 7  93559602.62844  22848159.219                    22848166.348
 118876382.353 7  92631090.607 7  22621445.219                    22621456.379
 120924416.387 7  94226924.14644  23011157.102                    23011166.391
 126817883.357 7  98819255.04844  24132657.578                    24132665.910
 11  8 24  3 12 30.0000000  0 10G15G18G12G29G26G05G02G25G30G21
 115476750.103 7  89981953.151 7  21974494.656                    21974502.742
 124841344.003 6  97278924.23842  23756496.758                    23756506.578
 124815791.905 7  97259171.303 6  23751657.789                    23751667.000
 108835578.395 8  84807082.235 7  20710735.648                    20710743.352
 113065864.412 7  88103265.86945  21515691.031                    21515699.781
 115443789.944 8  89956301.587 7  21968194.164                    21968202.105
 120118978.310 7  93599360.33544  22857868.766                    22857874.902
 118943309.249 7  92683241.426 7  22634180.328                    22634190.816
 120997177.710 7  94283621.27044  23025003.641                    23025012.434
 126760256.216 7  98774350.83044  24121691.516                    24121699.484
 11  8 24  3 13  0.0000000  0 10G15G18G12G29G26G05G02G25G30G21
 115395776.781 7  89918857.100 7  21959086.180                    21959093.828
 124763544.187 6  97218301.10742  23741692.875                    23741701.500
 124909422.851 7  97332130.413 6  23769475.297                    23769483.813
 108787073.330 8  84769286.102 7  20701505.734                    20701513.148
 113019856.929 8  88067415.93545  21506936.023                    21506944.633
 115522648.424 8  90017749.750 7  21983200.891                    21983208.293
 120170120.276 7  93639211.19744  22867600.484                    22867607.594
 119010520.409 7  92735613.752 7  22646970.555                    22646981.152
 121070166.599 7  94340495.71644  23038892.766                    23038901.984
 126702587.651 7  98729414.34544  24110717.016                    24110725.449
 11  8 24  3 13 30.0000000  0 10G15G18G12G29G26G05G02G25G30G21
 115315111.924 7  89856001.420 7  21943736.047                    21943744.094
 124685972.385 6  97157855.54943  23726931.984                    23726940.293
 125003056.158 7  97405091.371 6  23787292.867                    23787301.363
 108738967.653 8  84731801.181 7  20692351.328                    20692358.844
 112974421.046 8  88032011.40345  21498289.773                    21498298.559
 115601687.094 8  90079338.323 7  21998241.031                    21998248.816
 120221382.340 7  93679155.60345  22877355.742                    22877362.293
 119078012.871 8  92788205.248 7  22659813.977                    22659825.070
 121143379.948 7  94397545.05044  23052824.570                    23052833.832
 126644877.498 7  98684445.44644  24099736.195                    24099743.805
 11  8 24  3 14  0.0000000  0 10G15G18G12G29G26G05G02G25G30G21
 115234758.530 7  89793388.439 7  21928444.922                    21928453.137
 124608629.485 7  97097588.42843  23712213.922                    23712222.383
 125096688.418 7  97478051.518 6  23805110.742                    23805119.355
 108691263.517 8  84694629.128 8  20683273.617                    20683281.297
 112929559.707 8  87997054.56045  21489752.828                    21489761.309
 115680903.401 8  90141065.304 7  22013316.094                    22013323.125
 120272765.142 7  93719194.12244  22887134.047                    22887139.785
 119145783.614 7  92841013.603 7  22672710.313                    22672721.074
 121216814.586 7  94454766.80044  23066798.922                    23066808.148
 126587125.576 7  98639443.97744  24088746.500                    24088753.730
 11  8 24  3 14 30.0000000  0 10G15G18G12G29G26G05G02G25G30G21
 115154719.374 7  89731020.317 7  21913213.813                    21913221.789
 124531516.204 7  97037500.26843  23697539.789                    23697548.691
 125190316.668 7  97551008.536 6  23822927.594                    23822936.375
 108643962.808 8  84657771.440 8  20674272.438                    20674280.406
 112885275.093 8  87962547.11545  21481325.883                    21481334.332
 115760294.714 8  90202928.663 7  22028423.195                    22028430.336
 120324268.828 7  93759326.85545  22896934.664                    22896941.234
 119213829.366 8  92894036.231 7  22685659.031                    22685670.027
 121290467.005 7  94512158.27444  23080814.805                    23080823.984
 126529331.582 6  98594409.76644  24077748.258                    24077755.707
 11  8 24  3 15  0.0000000  0 10G15G18G12G29G26G05G02G25G30G21
 115074997.201 7  89668899.185 7  21898043.586                    21898051.410
 124454633.404 6  96977591.63243  23682908.922                    23682917.602
 125283938.000 7  97623960.162 6  23840743.016                    23840752.711
 108597067.851 8  84621229.924 8  20665348.555                    20665356.570
 112841569.793 8  87928491.07645  21473009.117                    21473017.473
 115839859.181 8  90264926.943 7  22043563.961                    22043571.336
 120375894.081 7  93799554.30644  22906758.742                    22906765.191
 119282147.029 8  92947270.739 7  22698659.180                    22698670.484
 121364334.026 7  94569716.99544  23094871.188                    23094879.461
 126471495.118 7  98549342.41644  24066742.305                    24066750.023
 11  8 24  3 15 30.0000000  0 10G15G18G12G29G26G05G02G25G30G21
 114995595.765 7  89607027.977 7  21882933.609                    21882941.922
 124377981.553 7  96917862.94643  23668322.469                    23668331.660
 125377550.337 7  97696904.811 6  23858556.508                    23858566.348
 108550581.285 7  84585006.616 8  20656502.711                    20656510.605
 112798447.028 7  87894888.96745  21464803.070                    21464811.223
 115919594.751 8  90327058.558 7  22058736.883                    22058744.430
 120427641.501 7  93839876.94245  22916605.750                    22916612.387
 119350734.173 7  93000715.232 7  22711711.477                    22711722.457
 121438413.012 7  94627440.86444  23108967.750                    23108976.758
 126413616.382 6  98504242.15744  24055728.313                    24055736.461
 11  8 24  3 16  0.0000000  0 10G15G18G12G29G26G05G02G25G30G21
 114916517.763 7  89545408.805 7  21867885.453                    21867893.875
 124301561.781 6  96858315.12343  23653780.352                    23653788.891
 125471150.459 7  97769839.888 6  23876368.570                    23876378.402
 108504504.945 8  84549102.979 7  20647734.367                    20647742.129
 112755908.728 7  87861742.28545  21456708.398                    21456717.055
 115999498.815 7  90389321.450 7  22073942.141                    22073949.438
 120479511.566 7  93880295.17344  22926476.273                    22926482.656
 119419587.316 8  93054367.002 7  22724813.836                    22724824.945
 121512700.313 7  94685327.06644  23123104.070                    23123113.379
 126355694.722 7  98459108.43144  24044705.750                    24044714.020
 11  8 24  3 16 30.0000000  0 10G15G18G12G29G26G05G02G25G30G21
 114837766.413 7  89484044.156 7  21852900.094                    21852908.016
 124225374.982 6  96798948.83843  23639282.789                    23639290.371
 125564735.778 7  97842763.447 6  23894177.242                    23894186.629
 108458841.350 8  84513520.973 8  20639044.477                    20639052.855
 112713957.678 7  87829053.17445  21448725.273                    21448733.320
 116079569.456 7  90451714.151 7  22089178.875                    22089186.820
 120531504.786 7  93920809.35444  22936370.133                    22936376.551
 119488703.726 8  93108223.912 7  22737965.867                    22737977.316
 121587193.018 7  94743373.30644  23137279.750                    23137289.016
 126297730.222 7  98413941.32743  24033675.938                    24033683.523
 11  8 24  3 17  0.0000000  0 10G15G18G12G29G26G05G02G25G30G21
 114759343.978 7  89422935.795 7  21837976.516                    21837984.723
 124149421.509 6  96739764.37043  23624828.469                    23624837.168
 125658302.852 6  97915672.752 6  23911982.172                    23911992.227
 108413592.066 8  84478261.793 8  20630434.547                    20630442.563
 112672595.887 8  87796823.24645  21440854.266                    21440862.504
 116159803.921 7  90514234.488 7  22104447.266                    22104455.234
 120583621.376 7  93961419.70344  22946287.781                    22946293.621
 119558079.859 7  93162283.230 7  22751167.914                    22751178.332
 121661887.485 7  94801576.75244  23151493.469                    23151502.410
 126239722.512 7  98368740.54443  24022637.195                    24022644.723
 11  8 24  3 17 30.0000000  0 10G15G18G12G29G26G05G02G25G30G21
 114681253.906 7  89362086.433 7  21823116.766                    21823124.762
 124073702.128 6  96680762.31943  23610420.070                    23610428.168
 125751849.101 7  97988565.835 6  23929784.234                    23929794.199
 108368759.454 8  84443327.294 8  20621902.906                    20621910.598
 112631826.169 8  87765054.66345  21433095.898                    21433104.527
 116240200.153 7  90576880.887 7  22119746.094                    22119753.309
 120635862.086 7  94002126.73544  22956228.781                    22956235.203
 119627712.877 7  93216542.697 7  22764418.188                    22764429.168
 121736780.686 7  94859935.09144  23165745.633                    23165754.203
 126181671.461 7  98323506.00543  24011590.375                    24011599.285
